<?xml version="1.0" encoding="UTF-8" standalone="no" ?>
<gpx xmlns="http://www.topografix.com/GPX/1/1" xmlns:xsi="http://www.w3.org/2001/XMLSchema-instance" xsi:schemaLocation="http://www.topografix.com/GPX/1/1 http://www.topografix.com/GPX/1/1/gpx.xsd" version="1.1" creator="VisuGPX - https://www.visugpx.com">
  <metadata>
    <name>Accès à la vire du Rocher des Heures depuis Romeyer</name>
    <desc><![CDATA[randonnée du vertige d\'après Pascal Sombardier
]]></desc>
  </metadata>
  <trk>
    <name><![CDATA[Vire du Rocher des Heures (accès)]]></name>
    <trkseg>
      <trkpt lat="44.80651" lon="5.44649">
        <ele>1039.32</ele>
        <time>2015-09-20T07:20:43Z</time>
      </trkpt>
      <trkpt lat="44.80652" lon="5.44649">
        <ele>1040.76</ele>
        <time>2015-09-20T07:20:45Z</time>
      </trkpt>
      <trkpt lat="44.80652" lon="5.4465">
        <ele>1042.21</ele>
        <time>2015-09-20T07:20:49Z</time>
      </trkpt>
      <trkpt lat="44.80649" lon="5.44652">
        <ele>1045.09</ele>
        <time>2015-09-20T07:21:07Z</time>
      </trkpt>
      <trkpt lat="44.80646" lon="5.44655">
        <ele>1047.97</ele>
        <time>2015-09-20T07:21:26Z</time>
      </trkpt>
      <trkpt lat="44.80642" lon="5.44658">
        <ele>1049.9</ele>
        <time>2015-09-20T07:21:57Z</time>
      </trkpt>
      <trkpt lat="44.80637" lon="5.44658">
        <ele>1049.42</ele>
        <time>2015-09-20T07:22:15Z</time>
      </trkpt>
      <trkpt lat="44.80631" lon="5.44654">
        <ele>1049.9</ele>
        <time>2015-09-20T07:22:45Z</time>
      </trkpt>
      <trkpt lat="44.80635" lon="5.44656">
        <ele>1049.9</ele>
        <time>2015-09-20T07:23:12Z</time>
      </trkpt>
      <trkpt lat="44.80628" lon="5.44652">
        <ele>1051.34</ele>
        <time>2015-09-20T07:23:34Z</time>
      </trkpt>
      <trkpt lat="44.80624" lon="5.4465">
        <ele>1051.82</ele>
        <time>2015-09-20T07:23:59Z</time>
      </trkpt>
      <trkpt lat="44.80616" lon="5.44644">
        <ele>1052.3</ele>
        <time>2015-09-20T07:24:13Z</time>
      </trkpt>
      <trkpt lat="44.8061" lon="5.44638">
        <ele>1054.22</ele>
        <time>2015-09-20T07:24:26Z</time>
      </trkpt>
      <trkpt lat="44.80607" lon="5.44629">
        <ele>1057.11</ele>
        <time>2015-09-20T07:24:41Z</time>
      </trkpt>
      <trkpt lat="44.80603" lon="5.4462">
        <ele>1058.07</ele>
        <time>2015-09-20T07:24:55Z</time>
      </trkpt>
      <trkpt lat="44.80602" lon="5.44613">
        <ele>1059.99</ele>
        <time>2015-09-20T07:25:13Z</time>
      </trkpt>
      <trkpt lat="44.806" lon="5.44607">
        <ele>1058.07</ele>
        <time>2015-09-20T07:25:16Z</time>
      </trkpt>
      <trkpt lat="44.80598" lon="5.44597">
        <ele>1059.99</ele>
        <time>2015-09-20T07:25:27Z</time>
      </trkpt>
      <trkpt lat="44.80596" lon="5.44587">
        <ele>1060.47</ele>
        <time>2015-09-20T07:25:42Z</time>
      </trkpt>
      <trkpt lat="44.80594" lon="5.44577">
        <ele>1063.36</ele>
        <time>2015-09-20T07:26:01Z</time>
      </trkpt>
      <trkpt lat="44.80591" lon="5.4456">
        <ele>1063.84</ele>
        <time>2015-09-20T07:26:15Z</time>
      </trkpt>
      <trkpt lat="44.80586" lon="5.44539">
        <ele>1064.8</ele>
        <time>2015-09-20T07:26:18Z</time>
      </trkpt>
      <trkpt lat="44.80579" lon="5.44522">
        <ele>1067.68</ele>
        <time>2015-09-20T07:26:32Z</time>
      </trkpt>
      <trkpt lat="44.80571" lon="5.44519">
        <ele>1068.64</ele>
        <time>2015-09-20T07:26:47Z</time>
      </trkpt>
      <trkpt lat="44.80569" lon="5.44534">
        <ele>1068.64</ele>
        <time>2015-09-20T07:26:48Z</time>
      </trkpt>
      <trkpt lat="44.80574" lon="5.44592">
        <ele>1069.6</ele>
        <time>2015-09-20T07:27:02Z</time>
      </trkpt>
      <trkpt lat="44.80576" lon="5.44612">
        <ele>1070.08</ele>
        <time>2015-09-20T07:27:17Z</time>
      </trkpt>
      <trkpt lat="44.80579" lon="5.44635">
        <ele>1071.05</ele>
        <time>2015-09-20T07:27:32Z</time>
      </trkpt>
      <trkpt lat="44.80583" lon="5.44658">
        <ele>1072.97</ele>
        <time>2015-09-20T07:27:46Z</time>
      </trkpt>
      <trkpt lat="44.80587" lon="5.44675">
        <ele>1073.93</ele>
        <time>2015-09-20T07:28:00Z</time>
      </trkpt>
      <trkpt lat="44.80591" lon="5.44691">
        <ele>1075.85</ele>
        <time>2015-09-20T07:28:11Z</time>
      </trkpt>
      <trkpt lat="44.80598" lon="5.4471">
        <ele>1078.26</ele>
        <time>2015-09-20T07:28:28Z</time>
      </trkpt>
      <trkpt lat="44.80604" lon="5.44731">
        <ele>1079.7</ele>
        <time>2015-09-20T07:28:44Z</time>
      </trkpt>
      <trkpt lat="44.80615" lon="5.44749">
        <ele>1082.1</ele>
        <time>2015-09-20T07:29:02Z</time>
      </trkpt>
      <trkpt lat="44.80627" lon="5.44763">
        <ele>1082.58</ele>
        <time>2015-09-20T07:29:16Z</time>
      </trkpt>
      <trkpt lat="44.80632" lon="5.44773">
        <ele>1083.06</ele>
        <time>2015-09-20T07:29:30Z</time>
      </trkpt>
      <trkpt lat="44.80635" lon="5.44781">
        <ele>1085.47</ele>
        <time>2015-09-20T07:29:47Z</time>
      </trkpt>
      <trkpt lat="44.80638" lon="5.44786">
        <ele>1085.47</ele>
        <time>2015-09-20T07:29:48Z</time>
      </trkpt>
      <trkpt lat="44.80642" lon="5.44797">
        <ele>1085.47</ele>
        <time>2015-09-20T07:30:02Z</time>
      </trkpt>
      <trkpt lat="44.80647" lon="5.44809">
        <ele>1085.95</ele>
        <time>2015-09-20T07:30:17Z</time>
      </trkpt>
      <trkpt lat="44.80649" lon="5.44816">
        <ele>1087.39</ele>
        <time>2015-09-20T07:30:25Z</time>
      </trkpt>
      <trkpt lat="44.80658" lon="5.44825">
        <ele>1087.87</ele>
        <time>2015-09-20T07:30:40Z</time>
      </trkpt>
      <trkpt lat="44.80677" lon="5.44835">
        <ele>1088.35</ele>
        <time>2015-09-20T07:30:55Z</time>
      </trkpt>
      <trkpt lat="44.80678" lon="5.44836">
        <ele>1087.39</ele>
        <time>2015-09-20T07:30:57Z</time>
      </trkpt>
      <trkpt lat="44.80691" lon="5.44843">
        <ele>1087.87</ele>
        <time>2015-09-20T07:31:10Z</time>
      </trkpt>
      <trkpt lat="44.80696" lon="5.44856">
        <ele>1090.75</ele>
        <time>2015-09-20T07:31:17Z</time>
      </trkpt>
      <trkpt lat="44.80698" lon="5.44874">
        <ele>1091.71</ele>
        <time>2015-09-20T07:31:23Z</time>
      </trkpt>
      <trkpt lat="44.80699" lon="5.44894">
        <ele>1091.23</ele>
        <time>2015-09-20T07:31:37Z</time>
      </trkpt>
      <trkpt lat="44.807" lon="5.4491">
        <ele>1094.6</ele>
        <time>2015-09-20T07:31:48Z</time>
      </trkpt>
      <trkpt lat="44.80698" lon="5.44917">
        <ele>1094.12</ele>
        <time>2015-09-20T07:31:49Z</time>
      </trkpt>
      <trkpt lat="44.80697" lon="5.44926">
        <ele>1096.52</ele>
        <time>2015-09-20T07:31:56Z</time>
      </trkpt>
      <trkpt lat="44.80691" lon="5.44945">
        <ele>1097.48</ele>
        <time>2015-09-20T07:32:14Z</time>
      </trkpt>
      <trkpt lat="44.80691" lon="5.44955">
        <ele>1098.92</ele>
        <time>2015-09-20T07:32:26Z</time>
      </trkpt>
      <trkpt lat="44.80694" lon="5.44962">
        <ele>1099.4</ele>
        <time>2015-09-20T07:32:41Z</time>
      </trkpt>
      <trkpt lat="44.80697" lon="5.44969">
        <ele>1099.89</ele>
        <time>2015-09-20T07:32:48Z</time>
      </trkpt>
      <trkpt lat="44.807" lon="5.44976">
        <ele>1100.85</ele>
        <time>2015-09-20T07:32:59Z</time>
      </trkpt>
      <trkpt lat="44.80708" lon="5.44988">
        <ele>1101.33</ele>
        <time>2015-09-20T07:33:16Z</time>
      </trkpt>
      <trkpt lat="44.80721" lon="5.44998">
        <ele>1101.33</ele>
        <time>2015-09-20T07:33:28Z</time>
      </trkpt>
      <trkpt lat="44.80731" lon="5.45003">
        <ele>1103.73</ele>
        <time>2015-09-20T07:33:41Z</time>
      </trkpt>
      <trkpt lat="44.80734" lon="5.45005">
        <ele>1105.65</ele>
        <time>2015-09-20T07:33:50Z</time>
      </trkpt>
      <trkpt lat="44.80741" lon="5.45011">
        <ele>1106.61</ele>
        <time>2015-09-20T07:34:01Z</time>
      </trkpt>
      <trkpt lat="44.80753" lon="5.45021">
        <ele>1108.54</ele>
        <time>2015-09-20T07:34:19Z</time>
      </trkpt>
      <trkpt lat="44.80758" lon="5.45025">
        <ele>1109.02</ele>
        <time>2015-09-20T07:34:37Z</time>
      </trkpt>
      <trkpt lat="44.80763" lon="5.4503">
        <ele>1108.06</ele>
        <time>2015-09-20T07:34:55Z</time>
      </trkpt>
      <trkpt lat="44.80768" lon="5.45037">
        <ele>1108.54</ele>
        <time>2015-09-20T07:35:24Z</time>
      </trkpt>
      <trkpt lat="44.8077" lon="5.45036">
        <ele>1108.54</ele>
        <time>2015-09-20T07:35:25Z</time>
      </trkpt>
      <trkpt lat="44.80766" lon="5.45036">
        <ele>1111.42</ele>
        <time>2015-09-20T07:35:42Z</time>
      </trkpt>
      <trkpt lat="44.80765" lon="5.45036">
        <ele>1109.98</ele>
        <time>2015-09-20T07:35:43Z</time>
      </trkpt>
      <trkpt lat="44.80778" lon="5.4505">
        <ele>1111.42</ele>
        <time>2015-09-20T07:35:55Z</time>
      </trkpt>
      <trkpt lat="44.80779" lon="5.45046">
        <ele>1111.9</ele>
        <time>2015-09-20T07:36:03Z</time>
      </trkpt>
      <trkpt lat="44.80771" lon="5.45055">
        <ele>1113.34</ele>
        <time>2015-09-20T07:36:16Z</time>
      </trkpt>
      <trkpt lat="44.80772" lon="5.45058">
        <ele>1114.79</ele>
        <time>2015-09-20T07:36:19Z</time>
      </trkpt>
      <trkpt lat="44.80778" lon="5.45065">
        <ele>1116.23</ele>
        <time>2015-09-20T07:36:30Z</time>
      </trkpt>
      <trkpt lat="44.80785" lon="5.45073">
        <ele>1119.59</ele>
        <time>2015-09-20T07:36:44Z</time>
      </trkpt>
      <trkpt lat="44.80787" lon="5.45078">
        <ele>1121.03</ele>
        <time>2015-09-20T07:36:53Z</time>
      </trkpt>
      <trkpt lat="44.8079" lon="5.4508">
        <ele>1123.92</ele>
        <time>2015-09-20T07:36:57Z</time>
      </trkpt>
      <trkpt lat="44.80798" lon="5.4508">
        <ele>1124.4</ele>
        <time>2015-09-20T07:37:08Z</time>
      </trkpt>
      <trkpt lat="44.80806" lon="5.45085">
        <ele>1126.32</ele>
        <time>2015-09-20T07:37:16Z</time>
      </trkpt>
      <trkpt lat="44.80817" lon="5.45094">
        <ele>1129.69</ele>
        <time>2015-09-20T07:37:31Z</time>
      </trkpt>
      <trkpt lat="44.80812" lon="5.45108">
        <ele>1131.13</ele>
        <time>2015-09-20T07:37:47Z</time>
      </trkpt>
      <trkpt lat="44.80804" lon="5.45115">
        <ele>1130.17</ele>
        <time>2015-09-20T07:38:05Z</time>
      </trkpt>
      <trkpt lat="44.808" lon="5.45126">
        <ele>1130.17</ele>
        <time>2015-09-20T07:38:26Z</time>
      </trkpt>
      <trkpt lat="44.80805" lon="5.4514">
        <ele>1130.17</ele>
        <time>2015-09-20T07:38:40Z</time>
      </trkpt>
      <trkpt lat="44.80802" lon="5.45158">
        <ele>1130.65</ele>
        <time>2015-09-20T07:38:56Z</time>
      </trkpt>
      <trkpt lat="44.80805" lon="5.45182">
        <ele>1128.73</ele>
        <time>2015-09-20T07:39:13Z</time>
      </trkpt>
      <trkpt lat="44.80802" lon="5.45206">
        <ele>1131.13</ele>
        <time>2015-09-20T07:39:30Z</time>
      </trkpt>
      <trkpt lat="44.80799" lon="5.45225">
        <ele>1133.53</ele>
        <time>2015-09-20T07:39:46Z</time>
      </trkpt>
      <trkpt lat="44.80793" lon="5.45242">
        <ele>1135.45</ele>
        <time>2015-09-20T07:39:59Z</time>
      </trkpt>
      <trkpt lat="44.80787" lon="5.45254">
        <ele>1135.94</ele>
        <time>2015-09-20T07:40:10Z</time>
      </trkpt>
      <trkpt lat="44.80774" lon="5.45268">
        <ele>1136.9</ele>
        <time>2015-09-20T07:40:26Z</time>
      </trkpt>
      <trkpt lat="44.80765" lon="5.45286">
        <ele>1138.34</ele>
        <time>2015-09-20T07:40:40Z</time>
      </trkpt>
      <trkpt lat="44.80764" lon="5.45307">
        <ele>1139.3</ele>
        <time>2015-09-20T07:40:52Z</time>
      </trkpt>
      <trkpt lat="44.80753" lon="5.45316">
        <ele>1141.7</ele>
        <time>2015-09-20T07:41:09Z</time>
      </trkpt>
      <trkpt lat="44.80741" lon="5.45334">
        <ele>1144.11</ele>
        <time>2015-09-20T07:41:24Z</time>
      </trkpt>
      <trkpt lat="44.80734" lon="5.4535">
        <ele>1144.59</ele>
        <time>2015-09-20T07:41:37Z</time>
      </trkpt>
      <trkpt lat="44.80727" lon="5.45368">
        <ele>1146.99</ele>
        <time>2015-09-20T07:41:52Z</time>
      </trkpt>
      <trkpt lat="44.80726" lon="5.45375">
        <ele>1148.43</ele>
        <time>2015-09-20T07:41:58Z</time>
      </trkpt>
      <trkpt lat="44.80726" lon="5.45381">
        <ele>1148.43</ele>
        <time>2015-09-20T07:42:04Z</time>
      </trkpt>
      <trkpt lat="44.80722" lon="5.4539">
        <ele>1150.35</ele>
        <time>2015-09-20T07:42:19Z</time>
      </trkpt>
      <trkpt lat="44.80725" lon="5.45392">
        <ele>1150.35</ele>
        <time>2015-09-20T07:42:37Z</time>
      </trkpt>
      <trkpt lat="44.80727" lon="5.45392">
        <ele>1148.91</ele>
        <time>2015-09-20T07:42:51Z</time>
      </trkpt>
      <trkpt lat="44.80727" lon="5.45388">
        <ele>1147.95</ele>
        <time>2015-09-20T07:43:15Z</time>
      </trkpt>
      <trkpt lat="44.80724" lon="5.45373">
        <ele>1150.84</ele>
        <time>2015-09-20T07:43:29Z</time>
      </trkpt>
      <trkpt lat="44.80723" lon="5.45359">
        <ele>1150.84</ele>
        <time>2015-09-20T07:43:41Z</time>
      </trkpt>
      <trkpt lat="44.80724" lon="5.4534">
        <ele>1152.76</ele>
        <time>2015-09-20T07:43:54Z</time>
      </trkpt>
      <trkpt lat="44.80723" lon="5.45318">
        <ele>1152.76</ele>
        <time>2015-09-20T07:44:10Z</time>
      </trkpt>
      <trkpt lat="44.8073" lon="5.45304">
        <ele>1153.72</ele>
        <time>2015-09-20T07:44:26Z</time>
      </trkpt>
      <trkpt lat="44.80738" lon="5.45275">
        <ele>1154.68</ele>
        <time>2015-09-20T07:44:45Z</time>
      </trkpt>
      <trkpt lat="44.80742" lon="5.45257">
        <ele>1155.16</ele>
        <time>2015-09-20T07:44:58Z</time>
      </trkpt>
      <trkpt lat="44.80743" lon="5.45238">
        <ele>1156.6</ele>
        <time>2015-09-20T07:45:13Z</time>
      </trkpt>
      <trkpt lat="44.80743" lon="5.45216">
        <ele>1158.05</ele>
        <time>2015-09-20T07:45:30Z</time>
      </trkpt>
      <trkpt lat="44.80738" lon="5.45203">
        <ele>1161.89</ele>
        <time>2015-09-20T07:45:44Z</time>
      </trkpt>
      <trkpt lat="44.80737" lon="5.452">
        <ele>1162.37</ele>
        <time>2015-09-20T07:45:49Z</time>
      </trkpt>
      <trkpt lat="44.80737" lon="5.45199">
        <ele>1162.85</ele>
        <time>2015-09-20T07:45:51Z</time>
      </trkpt>
      <trkpt lat="44.80734" lon="5.45192">
        <ele>1165.26</ele>
        <time>2015-09-20T07:46:03Z</time>
      </trkpt>
      <trkpt lat="44.8073" lon="5.45183">
        <ele>1167.18</ele>
        <time>2015-09-20T07:46:18Z</time>
      </trkpt>
      <trkpt lat="44.80722" lon="5.45169">
        <ele>1169.58</ele>
        <time>2015-09-20T07:46:35Z</time>
      </trkpt>
      <trkpt lat="44.80714" lon="5.45162">
        <ele>1170.54</ele>
        <time>2015-09-20T07:46:50Z</time>
      </trkpt>
      <trkpt lat="44.80704" lon="5.45158">
        <ele>1171.5</ele>
        <time>2015-09-20T07:47:09Z</time>
      </trkpt>
      <trkpt lat="44.80693" lon="5.45163">
        <ele>1172.47</ele>
        <time>2015-09-20T07:47:28Z</time>
      </trkpt>
      <trkpt lat="44.80674" lon="5.45164">
        <ele>1171.5</ele>
        <time>2015-09-20T07:47:46Z</time>
      </trkpt>
      <trkpt lat="44.80673" lon="5.45164">
        <ele>1171.98</ele>
        <time>2015-09-20T07:47:47Z</time>
      </trkpt>
      <trkpt lat="44.80671" lon="5.45163">
        <ele>1172.95</ele>
        <time>2015-09-20T07:47:49Z</time>
      </trkpt>
      <trkpt lat="44.80656" lon="5.45139">
        <ele>1173.43</ele>
        <time>2015-09-20T07:48:06Z</time>
      </trkpt>
      <trkpt lat="44.80655" lon="5.45121">
        <ele>1175.35</ele>
        <time>2015-09-20T07:48:18Z</time>
      </trkpt>
      <trkpt lat="44.80655" lon="5.45105">
        <ele>1174.87</ele>
        <time>2015-09-20T07:48:32Z</time>
      </trkpt>
      <trkpt lat="44.80651" lon="5.45098">
        <ele>1176.31</ele>
        <time>2015-09-20T07:48:38Z</time>
      </trkpt>
      <trkpt lat="44.80645" lon="5.45094">
        <ele>1176.79</ele>
        <time>2015-09-20T07:48:48Z</time>
      </trkpt>
      <trkpt lat="44.80631" lon="5.45093">
        <ele>1178.23</ele>
        <time>2015-09-20T07:49:06Z</time>
      </trkpt>
      <trkpt lat="44.80617" lon="5.45092">
        <ele>1180.16</ele>
        <time>2015-09-20T07:49:21Z</time>
      </trkpt>
      <trkpt lat="44.80605" lon="5.45089">
        <ele>1179.19</ele>
        <time>2015-09-20T07:49:36Z</time>
      </trkpt>
      <trkpt lat="44.8059" lon="5.45092">
        <ele>1181.12</ele>
        <time>2015-09-20T07:49:52Z</time>
      </trkpt>
      <trkpt lat="44.80583" lon="5.45096">
        <ele>1180.64</ele>
        <time>2015-09-20T07:50:04Z</time>
      </trkpt>
      <trkpt lat="44.80573" lon="5.45102">
        <ele>1181.6</ele>
        <time>2015-09-20T07:50:21Z</time>
      </trkpt>
      <trkpt lat="44.80568" lon="5.45091">
        <ele>1180.16</ele>
        <time>2015-09-20T07:50:40Z</time>
      </trkpt>
      <trkpt lat="44.80562" lon="5.45076">
        <ele>1182.08</ele>
        <time>2015-09-20T07:50:53Z</time>
      </trkpt>
      <trkpt lat="44.80565" lon="5.4506">
        <ele>1181.6</ele>
        <time>2015-09-20T07:51:07Z</time>
      </trkpt>
      <trkpt lat="44.80565" lon="5.45038">
        <ele>1182.56</ele>
        <time>2015-09-20T07:51:20Z</time>
      </trkpt>
      <trkpt lat="44.80561" lon="5.45026">
        <ele>1183.52</ele>
        <time>2015-09-20T07:51:28Z</time>
      </trkpt>
      <trkpt lat="44.80555" lon="5.45007">
        <ele>1184</ele>
        <time>2015-09-20T07:51:42Z</time>
      </trkpt>
      <trkpt lat="44.80543" lon="5.44993">
        <ele>1183.52</ele>
        <time>2015-09-20T07:51:56Z</time>
      </trkpt>
      <trkpt lat="44.80531" lon="5.44975">
        <ele>1184</ele>
        <time>2015-09-20T07:52:11Z</time>
      </trkpt>
      <trkpt lat="44.80519" lon="5.44958">
        <ele>1184.96</ele>
        <time>2015-09-20T07:52:26Z</time>
      </trkpt>
      <trkpt lat="44.80504" lon="5.44943">
        <ele>1185.92</ele>
        <time>2015-09-20T07:52:43Z</time>
      </trkpt>
      <trkpt lat="44.80501" lon="5.44923">
        <ele>1186.4</ele>
        <time>2015-09-20T07:52:55Z</time>
      </trkpt>
      <trkpt lat="44.80499" lon="5.44919">
        <ele>1186.4</ele>
        <time>2015-09-20T07:52:58Z</time>
      </trkpt>
      <trkpt lat="44.80488" lon="5.44901">
        <ele>1187.85</ele>
        <time>2015-09-20T07:53:14Z</time>
      </trkpt>
      <trkpt lat="44.80475" lon="5.44888">
        <ele>1188.81</ele>
        <time>2015-09-20T07:53:29Z</time>
      </trkpt>
      <trkpt lat="44.80468" lon="5.44883">
        <ele>1188.33</ele>
        <time>2015-09-20T07:53:43Z</time>
      </trkpt>
      <trkpt lat="44.80461" lon="5.4487">
        <ele>1188.81</ele>
        <time>2015-09-20T07:53:55Z</time>
      </trkpt>
      <trkpt lat="44.80447" lon="5.44853">
        <ele>1188.81</ele>
        <time>2015-09-20T07:54:15Z</time>
      </trkpt>
      <trkpt lat="44.80441" lon="5.44847">
        <ele>1188.81</ele>
        <time>2015-09-20T07:54:32Z</time>
      </trkpt>
      <trkpt lat="44.80428" lon="5.44837">
        <ele>1187.85</ele>
        <time>2015-09-20T07:54:47Z</time>
      </trkpt>
      <trkpt lat="44.80416" lon="5.4482">
        <ele>1187.37</ele>
        <time>2015-09-20T07:55:00Z</time>
      </trkpt>
      <trkpt lat="44.80412" lon="5.44801">
        <ele>1189.29</ele>
        <time>2015-09-20T07:55:12Z</time>
      </trkpt>
      <trkpt lat="44.80411" lon="5.44776">
        <ele>1191.69</ele>
        <time>2015-09-20T07:55:25Z</time>
      </trkpt>
      <trkpt lat="44.80407" lon="5.44756">
        <ele>1192.17</ele>
        <time>2015-09-20T07:55:40Z</time>
      </trkpt>
      <trkpt lat="44.80401" lon="5.44748">
        <ele>1191.69</ele>
        <time>2015-09-20T07:55:53Z</time>
      </trkpt>
      <trkpt lat="44.80386" lon="5.44727">
        <ele>1190.73</ele>
        <time>2015-09-20T07:56:10Z</time>
      </trkpt>
      <trkpt lat="44.80389" lon="5.44703">
        <ele>1192.65</ele>
        <time>2015-09-20T07:56:26Z</time>
      </trkpt>
      <trkpt lat="44.80393" lon="5.44684">
        <ele>1193.13</ele>
        <time>2015-09-20T07:56:41Z</time>
      </trkpt>
      <trkpt lat="44.80388" lon="5.44665">
        <ele>1192.65</ele>
        <time>2015-09-20T07:56:56Z</time>
      </trkpt>
      <trkpt lat="44.8038" lon="5.44651">
        <ele>1193.61</ele>
        <time>2015-09-20T07:57:10Z</time>
      </trkpt>
      <trkpt lat="44.80374" lon="5.44649">
        <ele>1193.13</ele>
        <time>2015-09-20T07:57:17Z</time>
      </trkpt>
      <trkpt lat="44.80364" lon="5.44641">
        <ele>1196.5</ele>
        <time>2015-09-20T07:57:29Z</time>
      </trkpt>
      <trkpt lat="44.80359" lon="5.44638">
        <ele>1196.5</ele>
        <time>2015-09-20T07:57:33Z</time>
      </trkpt>
      <trkpt lat="44.8035" lon="5.44631">
        <ele>1197.46</ele>
        <time>2015-09-20T07:57:44Z</time>
      </trkpt>
      <trkpt lat="44.80344" lon="5.4463">
        <ele>1196.5</ele>
        <time>2015-09-20T07:57:51Z</time>
      </trkpt>
      <trkpt lat="44.80334" lon="5.44623">
        <ele>1196.5</ele>
        <time>2015-09-20T07:58:06Z</time>
      </trkpt>
      <trkpt lat="44.80322" lon="5.44613">
        <ele>1197.46</ele>
        <time>2015-09-20T07:58:22Z</time>
      </trkpt>
      <trkpt lat="44.80307" lon="5.44598">
        <ele>1199.86</ele>
        <time>2015-09-20T07:58:36Z</time>
      </trkpt>
      <trkpt lat="44.80303" lon="5.44587">
        <ele>1196.98</ele>
        <time>2015-09-20T07:58:48Z</time>
      </trkpt>
      <trkpt lat="44.80303" lon="5.44588">
        <ele>1196.98</ele>
        <time>2015-09-20T07:58:49Z</time>
      </trkpt>
      <trkpt lat="44.80301" lon="5.44586">
        <ele>1195.06</ele>
        <time>2015-09-20T07:58:53Z</time>
      </trkpt>
      <trkpt lat="44.803" lon="5.44584">
        <ele>1196.5</ele>
        <time>2015-09-20T07:58:56Z</time>
      </trkpt>
      <trkpt lat="44.803" lon="5.44582">
        <ele>1199.86</ele>
        <time>2015-09-20T07:59:00Z</time>
      </trkpt>
      <trkpt lat="44.80304" lon="5.44585">
        <ele>1200.34</ele>
        <time>2015-09-20T07:59:25Z</time>
      </trkpt>
      <trkpt lat="44.80304" lon="5.44586">
        <ele>1198.9</ele>
        <time>2015-09-20T07:59:28Z</time>
      </trkpt>
      <trkpt lat="44.80304" lon="5.44587">
        <ele>1200.82</ele>
        <time>2015-09-20T07:59:29Z</time>
      </trkpt>
      <trkpt lat="44.80304" lon="5.44587">
        <ele>1198.42</ele>
        <time>2015-09-20T07:59:30Z</time>
      </trkpt>
      <trkpt lat="44.80291" lon="5.44579">
        <ele>1198.42</ele>
        <time>2015-09-20T07:59:58Z</time>
      </trkpt>
      <trkpt lat="44.80293" lon="5.44556">
        <ele>1198.42</ele>
        <time>2015-09-20T08:00:14Z</time>
      </trkpt>
      <trkpt lat="44.80295" lon="5.44535">
        <ele>1200.34</ele>
        <time>2015-09-20T08:00:28Z</time>
      </trkpt>
      <trkpt lat="44.80291" lon="5.44522">
        <ele>1200.82</ele>
        <time>2015-09-20T08:00:41Z</time>
      </trkpt>
      <trkpt lat="44.80279" lon="5.44506">
        <ele>1202.27</ele>
        <time>2015-09-20T08:00:57Z</time>
      </trkpt>
      <trkpt lat="44.80268" lon="5.44499">
        <ele>1204.19</ele>
        <time>2015-09-20T08:01:11Z</time>
      </trkpt>
      <trkpt lat="44.80252" lon="5.44481">
        <ele>1204.67</ele>
        <time>2015-09-20T08:01:26Z</time>
      </trkpt>
      <trkpt lat="44.80239" lon="5.44476">
        <ele>1204.67</ele>
        <time>2015-09-20T08:01:41Z</time>
      </trkpt>
      <trkpt lat="44.8022" lon="5.44463">
        <ele>1205.15</ele>
        <time>2015-09-20T08:01:59Z</time>
      </trkpt>
      <trkpt lat="44.80211" lon="5.44446">
        <ele>1206.11</ele>
        <time>2015-09-20T08:02:12Z</time>
      </trkpt>
      <trkpt lat="44.802" lon="5.44434">
        <ele>1207.55</ele>
        <time>2015-09-20T08:02:26Z</time>
      </trkpt>
      <trkpt lat="44.80193" lon="5.44427">
        <ele>1207.55</ele>
        <time>2015-09-20T08:02:35Z</time>
      </trkpt>
      <trkpt lat="44.80177" lon="5.44412">
        <ele>1207.07</ele>
        <time>2015-09-20T08:02:52Z</time>
      </trkpt>
      <trkpt lat="44.80165" lon="5.44399">
        <ele>1209.96</ele>
        <time>2015-09-20T08:03:03Z</time>
      </trkpt>
      <trkpt lat="44.80162" lon="5.44393">
        <ele>1209.48</ele>
        <time>2015-09-20T08:03:08Z</time>
      </trkpt>
      <trkpt lat="44.80152" lon="5.44377">
        <ele>1209.96</ele>
        <time>2015-09-20T08:03:21Z</time>
      </trkpt>
      <trkpt lat="44.80152" lon="5.44352">
        <ele>1210.92</ele>
        <time>2015-09-20T08:03:37Z</time>
      </trkpt>
      <trkpt lat="44.80151" lon="5.44346">
        <ele>1211.4</ele>
        <time>2015-09-20T08:03:41Z</time>
      </trkpt>
      <trkpt lat="44.80135" lon="5.44328">
        <ele>1212.84</ele>
        <time>2015-09-20T08:03:59Z</time>
      </trkpt>
      <trkpt lat="44.80129" lon="5.44324">
        <ele>1213.32</ele>
        <time>2015-09-20T08:04:06Z</time>
      </trkpt>
      <trkpt lat="44.80117" lon="5.44316">
        <ele>1213.32</ele>
        <time>2015-09-20T08:04:21Z</time>
      </trkpt>
      <trkpt lat="44.80108" lon="5.44307">
        <ele>1213.8</ele>
        <time>2015-09-20T08:04:34Z</time>
      </trkpt>
      <trkpt lat="44.80104" lon="5.44297">
        <ele>1213.8</ele>
        <time>2015-09-20T08:04:57Z</time>
      </trkpt>
      <trkpt lat="44.80106" lon="5.44291">
        <ele>1212.84</ele>
        <time>2015-09-20T08:05:22Z</time>
      </trkpt>
      <trkpt lat="44.80104" lon="5.44286">
        <ele>1214.28</ele>
        <time>2015-09-20T08:05:33Z</time>
      </trkpt>
      <trkpt lat="44.80103" lon="5.44284">
        <ele>1213.32</ele>
        <time>2015-09-20T08:05:35Z</time>
      </trkpt>
      <trkpt lat="44.80101" lon="5.44282">
        <ele>1214.76</ele>
        <time>2015-09-20T08:05:38Z</time>
      </trkpt>
      <trkpt lat="44.80101" lon="5.44264">
        <ele>1215.24</ele>
        <time>2015-09-20T08:05:51Z</time>
      </trkpt>
      <trkpt lat="44.80096" lon="5.44252">
        <ele>1215.72</ele>
        <time>2015-09-20T08:06:02Z</time>
      </trkpt>
      <trkpt lat="44.80084" lon="5.44227">
        <ele>1217.65</ele>
        <time>2015-09-20T08:06:21Z</time>
      </trkpt>
      <trkpt lat="44.8007" lon="5.44203">
        <ele>1219.57</ele>
        <time>2015-09-20T08:06:38Z</time>
      </trkpt>
      <trkpt lat="44.80059" lon="5.44189">
        <ele>1220.05</ele>
        <time>2015-09-20T08:06:54Z</time>
      </trkpt>
      <trkpt lat="44.80046" lon="5.44166">
        <ele>1221.49</ele>
        <time>2015-09-20T08:07:12Z</time>
      </trkpt>
      <trkpt lat="44.80042" lon="5.44159">
        <ele>1221.01</ele>
        <time>2015-09-20T08:07:18Z</time>
      </trkpt>
      <trkpt lat="44.80029" lon="5.44139">
        <ele>1223.42</ele>
        <time>2015-09-20T08:07:36Z</time>
      </trkpt>
      <trkpt lat="44.80017" lon="5.44123">
        <ele>1224.38</ele>
        <time>2015-09-20T08:07:50Z</time>
      </trkpt>
      <trkpt lat="44.80014" lon="5.44122">
        <ele>1223.42</ele>
        <time>2015-09-20T08:07:53Z</time>
      </trkpt>
      <trkpt lat="44.79997" lon="5.44115">
        <ele>1226.3</ele>
        <time>2015-09-20T08:08:09Z</time>
      </trkpt>
      <trkpt lat="44.79981" lon="5.44105">
        <ele>1227.26</ele>
        <time>2015-09-20T08:08:26Z</time>
      </trkpt>
      <trkpt lat="44.79965" lon="5.44095">
        <ele>1228.7</ele>
        <time>2015-09-20T08:08:42Z</time>
      </trkpt>
      <trkpt lat="44.79946" lon="5.44087">
        <ele>1229.18</ele>
        <time>2015-09-20T08:09:00Z</time>
      </trkpt>
      <trkpt lat="44.79929" lon="5.44079">
        <ele>1230.14</ele>
        <time>2015-09-20T08:09:15Z</time>
      </trkpt>
      <trkpt lat="44.79909" lon="5.44074">
        <ele>1233.03</ele>
        <time>2015-09-20T08:09:32Z</time>
      </trkpt>
      <trkpt lat="44.79892" lon="5.44066">
        <ele>1233.03</ele>
        <time>2015-09-20T08:09:48Z</time>
      </trkpt>
      <trkpt lat="44.79878" lon="5.44052">
        <ele>1233.99</ele>
        <time>2015-09-20T08:10:04Z</time>
      </trkpt>
      <trkpt lat="44.79866" lon="5.44038">
        <ele>1236.87</ele>
        <time>2015-09-20T08:10:20Z</time>
      </trkpt>
      <trkpt lat="44.79864" lon="5.4404">
        <ele>1238.8</ele>
        <time>2015-09-20T08:10:35Z</time>
      </trkpt>
      <trkpt lat="44.79863" lon="5.44055">
        <ele>1242.16</ele>
        <time>2015-09-20T08:10:53Z</time>
      </trkpt>
      <trkpt lat="44.79862" lon="5.44067">
        <ele>1243.6</ele>
        <time>2015-09-20T08:11:07Z</time>
      </trkpt>
      <trkpt lat="44.79862" lon="5.44072">
        <ele>1245.04</ele>
        <time>2015-09-20T08:11:25Z</time>
      </trkpt>
      <trkpt lat="44.79864" lon="5.44055">
        <ele>1243.6</ele>
        <time>2015-09-20T08:11:40Z</time>
      </trkpt>
      <trkpt lat="44.79864" lon="5.44046">
        <ele>1240.72</ele>
        <time>2015-09-20T08:11:50Z</time>
      </trkpt>
      <trkpt lat="44.79864" lon="5.44045">
        <ele>1240.72</ele>
        <time>2015-09-20T08:11:51Z</time>
      </trkpt>
      <trkpt lat="44.79865" lon="5.44033">
        <ele>1237.35</ele>
        <time>2015-09-20T08:11:59Z</time>
      </trkpt>
      <trkpt lat="44.79867" lon="5.44038">
        <ele>1236.39</ele>
        <time>2015-09-20T08:12:03Z</time>
      </trkpt>
      <trkpt lat="44.79867" lon="5.4404">
        <ele>1236.87</ele>
        <time>2015-09-20T08:12:04Z</time>
      </trkpt>
      <trkpt lat="44.7988" lon="5.44056">
        <ele>1235.43</ele>
        <time>2015-09-20T08:12:18Z</time>
      </trkpt>
      <trkpt lat="44.79889" lon="5.4407">
        <ele>1236.87</ele>
        <time>2015-09-20T08:12:34Z</time>
      </trkpt>
      <trkpt lat="44.79902" lon="5.44088">
        <ele>1237.35</ele>
        <time>2015-09-20T08:12:50Z</time>
      </trkpt>
      <trkpt lat="44.79914" lon="5.441">
        <ele>1238.8</ele>
        <time>2015-09-20T08:13:06Z</time>
      </trkpt>
      <trkpt lat="44.79919" lon="5.44107">
        <ele>1240.24</ele>
        <time>2015-09-20T08:13:20Z</time>
      </trkpt>
      <trkpt lat="44.79922" lon="5.44109">
        <ele>1241.2</ele>
        <time>2015-09-20T08:13:25Z</time>
      </trkpt>
      <trkpt lat="44.79934" lon="5.44115">
        <ele>1240.72</ele>
        <time>2015-09-20T08:13:41Z</time>
      </trkpt>
      <trkpt lat="44.79948" lon="5.44129">
        <ele>1242.16</ele>
        <time>2015-09-20T08:13:55Z</time>
      </trkpt>
      <trkpt lat="44.79962" lon="5.44143">
        <ele>1243.6</ele>
        <time>2015-09-20T08:14:16Z</time>
      </trkpt>
      <trkpt lat="44.79971" lon="5.44148">
        <ele>1245.04</ele>
        <time>2015-09-20T08:14:32Z</time>
      </trkpt>
      <trkpt lat="44.79986" lon="5.44166">
        <ele>1246.49</ele>
        <time>2015-09-20T08:14:49Z</time>
      </trkpt>
      <trkpt lat="44.79998" lon="5.4418">
        <ele>1247.93</ele>
        <time>2015-09-20T08:15:07Z</time>
      </trkpt>
      <trkpt lat="44.80003" lon="5.44192">
        <ele>1249.85</ele>
        <time>2015-09-20T08:15:23Z</time>
      </trkpt>
      <trkpt lat="44.79987" lon="5.44182">
        <ele>1251.77</ele>
        <time>2015-09-20T08:15:41Z</time>
      </trkpt>
      <trkpt lat="44.79969" lon="5.44174">
        <ele>1252.74</ele>
        <time>2015-09-20T08:15:59Z</time>
      </trkpt>
      <trkpt lat="44.79953" lon="5.44168">
        <ele>1254.18</ele>
        <time>2015-09-20T08:16:15Z</time>
      </trkpt>
      <trkpt lat="44.79936" lon="5.44159">
        <ele>1256.1</ele>
        <time>2015-09-20T08:16:34Z</time>
      </trkpt>
      <trkpt lat="44.79915" lon="5.44154">
        <ele>1257.54</ele>
        <time>2015-09-20T08:16:52Z</time>
      </trkpt>
      <trkpt lat="44.79899" lon="5.44146">
        <ele>1259.94</ele>
        <time>2015-09-20T08:17:09Z</time>
      </trkpt>
      <trkpt lat="44.79898" lon="5.44146">
        <ele>1259.94</ele>
        <time>2015-09-20T08:17:10Z</time>
      </trkpt>
      <trkpt lat="44.79883" lon="5.44135">
        <ele>1261.87</ele>
        <time>2015-09-20T08:17:27Z</time>
      </trkpt>
      <trkpt lat="44.79874" lon="5.44128">
        <ele>1263.31</ele>
        <time>2015-09-20T08:17:40Z</time>
      </trkpt>
      <trkpt lat="44.79865" lon="5.44121">
        <ele>1263.31</ele>
        <time>2015-09-20T08:17:55Z</time>
      </trkpt>
      <trkpt lat="44.79862" lon="5.44119">
        <ele>1264.75</ele>
        <time>2015-09-20T08:17:59Z</time>
      </trkpt>
      <trkpt lat="44.79847" lon="5.44105">
        <ele>1264.75</ele>
        <time>2015-09-20T08:18:16Z</time>
      </trkpt>
      <trkpt lat="44.79845" lon="5.44102">
        <ele>1264.75</ele>
        <time>2015-09-20T08:18:19Z</time>
      </trkpt>
      <trkpt lat="44.79836" lon="5.44087">
        <ele>1266.19</ele>
        <time>2015-09-20T08:18:33Z</time>
      </trkpt>
      <trkpt lat="44.79834" lon="5.44083">
        <ele>1267.16</ele>
        <time>2015-09-20T08:18:51Z</time>
      </trkpt>
      <trkpt lat="44.79832" lon="5.44076">
        <ele>1267.64</ele>
        <time>2015-09-20T08:19:13Z</time>
      </trkpt>
      <trkpt lat="44.79825" lon="5.44065">
        <ele>1268.6</ele>
        <time>2015-09-20T08:19:31Z</time>
      </trkpt>
      <trkpt lat="44.79819" lon="5.44051">
        <ele>1270.52</ele>
        <time>2015-09-20T08:19:47Z</time>
      </trkpt>
      <trkpt lat="44.79792" lon="5.44027">
        <ele>1272.92</ele>
        <time>2015-09-20T08:20:05Z</time>
      </trkpt>
      <trkpt lat="44.79775" lon="5.44008">
        <ele>1275.81</ele>
        <time>2015-09-20T08:20:24Z</time>
      </trkpt>
      <trkpt lat="44.79762" lon="5.43997">
        <ele>1277.73</ele>
        <time>2015-09-20T08:20:41Z</time>
      </trkpt>
      <trkpt lat="44.79743" lon="5.43989">
        <ele>1278.69</ele>
        <time>2015-09-20T08:20:59Z</time>
      </trkpt>
      <trkpt lat="44.79729" lon="5.43979">
        <ele>1281.57</ele>
        <time>2015-09-20T08:21:18Z</time>
      </trkpt>
      <trkpt lat="44.79718" lon="5.43973">
        <ele>1284.46</ele>
        <time>2015-09-20T08:21:30Z</time>
      </trkpt>
      <trkpt lat="44.79708" lon="5.43962">
        <ele>1285.9</ele>
        <time>2015-09-20T08:21:43Z</time>
      </trkpt>
      <trkpt lat="44.79708" lon="5.43969">
        <ele>1286.86</ele>
        <time>2015-09-20T08:22:02Z</time>
      </trkpt>
      <trkpt lat="44.79716" lon="5.43983">
        <ele>1288.3</ele>
        <time>2015-09-20T08:22:17Z</time>
      </trkpt>
      <trkpt lat="44.79719" lon="5.43989">
        <ele>1289.27</ele>
        <time>2015-09-20T08:22:22Z</time>
      </trkpt>
      <trkpt lat="44.79728" lon="5.44006">
        <ele>1291.19</ele>
        <time>2015-09-20T08:22:39Z</time>
      </trkpt>
      <trkpt lat="44.7973" lon="5.44008">
        <ele>1293.11</ele>
        <time>2015-09-20T08:22:44Z</time>
      </trkpt>
      <trkpt lat="44.79739" lon="5.44022">
        <ele>1294.55</ele>
        <time>2015-09-20T08:23:03Z</time>
      </trkpt>
      <trkpt lat="44.79751" lon="5.4403">
        <ele>1296.96</ele>
        <time>2015-09-20T08:23:17Z</time>
      </trkpt>
      <trkpt lat="44.79748" lon="5.4403">
        <ele>1298.88</ele>
        <time>2015-09-20T08:23:32Z</time>
      </trkpt>
      <trkpt lat="44.79737" lon="5.44028">
        <ele>1299.84</ele>
        <time>2015-09-20T08:23:45Z</time>
      </trkpt>
      <trkpt lat="44.79725" lon="5.44027">
        <ele>1302.24</ele>
        <time>2015-09-20T08:24:03Z</time>
      </trkpt>
      <trkpt lat="44.79723" lon="5.44031">
        <ele>1305.13</ele>
        <time>2015-09-20T08:24:19Z</time>
      </trkpt>
      <trkpt lat="44.79734" lon="5.44046">
        <ele>1305.13</ele>
        <time>2015-09-20T08:24:39Z</time>
      </trkpt>
      <trkpt lat="44.79747" lon="5.44054">
        <ele>1307.53</ele>
        <time>2015-09-20T08:24:55Z</time>
      </trkpt>
      <trkpt lat="44.79759" lon="5.44057">
        <ele>1308.97</ele>
        <time>2015-09-20T08:25:10Z</time>
      </trkpt>
      <trkpt lat="44.79761" lon="5.44058">
        <ele>1308.97</ele>
        <time>2015-09-20T08:25:26Z</time>
      </trkpt>
      <trkpt lat="44.79757" lon="5.4406">
        <ele>1308.01</ele>
        <time>2015-09-20T08:25:53Z</time>
      </trkpt>
      <trkpt lat="44.79764" lon="5.44076">
        <ele>1308.97</ele>
        <time>2015-09-20T08:26:09Z</time>
      </trkpt>
      <trkpt lat="44.79772" lon="5.44089">
        <ele>1311.38</ele>
        <time>2015-09-20T08:26:25Z</time>
      </trkpt>
      <trkpt lat="44.79765" lon="5.44086">
        <ele>1313.3</ele>
        <time>2015-09-20T08:26:39Z</time>
      </trkpt>
      <trkpt lat="44.7975" lon="5.4408">
        <ele>1315.22</ele>
        <time>2015-09-20T08:26:58Z</time>
      </trkpt>
      <trkpt lat="44.79738" lon="5.44081">
        <ele>1316.18</ele>
        <time>2015-09-20T08:27:12Z</time>
      </trkpt>
      <trkpt lat="44.79733" lon="5.44085">
        <ele>1314.74</ele>
        <time>2015-09-20T08:27:30Z</time>
      </trkpt>
      <trkpt lat="44.79733" lon="5.44085">
        <ele>1317.14</ele>
        <time>2015-09-20T08:27:34Z</time>
      </trkpt>
      <trkpt lat="44.79734" lon="5.44081">
        <ele>1314.26</ele>
        <time>2015-09-20T08:27:50Z</time>
      </trkpt>
      <trkpt lat="44.79734" lon="5.44081">
        <ele>1316.18</ele>
        <time>2015-09-20T08:27:51Z</time>
      </trkpt>
      <trkpt lat="44.79734" lon="5.44081">
        <ele>1313.78</ele>
        <time>2015-09-20T08:27:53Z</time>
      </trkpt>
      <trkpt lat="44.79733" lon="5.44081">
        <ele>1315.22</ele>
        <time>2015-09-20T08:27:55Z</time>
      </trkpt>
      <trkpt lat="44.79728" lon="5.44084">
        <ele>1315.7</ele>
        <time>2015-09-20T08:28:13Z</time>
      </trkpt>
      <trkpt lat="44.79726" lon="5.44088">
        <ele>1316.66</ele>
        <time>2015-09-20T08:28:34Z</time>
      </trkpt>
      <trkpt lat="44.79727" lon="5.44087">
        <ele>1316.18</ele>
        <time>2015-09-20T08:28:58Z</time>
      </trkpt>
      <trkpt lat="44.79725" lon="5.44086">
        <ele>1316.66</ele>
        <time>2015-09-20T08:29:24Z</time>
      </trkpt>
      <trkpt lat="44.79726" lon="5.44081">
        <ele>1317.14</ele>
        <time>2015-09-20T08:29:41Z</time>
      </trkpt>
      <trkpt lat="44.79723" lon="5.44074">
        <ele>1318.1</ele>
        <time>2015-09-20T08:29:59Z</time>
      </trkpt>
      <trkpt lat="44.79726" lon="5.44082">
        <ele>1317.62</ele>
        <time>2015-09-20T08:30:22Z</time>
      </trkpt>
      <trkpt lat="44.79734" lon="5.4409">
        <ele>1316.18</ele>
        <time>2015-09-20T08:30:36Z</time>
      </trkpt>
      <trkpt lat="44.79738" lon="5.44089">
        <ele>1316.18</ele>
        <time>2015-09-20T08:31:02Z</time>
      </trkpt>
      <trkpt lat="44.79733" lon="5.44086">
        <ele>1317.14</ele>
        <time>2015-09-20T08:31:19Z</time>
      </trkpt>
      <trkpt lat="44.79733" lon="5.44084">
        <ele>1320.03</ele>
        <time>2015-09-20T08:31:35Z</time>
      </trkpt>
      <trkpt lat="44.79733" lon="5.44087">
        <ele>1318.59</ele>
        <time>2015-09-20T08:31:56Z</time>
      </trkpt>
      <trkpt lat="44.79727" lon="5.44084">
        <ele>1318.59</ele>
        <time>2015-09-20T08:32:10Z</time>
      </trkpt>
      <trkpt lat="44.79732" lon="5.44088">
        <ele>1318.1</ele>
        <time>2015-09-20T08:32:38Z</time>
      </trkpt>
      <trkpt lat="44.79738" lon="5.44085">
        <ele>1319.07</ele>
        <time>2015-09-20T08:32:58Z</time>
      </trkpt>
      <trkpt lat="44.79737" lon="5.44085">
        <ele>1319.07</ele>
        <time>2015-09-20T08:33:18Z</time>
      </trkpt>
      <trkpt lat="44.79735" lon="5.44085">
        <ele>1318.1</ele>
        <time>2015-09-20T08:33:38Z</time>
      </trkpt>
      <trkpt lat="44.79738" lon="5.44084">
        <ele>1317.62</ele>
        <time>2015-09-20T08:33:58Z</time>
      </trkpt>
      <trkpt lat="44.79739" lon="5.44081">
        <ele>1316.66</ele>
        <time>2015-09-20T08:34:10Z</time>
      </trkpt>
      <trkpt lat="44.79742" lon="5.4408">
        <ele>1316.66</ele>
        <time>2015-09-20T08:34:13Z</time>
      </trkpt>
      <trkpt lat="44.7975" lon="5.44089">
        <ele>1318.59</ele>
        <time>2015-09-20T08:34:26Z</time>
      </trkpt>
      <trkpt lat="44.79764" lon="5.44104">
        <ele>1319.55</ele>
        <time>2015-09-20T08:34:43Z</time>
      </trkpt>
      <trkpt lat="44.79777" lon="5.44111">
        <ele>1320.99</ele>
        <time>2015-09-20T08:34:58Z</time>
      </trkpt>
      <trkpt lat="44.79794" lon="5.44125">
        <ele>1321.47</ele>
        <time>2015-09-20T08:35:15Z</time>
      </trkpt>
      <trkpt lat="44.79801" lon="5.44127">
        <ele>1322.43</ele>
        <time>2015-09-20T08:35:33Z</time>
      </trkpt>
      <trkpt lat="44.79808" lon="5.4414">
        <ele>1322.91</ele>
        <time>2015-09-20T08:35:56Z</time>
      </trkpt>
      <trkpt lat="44.79816" lon="5.44155">
        <ele>1324.83</ele>
        <time>2015-09-20T08:36:11Z</time>
      </trkpt>
      <trkpt lat="44.79823" lon="5.44168">
        <ele>1325.8</ele>
        <time>2015-09-20T08:36:25Z</time>
      </trkpt>
      <trkpt lat="44.79831" lon="5.44172">
        <ele>1326.76</ele>
        <time>2015-09-20T08:36:39Z</time>
      </trkpt>
      <trkpt lat="44.79838" lon="5.44183">
        <ele>1326.76</ele>
        <time>2015-09-20T08:36:56Z</time>
      </trkpt>
      <trkpt lat="44.79839" lon="5.44184">
        <ele>1326.28</ele>
        <time>2015-09-20T08:36:58Z</time>
      </trkpt>
      <trkpt lat="44.79847" lon="5.44201">
        <ele>1328.68</ele>
        <time>2015-09-20T08:37:12Z</time>
      </trkpt>
      <trkpt lat="44.79851" lon="5.44222">
        <ele>1329.16</ele>
        <time>2015-09-20T08:37:27Z</time>
      </trkpt>
      <trkpt lat="44.79858" lon="5.44245">
        <ele>1330.12</ele>
        <time>2015-09-20T08:37:44Z</time>
      </trkpt>
      <trkpt lat="44.79865" lon="5.44264">
        <ele>1332.52</ele>
        <time>2015-09-20T08:37:58Z</time>
      </trkpt>
      <trkpt lat="44.79874" lon="5.44283">
        <ele>1333.97</ele>
        <time>2015-09-20T08:38:14Z</time>
      </trkpt>
      <trkpt lat="44.79879" lon="5.44303">
        <ele>1335.89</ele>
        <time>2015-09-20T08:38:34Z</time>
      </trkpt>
      <trkpt lat="44.79886" lon="5.44316">
        <ele>1339.25</ele>
        <time>2015-09-20T08:38:45Z</time>
      </trkpt>
      <trkpt lat="44.79889" lon="5.44328">
        <ele>1342.62</ele>
        <time>2015-09-20T08:39:02Z</time>
      </trkpt>
      <trkpt lat="44.79893" lon="5.44344">
        <ele>1345.5</ele>
        <time>2015-09-20T08:39:18Z</time>
      </trkpt>
      <trkpt lat="44.79893" lon="5.44355">
        <ele>1347.43</ele>
        <time>2015-09-20T08:39:35Z</time>
      </trkpt>
      <trkpt lat="44.79891" lon="5.44358">
        <ele>1349.83</ele>
        <time>2015-09-20T08:39:53Z</time>
      </trkpt>
      <trkpt lat="44.79885" lon="5.44349">
        <ele>1350.31</ele>
        <time>2015-09-20T08:40:15Z</time>
      </trkpt>
      <trkpt lat="44.79873" lon="5.44337">
        <ele>1351.75</ele>
        <time>2015-09-20T08:40:31Z</time>
      </trkpt>
      <trkpt lat="44.79873" lon="5.44353">
        <ele>1354.63</ele>
        <time>2015-09-20T08:40:43Z</time>
      </trkpt>
      <trkpt lat="44.79877" lon="5.44364">
        <ele>1358</ele>
        <time>2015-09-20T08:40:55Z</time>
      </trkpt>
      <trkpt lat="44.79874" lon="5.44365">
        <ele>1361.36</ele>
        <time>2015-09-20T08:41:10Z</time>
      </trkpt>
      <trkpt lat="44.79862" lon="5.44357">
        <ele>1363.29</ele>
        <time>2015-09-20T08:41:24Z</time>
      </trkpt>
      <trkpt lat="44.79861" lon="5.44358">
        <ele>1365.21</ele>
        <time>2015-09-20T08:41:29Z</time>
      </trkpt>
      <trkpt lat="44.79859" lon="5.44358">
        <ele>1366.65</ele>
        <time>2015-09-20T08:41:48Z</time>
      </trkpt>
      <trkpt lat="44.79853" lon="5.44356">
        <ele>1365.69</ele>
        <time>2015-09-20T08:42:10Z</time>
      </trkpt>
      <trkpt lat="44.79851" lon="5.4436">
        <ele>1362.33</ele>
        <time>2015-09-20T08:42:25Z</time>
      </trkpt>
      <trkpt lat="44.79849" lon="5.44367">
        <ele>1358.96</ele>
        <time>2015-09-20T08:42:39Z</time>
      </trkpt>
      <trkpt lat="44.79849" lon="5.44368">
        <ele>1358.48</ele>
        <time>2015-09-20T08:42:40Z</time>
      </trkpt>
      <trkpt lat="44.79846" lon="5.44368">
        <ele>1355.6</ele>
        <time>2015-09-20T08:42:52Z</time>
      </trkpt>
      <trkpt lat="44.79842" lon="5.4437">
        <ele>1352.71</ele>
        <time>2015-09-20T08:43:08Z</time>
      </trkpt>
      <trkpt lat="44.79838" lon="5.44377">
        <ele>1349.83</ele>
        <time>2015-09-20T08:43:25Z</time>
      </trkpt>
      <trkpt lat="44.79836" lon="5.4437">
        <ele>1346.46</ele>
        <time>2015-09-20T08:43:37Z</time>
      </trkpt>
      <trkpt lat="44.79833" lon="5.44375">
        <ele>1342.62</ele>
        <time>2015-09-20T08:43:51Z</time>
      </trkpt>
      <trkpt lat="44.7983" lon="5.44382">
        <ele>1339.73</ele>
        <time>2015-09-20T08:44:08Z</time>
      </trkpt>
      <trkpt lat="44.79825" lon="5.44388">
        <ele>1336.37</ele>
        <time>2015-09-20T08:44:22Z</time>
      </trkpt>
      <trkpt lat="44.79822" lon="5.44394">
        <ele>1333.97</ele>
        <time>2015-09-20T08:44:29Z</time>
      </trkpt>
      <trkpt lat="44.79819" lon="5.44405">
        <ele>1330.6</ele>
        <time>2015-09-20T08:44:39Z</time>
      </trkpt>
      <trkpt lat="44.7981" lon="5.44415">
        <ele>1328.68</ele>
        <time>2015-09-20T08:44:55Z</time>
      </trkpt>
      <trkpt lat="44.79804" lon="5.44432">
        <ele>1324.83</ele>
        <time>2015-09-20T08:45:10Z</time>
      </trkpt>
      <trkpt lat="44.79797" lon="5.44437">
        <ele>1325.31</ele>
        <time>2015-09-20T08:45:27Z</time>
      </trkpt>
      <trkpt lat="44.79798" lon="5.4444">
        <ele>1325.31</ele>
        <time>2015-09-20T08:45:51Z</time>
      </trkpt>
      <trkpt lat="44.79794" lon="5.44446">
        <ele>1324.83</ele>
        <time>2015-09-20T08:46:17Z</time>
      </trkpt>
      <trkpt lat="44.79793" lon="5.44448">
        <ele>1323.87</ele>
        <time>2015-09-20T08:46:19Z</time>
      </trkpt>
      <trkpt lat="44.79784" lon="5.44462">
        <ele>1320.51</ele>
        <time>2015-09-20T08:46:34Z</time>
      </trkpt>
      <trkpt lat="44.79777" lon="5.4447">
        <ele>1318.59</ele>
        <time>2015-09-20T08:46:49Z</time>
      </trkpt>
      <trkpt lat="44.79773" lon="5.44479">
        <ele>1315.7</ele>
        <time>2015-09-20T08:47:00Z</time>
      </trkpt>
      <trkpt lat="44.79768" lon="5.44497">
        <ele>1313.3</ele>
        <time>2015-09-20T08:47:14Z</time>
      </trkpt>
      <trkpt lat="44.79763" lon="5.44506">
        <ele>1313.78</ele>
        <time>2015-09-20T08:47:28Z</time>
      </trkpt>
      <trkpt lat="44.79755" lon="5.44513">
        <ele>1311.86</ele>
        <time>2015-09-20T08:47:42Z</time>
      </trkpt>
      <trkpt lat="44.79744" lon="5.44532">
        <ele>1311.38</ele>
        <time>2015-09-20T08:47:57Z</time>
      </trkpt>
      <trkpt lat="44.79737" lon="5.44542">
        <ele>1311.38</ele>
        <time>2015-09-20T08:48:15Z</time>
      </trkpt>
      <trkpt lat="44.79732" lon="5.4455">
        <ele>1308.49</ele>
        <time>2015-09-20T08:48:24Z</time>
      </trkpt>
      <trkpt lat="44.79727" lon="5.44559">
        <ele>1306.09</ele>
        <time>2015-09-20T08:48:36Z</time>
      </trkpt>
      <trkpt lat="44.79726" lon="5.44561">
        <ele>1305.13</ele>
        <time>2015-09-20T08:48:50Z</time>
      </trkpt>
      <trkpt lat="44.79726" lon="5.44575">
        <ele>1306.09</ele>
        <time>2015-09-20T08:49:11Z</time>
      </trkpt>
      <trkpt lat="44.79733" lon="5.44573">
        <ele>1306.57</ele>
        <time>2015-09-20T08:49:33Z</time>
      </trkpt>
      <trkpt lat="44.79726" lon="5.44582">
        <ele>1305.61</ele>
        <time>2015-09-20T08:49:51Z</time>
      </trkpt>
      <trkpt lat="44.7972" lon="5.446">
        <ele>1307.05</ele>
        <time>2015-09-20T08:50:08Z</time>
      </trkpt>
      <trkpt lat="44.79706" lon="5.44605">
        <ele>1306.57</ele>
        <time>2015-09-20T08:50:22Z</time>
      </trkpt>
      <trkpt lat="44.79689" lon="5.44612">
        <ele>1307.05</ele>
        <time>2015-09-20T08:50:37Z</time>
      </trkpt>
      <trkpt lat="44.79679" lon="5.44618">
        <ele>1307.05</ele>
        <time>2015-09-20T08:50:51Z</time>
      </trkpt>
      <trkpt lat="44.79674" lon="5.4462">
        <ele>1307.05</ele>
        <time>2015-09-20T08:50:56Z</time>
      </trkpt>
      <trkpt lat="44.79668" lon="5.44618">
        <ele>1307.05</ele>
        <time>2015-09-20T08:51:02Z</time>
      </trkpt>
      <trkpt lat="44.79662" lon="5.44615">
        <ele>1306.57</ele>
        <time>2015-09-20T08:51:20Z</time>
      </trkpt>
      <trkpt lat="44.79662" lon="5.44611">
        <ele>1307.05</ele>
        <time>2015-09-20T08:51:44Z</time>
      </trkpt>
      <trkpt lat="44.7966" lon="5.44606">
        <ele>1306.57</ele>
        <time>2015-09-20T08:52:08Z</time>
      </trkpt>
      <trkpt lat="44.79659" lon="5.44595">
        <ele>1307.05</ele>
        <time>2015-09-20T08:52:28Z</time>
      </trkpt>
      <trkpt lat="44.79653" lon="5.44611">
        <ele>1308.01</ele>
        <time>2015-09-20T08:52:39Z</time>
      </trkpt>
      <trkpt lat="44.7965" lon="5.44618">
        <ele>1307.53</ele>
        <time>2015-09-20T08:52:49Z</time>
      </trkpt>
      <trkpt lat="44.79642" lon="5.44622">
        <ele>1308.97</ele>
        <time>2015-09-20T08:53:01Z</time>
      </trkpt>
      <trkpt lat="44.79641" lon="5.4462">
        <ele>1308.01</ele>
        <time>2015-09-20T08:53:04Z</time>
      </trkpt>
      <trkpt lat="44.79635" lon="5.44613">
        <ele>1306.09</ele>
        <time>2015-09-20T08:53:19Z</time>
      </trkpt>
      <trkpt lat="44.79639" lon="5.4462">
        <ele>1306.57</ele>
        <time>2015-09-20T08:53:39Z</time>
      </trkpt>
      <trkpt lat="44.79638" lon="5.4462">
        <ele>1307.53</ele>
        <time>2015-09-20T08:53:44Z</time>
      </trkpt>
      <trkpt lat="44.79628" lon="5.44612">
        <ele>1306.57</ele>
        <time>2015-09-20T08:53:59Z</time>
      </trkpt>
      <trkpt lat="44.79624" lon="5.44615">
        <ele>1306.57</ele>
        <time>2015-09-20T08:54:12Z</time>
      </trkpt>
      <trkpt lat="44.7961" lon="5.44621">
        <ele>1307.05</ele>
        <time>2015-09-20T08:54:29Z</time>
      </trkpt>
      <trkpt lat="44.79604" lon="5.44619">
        <ele>1307.53</ele>
        <time>2015-09-20T08:54:36Z</time>
      </trkpt>
      <trkpt lat="44.79585" lon="5.44615">
        <ele>1306.57</ele>
        <time>2015-09-20T08:54:55Z</time>
      </trkpt>
      <trkpt lat="44.79571" lon="5.44641">
        <ele>1307.05</ele>
        <time>2015-09-20T08:55:10Z</time>
      </trkpt>
      <trkpt lat="44.79567" lon="5.44642">
        <ele>1306.57</ele>
        <time>2015-09-20T08:55:13Z</time>
      </trkpt>
      <trkpt lat="44.79558" lon="5.44654">
        <ele>1306.57</ele>
        <time>2015-09-20T08:55:27Z</time>
      </trkpt>
      <trkpt lat="44.7956" lon="5.44682">
        <ele>1305.61</ele>
        <time>2015-09-20T08:55:46Z</time>
      </trkpt>
      <trkpt lat="44.79561" lon="5.44684">
        <ele>1305.13</ele>
        <time>2015-09-20T08:55:48Z</time>
      </trkpt>
      <trkpt lat="44.79563" lon="5.44699">
        <ele>1305.61</ele>
        <time>2015-09-20T08:55:58Z</time>
      </trkpt>
      <trkpt lat="44.79578" lon="5.44718">
        <ele>1305.61</ele>
        <time>2015-09-20T08:56:16Z</time>
      </trkpt>
      <trkpt lat="44.79593" lon="5.44736">
        <ele>1306.09</ele>
        <time>2015-09-20T08:56:33Z</time>
      </trkpt>
      <trkpt lat="44.79604" lon="5.44752">
        <ele>1305.61</ele>
        <time>2015-09-20T08:56:47Z</time>
      </trkpt>
      <trkpt lat="44.79615" lon="5.44777">
        <ele>1305.61</ele>
        <time>2015-09-20T08:57:05Z</time>
      </trkpt>
      <trkpt lat="44.79617" lon="5.44778">
        <ele>1305.61</ele>
        <time>2015-09-20T08:57:07Z</time>
      </trkpt>
      <trkpt lat="44.79626" lon="5.44791">
        <ele>1305.61</ele>
        <time>2015-09-20T08:57:17Z</time>
      </trkpt>
      <trkpt lat="44.79629" lon="5.44796">
        <ele>1306.09</ele>
        <time>2015-09-20T08:57:21Z</time>
      </trkpt>
      <trkpt lat="44.79634" lon="5.44804">
        <ele>1305.61</ele>
        <time>2015-09-20T08:57:26Z</time>
      </trkpt>
      <trkpt lat="44.79649" lon="5.44828">
        <ele>1305.61</ele>
        <time>2015-09-20T08:57:45Z</time>
      </trkpt>
      <trkpt lat="44.79664" lon="5.44844">
        <ele>1305.61</ele>
        <time>2015-09-20T08:58:00Z</time>
      </trkpt>
      <trkpt lat="44.79677" lon="5.4486">
        <ele>1305.61</ele>
        <time>2015-09-20T08:58:16Z</time>
      </trkpt>
      <trkpt lat="44.79682" lon="5.44887">
        <ele>1305.61</ele>
        <time>2015-09-20T08:58:34Z</time>
      </trkpt>
      <trkpt lat="44.79683" lon="5.44917">
        <ele>1305.13</ele>
        <time>2015-09-20T08:58:52Z</time>
      </trkpt>
      <trkpt lat="44.79687" lon="5.44941">
        <ele>1305.61</ele>
        <time>2015-09-20T08:59:08Z</time>
      </trkpt>
      <trkpt lat="44.79688" lon="5.44953">
        <ele>1306.57</ele>
        <time>2015-09-20T08:59:21Z</time>
      </trkpt>
      <trkpt lat="44.79682" lon="5.44962">
        <ele>1306.09</ele>
        <time>2015-09-20T08:59:30Z</time>
      </trkpt>
      <trkpt lat="44.79669" lon="5.44985">
        <ele>1306.09</ele>
        <time>2015-09-20T08:59:46Z</time>
      </trkpt>
      <trkpt lat="44.79666" lon="5.44991">
        <ele>1305.61</ele>
        <time>2015-09-20T09:00:06Z</time>
      </trkpt>
      <trkpt lat="44.79664" lon="5.44989">
        <ele>1306.09</ele>
        <time>2015-09-20T09:00:29Z</time>
      </trkpt>
      <trkpt lat="44.79665" lon="5.45007">
        <ele>1306.57</ele>
        <time>2015-09-20T09:00:46Z</time>
      </trkpt>
      <trkpt lat="44.79674" lon="5.45039">
        <ele>1306.09</ele>
        <time>2015-09-20T09:01:06Z</time>
      </trkpt>
      <trkpt lat="44.79678" lon="5.45051">
        <ele>1306.09</ele>
        <time>2015-09-20T09:01:15Z</time>
      </trkpt>
      <trkpt lat="44.79681" lon="5.4507">
        <ele>1305.61</ele>
        <time>2015-09-20T09:01:33Z</time>
      </trkpt>
      <trkpt lat="44.79687" lon="5.45093">
        <ele>1306.09</ele>
        <time>2015-09-20T09:01:50Z</time>
      </trkpt>
      <trkpt lat="44.79678" lon="5.45111">
        <ele>1305.13</ele>
        <time>2015-09-20T09:02:07Z</time>
      </trkpt>
      <trkpt lat="44.79659" lon="5.45125">
        <ele>1305.13</ele>
        <time>2015-09-20T09:02:24Z</time>
      </trkpt>
      <trkpt lat="44.79644" lon="5.45135">
        <ele>1305.13</ele>
        <time>2015-09-20T09:02:41Z</time>
      </trkpt>
      <trkpt lat="44.79635" lon="5.45149">
        <ele>1304.65</ele>
        <time>2015-09-20T09:02:49Z</time>
      </trkpt>
      <trkpt lat="44.7963" lon="5.45175">
        <ele>1305.13</ele>
        <time>2015-09-20T09:03:05Z</time>
      </trkpt>
      <trkpt lat="44.79629" lon="5.45195">
        <ele>1304.65</ele>
        <time>2015-09-20T09:03:18Z</time>
      </trkpt>
      <trkpt lat="44.79629" lon="5.45222">
        <ele>1304.65</ele>
        <time>2015-09-20T09:03:35Z</time>
      </trkpt>
      <trkpt lat="44.79631" lon="5.45248">
        <ele>1304.17</ele>
        <time>2015-09-20T09:03:51Z</time>
      </trkpt>
      <trkpt lat="44.79625" lon="5.45272">
        <ele>1303.69</ele>
        <time>2015-09-20T09:04:07Z</time>
      </trkpt>
      <trkpt lat="44.79611" lon="5.45286">
        <ele>1305.13</ele>
        <time>2015-09-20T09:04:23Z</time>
      </trkpt>
      <trkpt lat="44.79606" lon="5.45301">
        <ele>1303.2</ele>
        <time>2015-09-20T09:04:37Z</time>
      </trkpt>
      <trkpt lat="44.79601" lon="5.45328">
        <ele>1303.69</ele>
        <time>2015-09-20T09:04:55Z</time>
      </trkpt>
      <trkpt lat="44.79592" lon="5.45353">
        <ele>1303.2</ele>
        <time>2015-09-20T09:05:11Z</time>
      </trkpt>
      <trkpt lat="44.79581" lon="5.45383">
        <ele>1303.2</ele>
        <time>2015-09-20T09:05:29Z</time>
      </trkpt>
      <trkpt lat="44.79574" lon="5.45406">
        <ele>1302.72</ele>
        <time>2015-09-20T09:05:45Z</time>
      </trkpt>
      <trkpt lat="44.79577" lon="5.4543">
        <ele>1301.76</ele>
        <time>2015-09-20T09:06:00Z</time>
      </trkpt>
      <trkpt lat="44.79579" lon="5.45451">
        <ele>1301.28</ele>
        <time>2015-09-20T09:06:18Z</time>
      </trkpt>
      <trkpt lat="44.79567" lon="5.45458">
        <ele>1302.24</ele>
        <time>2015-09-20T09:06:32Z</time>
      </trkpt>
      <trkpt lat="44.79545" lon="5.45461">
        <ele>1301.76</ele>
        <time>2015-09-20T09:06:50Z</time>
      </trkpt>
      <trkpt lat="44.79533" lon="5.45473">
        <ele>1301.28</ele>
        <time>2015-09-20T09:07:05Z</time>
      </trkpt>
      <trkpt lat="44.79523" lon="5.45493">
        <ele>1300.32</ele>
        <time>2015-09-20T09:07:22Z</time>
      </trkpt>
      <trkpt lat="44.79507" lon="5.45505">
        <ele>1299.84</ele>
        <time>2015-09-20T09:07:38Z</time>
      </trkpt>
      <trkpt lat="44.79492" lon="5.45515">
        <ele>1299.36</ele>
        <time>2015-09-20T09:07:53Z</time>
      </trkpt>
      <trkpt lat="44.79478" lon="5.45532">
        <ele>1298.88</ele>
        <time>2015-09-20T09:08:08Z</time>
      </trkpt>
      <trkpt lat="44.7946" lon="5.45544">
        <ele>1297.44</ele>
        <time>2015-09-20T09:08:24Z</time>
      </trkpt>
      <trkpt lat="44.79448" lon="5.45554">
        <ele>1297.44</ele>
        <time>2015-09-20T09:08:39Z</time>
      </trkpt>
      <trkpt lat="44.79433" lon="5.45567">
        <ele>1296.48</ele>
        <time>2015-09-20T09:08:56Z</time>
      </trkpt>
      <trkpt lat="44.7942" lon="5.45586">
        <ele>1295.51</ele>
        <time>2015-09-20T09:09:11Z</time>
      </trkpt>
      <trkpt lat="44.79415" lon="5.45593">
        <ele>1293.59</ele>
        <time>2015-09-20T09:09:18Z</time>
      </trkpt>
      <trkpt lat="44.79403" lon="5.45608">
        <ele>1293.11</ele>
        <time>2015-09-20T09:09:33Z</time>
      </trkpt>
      <trkpt lat="44.79389" lon="5.45629">
        <ele>1292.63</ele>
        <time>2015-09-20T09:09:50Z</time>
      </trkpt>
      <trkpt lat="44.7938" lon="5.45648">
        <ele>1293.59</ele>
        <time>2015-09-20T09:10:05Z</time>
      </trkpt>
      <trkpt lat="44.79364" lon="5.45664">
        <ele>1292.63</ele>
        <time>2015-09-20T09:10:23Z</time>
      </trkpt>
      <trkpt lat="44.79347" lon="5.45684">
        <ele>1291.67</ele>
        <time>2015-09-20T09:10:42Z</time>
      </trkpt>
      <trkpt lat="44.79337" lon="5.45696">
        <ele>1290.71</ele>
        <time>2015-09-20T09:10:54Z</time>
      </trkpt>
      <trkpt lat="44.79324" lon="5.45718">
        <ele>1289.75</ele>
        <time>2015-09-20T09:11:11Z</time>
      </trkpt>
      <trkpt lat="44.7932" lon="5.45725">
        <ele>1289.75</ele>
        <time>2015-09-20T09:11:17Z</time>
      </trkpt>
      <trkpt lat="44.79303" lon="5.4576">
        <ele>1289.75</ele>
        <time>2015-09-20T09:11:36Z</time>
      </trkpt>
      <trkpt lat="44.79291" lon="5.45779">
        <ele>1287.34</ele>
        <time>2015-09-20T09:11:52Z</time>
      </trkpt>
      <trkpt lat="44.7928" lon="5.45795">
        <ele>1288.3</ele>
        <time>2015-09-20T09:12:06Z</time>
      </trkpt>
      <trkpt lat="44.79271" lon="5.45805">
        <ele>1286.86</ele>
        <time>2015-09-20T09:12:14Z</time>
      </trkpt>
      <trkpt lat="44.79257" lon="5.45814">
        <ele>1284.46</ele>
        <time>2015-09-20T09:12:26Z</time>
      </trkpt>
      <trkpt lat="44.79247" lon="5.45816">
        <ele>1284.94</ele>
        <time>2015-09-20T09:12:42Z</time>
      </trkpt>
      <trkpt lat="44.79244" lon="5.45821">
        <ele>1282.54</ele>
        <time>2015-09-20T09:12:51Z</time>
      </trkpt>
      <trkpt lat="44.79244" lon="5.45822">
        <ele>1284.46</ele>
        <time>2015-09-20T09:12:53Z</time>
      </trkpt>
      <trkpt lat="44.79243" lon="5.4583">
        <ele>1284.46</ele>
        <time>2015-09-20T09:13:14Z</time>
      </trkpt>
      <trkpt lat="44.79244" lon="5.45834">
        <ele>1284.46</ele>
        <time>2015-09-20T09:13:42Z</time>
      </trkpt>
      <trkpt lat="44.79248" lon="5.45838">
        <ele>1281.57</ele>
        <time>2015-09-20T09:14:08Z</time>
      </trkpt>
      <trkpt lat="44.79248" lon="5.45838">
        <ele>1285.9</ele>
        <time>2015-09-20T09:14:09Z</time>
      </trkpt>
      <trkpt lat="44.79247" lon="5.45835">
        <ele>1284.46</ele>
        <time>2015-09-20T09:14:35Z</time>
      </trkpt>
      <trkpt lat="44.79248" lon="5.45839">
        <ele>1283.98</ele>
        <time>2015-09-20T09:15:05Z</time>
      </trkpt>
      <trkpt lat="44.79246" lon="5.45819">
        <ele>1283.5</ele>
        <time>2015-09-20T09:15:43Z</time>
      </trkpt>
      <trkpt lat="44.79246" lon="5.45827">
        <ele>1284.94</ele>
        <time>2015-09-20T09:16:01Z</time>
      </trkpt>
      <trkpt lat="44.79252" lon="5.4582">
        <ele>1288.3</ele>
        <time>2015-09-20T09:16:12Z</time>
      </trkpt>
      <trkpt lat="44.79252" lon="5.4582">
        <ele>1287.82</ele>
        <time>2015-09-20T09:16:13Z</time>
      </trkpt>
      <trkpt lat="44.79256" lon="5.4582">
        <ele>1291.67</ele>
        <time>2015-09-20T09:16:27Z</time>
      </trkpt>
      <trkpt lat="44.79262" lon="5.45819">
        <ele>1295.51</ele>
        <time>2015-09-20T09:16:44Z</time>
      </trkpt>
      <trkpt lat="44.79269" lon="5.45814">
        <ele>1298.88</ele>
        <time>2015-09-20T09:17:00Z</time>
      </trkpt>
      <trkpt lat="44.79278" lon="5.45818">
        <ele>1300.8</ele>
        <time>2015-09-20T09:17:20Z</time>
      </trkpt>
      <trkpt lat="44.79285" lon="5.45817">
        <ele>1304.65</ele>
        <time>2015-09-20T09:17:38Z</time>
      </trkpt>
      <trkpt lat="44.79288" lon="5.4583">
        <ele>1308.01</ele>
        <time>2015-09-20T09:17:54Z</time>
      </trkpt>
      <trkpt lat="44.79288" lon="5.45837">
        <ele>1310.9</ele>
        <time>2015-09-20T09:18:13Z</time>
      </trkpt>
      <trkpt lat="44.79292" lon="5.45848">
        <ele>1313.78</ele>
        <time>2015-09-20T09:18:32Z</time>
      </trkpt>
      <trkpt lat="44.79289" lon="5.4586">
        <ele>1317.14</ele>
        <time>2015-09-20T09:18:51Z</time>
      </trkpt>
      <trkpt lat="44.79286" lon="5.45875">
        <ele>1319.55</ele>
        <time>2015-09-20T09:19:06Z</time>
      </trkpt>
      <trkpt lat="44.79285" lon="5.45879">
        <ele>1320.99</ele>
        <time>2015-09-20T09:19:23Z</time>
      </trkpt>
      <trkpt lat="44.79284" lon="5.45885">
        <ele>1322.91</ele>
        <time>2015-09-20T09:19:39Z</time>
      </trkpt>
      <trkpt lat="44.79277" lon="5.45892">
        <ele>1326.28</ele>
        <time>2015-09-20T09:19:53Z</time>
      </trkpt>
      <trkpt lat="44.7927" lon="5.459">
        <ele>1329.16</ele>
        <time>2015-09-20T09:20:11Z</time>
      </trkpt>
      <trkpt lat="44.79261" lon="5.45909">
        <ele>1331.56</ele>
        <time>2015-09-20T09:20:30Z</time>
      </trkpt>
      <trkpt lat="44.7926" lon="5.45923">
        <ele>1334.93</ele>
        <time>2015-09-20T09:20:49Z</time>
      </trkpt>
      <trkpt lat="44.79254" lon="5.4594">
        <ele>1337.33</ele>
        <time>2015-09-20T09:21:06Z</time>
      </trkpt>
      <trkpt lat="44.79251" lon="5.45951">
        <ele>1340.7</ele>
        <time>2015-09-20T09:21:23Z</time>
      </trkpt>
      <trkpt lat="44.79251" lon="5.45964">
        <ele>1343.58</ele>
        <time>2015-09-20T09:21:38Z</time>
      </trkpt>
      <trkpt lat="44.79254" lon="5.45975">
        <ele>1343.1</ele>
        <time>2015-09-20T09:22:05Z</time>
      </trkpt>
      <trkpt lat="44.79257" lon="5.45972">
        <ele>1342.14</ele>
        <time>2015-09-20T09:22:34Z</time>
      </trkpt>
      <trkpt lat="44.79254" lon="5.45964">
        <ele>1343.1</ele>
        <time>2015-09-20T09:23:00Z</time>
      </trkpt>
      <trkpt lat="44.79253" lon="5.45961">
        <ele>1345.02</ele>
        <time>2015-09-20T09:23:19Z</time>
      </trkpt>
      <trkpt lat="44.79259" lon="5.45963">
        <ele>1348.39</ele>
        <time>2015-09-20T09:23:36Z</time>
      </trkpt>
      <trkpt lat="44.79261" lon="5.45972">
        <ele>1351.27</ele>
        <time>2015-09-20T09:23:54Z</time>
      </trkpt>
      <trkpt lat="44.79261" lon="5.45979">
        <ele>1354.15</ele>
        <time>2015-09-20T09:24:11Z</time>
      </trkpt>
      <trkpt lat="44.79254" lon="5.45991">
        <ele>1356.56</ele>
        <time>2015-09-20T09:24:28Z</time>
      </trkpt>
      <trkpt lat="44.79248" lon="5.45998">
        <ele>1358.48</ele>
        <time>2015-09-20T09:24:43Z</time>
      </trkpt>
      <trkpt lat="44.79239" lon="5.46015">
        <ele>1359.92</ele>
        <time>2015-09-20T09:25:02Z</time>
      </trkpt>
      <trkpt lat="44.79235" lon="5.46027">
        <ele>1361.84</ele>
        <time>2015-09-20T09:25:17Z</time>
      </trkpt>
      <trkpt lat="44.79231" lon="5.46044">
        <ele>1364.25</ele>
        <time>2015-09-20T09:25:34Z</time>
      </trkpt>
      <trkpt lat="44.79228" lon="5.46057">
        <ele>1365.21</ele>
        <time>2015-09-20T09:25:50Z</time>
      </trkpt>
      <trkpt lat="44.79219" lon="5.46075">
        <ele>1366.17</ele>
        <time>2015-09-20T09:26:08Z</time>
      </trkpt>
      <trkpt lat="44.79208" lon="5.46089">
        <ele>1367.13</ele>
        <time>2015-09-20T09:26:28Z</time>
      </trkpt>
      <trkpt lat="44.79204" lon="5.46104">
        <ele>1369.54</ele>
        <time>2015-09-20T09:26:45Z</time>
      </trkpt>
      <trkpt lat="44.79192" lon="5.46117">
        <ele>1372.42</ele>
        <time>2015-09-20T09:27:06Z</time>
      </trkpt>
      <trkpt lat="44.79188" lon="5.46121">
        <ele>1374.34</ele>
        <time>2015-09-20T09:27:22Z</time>
      </trkpt>
      <trkpt lat="44.7918" lon="5.46123">
        <ele>1377.23</ele>
        <time>2015-09-20T09:27:38Z</time>
      </trkpt>
      <trkpt lat="44.79173" lon="5.46135">
        <ele>1379.63</ele>
        <time>2015-09-20T09:27:58Z</time>
      </trkpt>
      <trkpt lat="44.79162" lon="5.46141">
        <ele>1382.51</ele>
        <time>2015-09-20T09:28:17Z</time>
      </trkpt>
      <trkpt lat="44.79153" lon="5.46152">
        <ele>1385.4</ele>
        <time>2015-09-20T09:28:37Z</time>
      </trkpt>
      <trkpt lat="44.79141" lon="5.46148">
        <ele>1388.28</ele>
        <time>2015-09-20T09:28:56Z</time>
      </trkpt>
      <trkpt lat="44.79131" lon="5.46153">
        <ele>1390.68</ele>
        <time>2015-09-20T09:29:14Z</time>
      </trkpt>
      <trkpt lat="44.79128" lon="5.46164">
        <ele>1390.68</ele>
        <time>2015-09-20T09:29:43Z</time>
      </trkpt>
      <trkpt lat="44.79129" lon="5.46155">
        <ele>1390.2</ele>
        <time>2015-09-20T09:30:05Z</time>
      </trkpt>
      <trkpt lat="44.79128" lon="5.46165">
        <ele>1390.2</ele>
        <time>2015-09-20T09:30:32Z</time>
      </trkpt>
      <trkpt lat="44.79126" lon="5.46166">
        <ele>1389.24</ele>
        <time>2015-09-20T09:31:03Z</time>
      </trkpt>
      <trkpt lat="44.79123" lon="5.46161">
        <ele>1389.72</ele>
        <time>2015-09-20T09:31:33Z</time>
      </trkpt>
      <trkpt lat="44.79116" lon="5.46156">
        <ele>1392.61</ele>
        <time>2015-09-20T09:31:48Z</time>
      </trkpt>
      <trkpt lat="44.79109" lon="5.46161">
        <ele>1396.45</ele>
        <time>2015-09-20T09:32:07Z</time>
      </trkpt>
      <trkpt lat="44.79099" lon="5.46176">
        <ele>1399.34</ele>
        <time>2015-09-20T09:32:28Z</time>
      </trkpt>
      <trkpt lat="44.79092" lon="5.46188">
        <ele>1402.22</ele>
        <time>2015-09-20T09:32:47Z</time>
      </trkpt>
      <trkpt lat="44.79088" lon="5.462">
        <ele>1405.58</ele>
        <time>2015-09-20T09:33:04Z</time>
      </trkpt>
      <trkpt lat="44.79085" lon="5.46217">
        <ele>1408.47</ele>
        <time>2015-09-20T09:33:25Z</time>
      </trkpt>
      <trkpt lat="44.79083" lon="5.46222">
        <ele>1410.87</ele>
        <time>2015-09-20T09:33:40Z</time>
      </trkpt>
      <trkpt lat="44.79073" lon="5.46216">
        <ele>1413.28</ele>
        <time>2015-09-20T09:33:57Z</time>
      </trkpt>
      <trkpt lat="44.79066" lon="5.46217">
        <ele>1414.72</ele>
        <time>2015-09-20T09:34:15Z</time>
      </trkpt>
      <trkpt lat="44.79064" lon="5.46215">
        <ele>1414.72</ele>
        <time>2015-09-20T09:34:29Z</time>
      </trkpt>
      <trkpt lat="44.79061" lon="5.46208">
        <ele>1413.76</ele>
        <time>2015-09-20T09:34:45Z</time>
      </trkpt>
      <trkpt lat="44.79057" lon="5.46208">
        <ele>1414.72</ele>
        <time>2015-09-20T09:35:00Z</time>
      </trkpt>
      <trkpt lat="44.79058" lon="5.46202">
        <ele>1413.76</ele>
        <time>2015-09-20T09:35:19Z</time>
      </trkpt>
      <trkpt lat="44.79056" lon="5.46203">
        <ele>1414.72</ele>
        <time>2015-09-20T09:35:42Z</time>
      </trkpt>
      <trkpt lat="44.79051" lon="5.46203">
        <ele>1415.2</ele>
        <time>2015-09-20T09:36:06Z</time>
      </trkpt>
      <trkpt lat="44.79044" lon="5.46207">
        <ele>1418.56</ele>
        <time>2015-09-20T09:36:21Z</time>
      </trkpt>
      <trkpt lat="44.79035" lon="5.46214">
        <ele>1421.45</ele>
        <time>2015-09-20T09:36:37Z</time>
      </trkpt>
      <trkpt lat="44.7903" lon="5.46219">
        <ele>1423.85</ele>
        <time>2015-09-20T09:36:51Z</time>
      </trkpt>
      <trkpt lat="44.79029" lon="5.4622">
        <ele>1424.81</ele>
        <time>2015-09-20T09:36:55Z</time>
      </trkpt>
      <trkpt lat="44.79027" lon="5.46227">
        <ele>1426.25</ele>
        <time>2015-09-20T09:37:11Z</time>
      </trkpt>
      <trkpt lat="44.79018" lon="5.46227">
        <ele>1428.18</ele>
        <time>2015-09-20T09:37:25Z</time>
      </trkpt>
      <trkpt lat="44.79011" lon="5.46231">
        <ele>1431.06</ele>
        <time>2015-09-20T09:37:39Z</time>
      </trkpt>
      <trkpt lat="44.79011" lon="5.46234">
        <ele>1432.5</ele>
        <time>2015-09-20T09:37:56Z</time>
      </trkpt>
      <trkpt lat="44.79009" lon="5.46237">
        <ele>1434.91</ele>
        <time>2015-09-20T09:38:09Z</time>
      </trkpt>
      <trkpt lat="44.79009" lon="5.46245">
        <ele>1436.83</ele>
        <time>2015-09-20T09:38:22Z</time>
      </trkpt>
      <trkpt lat="44.79005" lon="5.46244">
        <ele>1439.23</ele>
        <time>2015-09-20T09:38:38Z</time>
      </trkpt>
      <trkpt lat="44.79002" lon="5.4625">
        <ele>1441.63</ele>
        <time>2015-09-20T09:38:53Z</time>
      </trkpt>
      <trkpt lat="44.79003" lon="5.46249">
        <ele>1444.52</ele>
        <time>2015-09-20T09:39:10Z</time>
      </trkpt>
      <trkpt lat="44.78998" lon="5.46247">
        <ele>1443.56</ele>
        <time>2015-09-20T09:39:31Z</time>
      </trkpt>
      <trkpt lat="44.78993" lon="5.46246">
        <ele>1444.04</ele>
        <time>2015-09-20T09:40:01Z</time>
      </trkpt>
      <trkpt lat="44.78998" lon="5.46247">
        <ele>1444.52</ele>
        <time>2015-09-20T09:40:26Z</time>
      </trkpt>
      <trkpt lat="44.78998" lon="5.46248">
        <ele>1444.52</ele>
        <time>2015-09-20T09:40:44Z</time>
      </trkpt>
      <trkpt lat="44.78993" lon="5.46246">
        <ele>1446.44</ele>
        <time>2015-09-20T09:41:06Z</time>
      </trkpt>
      <trkpt lat="44.7899" lon="5.46252">
        <ele>1449.81</ele>
        <time>2015-09-20T09:41:19Z</time>
      </trkpt>
      <trkpt lat="44.78983" lon="5.46258">
        <ele>1451.73</ele>
        <time>2015-09-20T09:41:35Z</time>
      </trkpt>
      <trkpt lat="44.78981" lon="5.46261">
        <ele>1454.13</ele>
        <time>2015-09-20T09:41:48Z</time>
      </trkpt>
      <trkpt lat="44.78977" lon="5.46258">
        <ele>1456.05</ele>
        <time>2015-09-20T09:42:00Z</time>
      </trkpt>
      <trkpt lat="44.78975" lon="5.46262">
        <ele>1458.46</ele>
        <time>2015-09-20T09:42:13Z</time>
      </trkpt>
      <trkpt lat="44.7897" lon="5.46264">
        <ele>1457.98</ele>
        <time>2015-09-20T09:42:27Z</time>
      </trkpt>
      <trkpt lat="44.78966" lon="5.4627">
        <ele>1460.86</ele>
        <time>2015-09-20T09:42:43Z</time>
      </trkpt>
      <trkpt lat="44.78963" lon="5.46277">
        <ele>1464.23</ele>
        <time>2015-09-20T09:42:57Z</time>
      </trkpt>
      <trkpt lat="44.78962" lon="5.46278">
        <ele>1465.19</ele>
        <time>2015-09-20T09:43:03Z</time>
      </trkpt>
      <trkpt lat="44.78959" lon="5.46286">
        <ele>1467.59</ele>
        <time>2015-09-20T09:43:19Z</time>
      </trkpt>
      <trkpt lat="44.78959" lon="5.46286">
        <ele>1469.51</ele>
        <time>2015-09-20T09:43:33Z</time>
      </trkpt>
      <trkpt lat="44.78952" lon="5.46297">
        <ele>1471.44</ele>
        <time>2015-09-20T09:43:48Z</time>
      </trkpt>
      <trkpt lat="44.78952" lon="5.46303">
        <ele>1473.84</ele>
        <time>2015-09-20T09:44:03Z</time>
      </trkpt>
      <trkpt lat="44.78962" lon="5.46301">
        <ele>1474.8</ele>
        <time>2015-09-20T09:44:17Z</time>
      </trkpt>
      <trkpt lat="44.78955" lon="5.46296">
        <ele>1477.2</ele>
        <time>2015-09-20T09:44:31Z</time>
      </trkpt>
      <trkpt lat="44.7895" lon="5.46293">
        <ele>1478.65</ele>
        <time>2015-09-20T09:44:42Z</time>
      </trkpt>
      <trkpt lat="44.78945" lon="5.46291">
        <ele>1479.61</ele>
        <time>2015-09-20T09:44:53Z</time>
      </trkpt>
      <trkpt lat="44.7894" lon="5.46287">
        <ele>1482.01</ele>
        <time>2015-09-20T09:45:07Z</time>
      </trkpt>
      <trkpt lat="44.78932" lon="5.46286">
        <ele>1485.37</ele>
        <time>2015-09-20T09:45:20Z</time>
      </trkpt>
      <trkpt lat="44.78925" lon="5.46287">
        <ele>1488.26</ele>
        <time>2015-09-20T09:45:35Z</time>
      </trkpt>
      <trkpt lat="44.78918" lon="5.46289">
        <ele>1489.7</ele>
        <time>2015-09-20T09:45:51Z</time>
      </trkpt>
      <trkpt lat="44.78913" lon="5.46288">
        <ele>1492.1</ele>
        <time>2015-09-20T09:46:04Z</time>
      </trkpt>
      <trkpt lat="44.78909" lon="5.46287">
        <ele>1493.55</ele>
        <time>2015-09-20T09:46:16Z</time>
      </trkpt>
      <trkpt lat="44.78905" lon="5.46286">
        <ele>1495.47</ele>
        <time>2015-09-20T09:46:32Z</time>
      </trkpt>
      <trkpt lat="44.789" lon="5.4629">
        <ele>1496.43</ele>
        <time>2015-09-20T09:46:54Z</time>
      </trkpt>
      <trkpt lat="44.78894" lon="5.46279">
        <ele>1497.87</ele>
        <time>2015-09-20T09:47:14Z</time>
      </trkpt>
      <trkpt lat="44.7889" lon="5.46279">
        <ele>1500.27</ele>
        <time>2015-09-20T09:47:27Z</time>
      </trkpt>
      <trkpt lat="44.78884" lon="5.46277">
        <ele>1503.16</ele>
        <time>2015-09-20T09:47:42Z</time>
      </trkpt>
      <trkpt lat="44.78881" lon="5.46271">
        <ele>1506.52</ele>
        <time>2015-09-20T09:47:56Z</time>
      </trkpt>
      <trkpt lat="44.78876" lon="5.46273">
        <ele>1507</ele>
        <time>2015-09-20T09:48:16Z</time>
      </trkpt>
      <trkpt lat="44.7887" lon="5.46274">
        <ele>1507</ele>
        <time>2015-09-20T09:48:39Z</time>
      </trkpt>
      <trkpt lat="44.78866" lon="5.46275">
        <ele>1507.48</ele>
        <time>2015-09-20T09:49:02Z</time>
      </trkpt>
      <trkpt lat="44.78862" lon="5.46268">
        <ele>1509.41</ele>
        <time>2015-09-20T09:49:22Z</time>
      </trkpt>
      <trkpt lat="44.78861" lon="5.46262">
        <ele>1511.81</ele>
        <time>2015-09-20T09:49:37Z</time>
      </trkpt>
      <trkpt lat="44.78859" lon="5.46261">
        <ele>1514.69</ele>
        <time>2015-09-20T09:49:49Z</time>
      </trkpt>
      <trkpt lat="44.78859" lon="5.46254">
        <ele>1517.58</ele>
        <time>2015-09-20T09:50:04Z</time>
      </trkpt>
      <trkpt lat="44.78856" lon="5.46251">
        <ele>1519.02</ele>
        <time>2015-09-20T09:50:18Z</time>
      </trkpt>
      <trkpt lat="44.78857" lon="5.46252">
        <ele>1520.46</ele>
        <time>2015-09-20T09:50:38Z</time>
      </trkpt>
      <trkpt lat="44.78852" lon="5.46244">
        <ele>1522.39</ele>
        <time>2015-09-20T09:50:51Z</time>
      </trkpt>
      <trkpt lat="44.78848" lon="5.46246">
        <ele>1524.79</ele>
        <time>2015-09-20T09:51:09Z</time>
      </trkpt>
      <trkpt lat="44.78847" lon="5.46246">
        <ele>1524.79</ele>
        <time>2015-09-20T09:51:10Z</time>
      </trkpt>
      <trkpt lat="44.78842" lon="5.4624">
        <ele>1526.71</ele>
        <time>2015-09-20T09:51:23Z</time>
      </trkpt>
      <trkpt lat="44.7884" lon="5.4624">
        <ele>1528.63</ele>
        <time>2015-09-20T09:51:27Z</time>
      </trkpt>
      <trkpt lat="44.78837" lon="5.46238">
        <ele>1530.08</ele>
        <time>2015-09-20T09:51:33Z</time>
      </trkpt>
      <trkpt lat="44.78831" lon="5.4624">
        <ele>1531.04</ele>
        <time>2015-09-20T09:51:52Z</time>
      </trkpt>
      <trkpt lat="44.78824" lon="5.46245">
        <ele>1532.48</ele>
        <time>2015-09-20T09:52:06Z</time>
      </trkpt>
      <trkpt lat="44.78827" lon="5.46244">
        <ele>1532.96</ele>
        <time>2015-09-20T09:52:20Z</time>
      </trkpt>
      <trkpt lat="44.78826" lon="5.46244">
        <ele>1534.4</ele>
        <time>2015-09-20T09:52:23Z</time>
      </trkpt>
      <trkpt lat="44.78831" lon="5.4624">
        <ele>1534.88</ele>
        <time>2015-09-20T09:52:35Z</time>
      </trkpt>
      <trkpt lat="44.78833" lon="5.46244">
        <ele>1531.52</ele>
        <time>2015-09-20T09:52:51Z</time>
      </trkpt>
      <trkpt lat="44.78832" lon="5.46243">
        <ele>1531.04</ele>
        <time>2015-09-20T09:52:52Z</time>
      </trkpt>
      <trkpt lat="44.78833" lon="5.46243">
        <ele>1532.96</ele>
        <time>2015-09-20T09:52:56Z</time>
      </trkpt>
      <trkpt lat="44.7883" lon="5.46242">
        <ele>1534.88</ele>
        <time>2015-09-20T09:53:05Z</time>
      </trkpt>
      <trkpt lat="44.78827" lon="5.46241">
        <ele>1534.88</ele>
        <time>2015-09-20T09:53:26Z</time>
      </trkpt>
      <trkpt lat="44.78825" lon="5.46238">
        <ele>1533.92</ele>
        <time>2015-09-20T09:53:30Z</time>
      </trkpt>
      <trkpt lat="44.78823" lon="5.46237">
        <ele>1536.8</ele>
        <time>2015-09-20T09:53:35Z</time>
      </trkpt>
      <trkpt lat="44.78816" lon="5.46233">
        <ele>1537.77</ele>
        <time>2015-09-20T09:53:44Z</time>
      </trkpt>
      <trkpt lat="44.78811" lon="5.46225">
        <ele>1539.21</ele>
        <time>2015-09-20T09:53:58Z</time>
      </trkpt>
      <trkpt lat="44.7881" lon="5.46211">
        <ele>1538.73</ele>
        <time>2015-09-20T09:54:11Z</time>
      </trkpt>
      <trkpt lat="44.78809" lon="5.46205">
        <ele>1541.13</ele>
        <time>2015-09-20T09:54:18Z</time>
      </trkpt>
      <trkpt lat="44.78811" lon="5.46197">
        <ele>1543.05</ele>
        <time>2015-09-20T09:54:31Z</time>
      </trkpt>
      <trkpt lat="44.78811" lon="5.46195">
        <ele>1546.42</ele>
        <time>2015-09-20T09:54:37Z</time>
      </trkpt>
      <trkpt lat="44.78808" lon="5.46204">
        <ele>1546.42</ele>
        <time>2015-09-20T09:54:58Z</time>
      </trkpt>
      <trkpt lat="44.78797" lon="5.46214">
        <ele>1547.86</ele>
        <time>2015-09-20T09:55:14Z</time>
      </trkpt>
      <trkpt lat="44.7879" lon="5.4622">
        <ele>1551.22</ele>
        <time>2015-09-20T09:55:21Z</time>
      </trkpt>
      <trkpt lat="44.78788" lon="5.46227">
        <ele>1552.67</ele>
        <time>2015-09-20T09:55:34Z</time>
      </trkpt>
      <trkpt lat="44.78789" lon="5.4623">
        <ele>1550.74</ele>
        <time>2015-09-20T09:55:37Z</time>
      </trkpt>
      <trkpt lat="44.78777" lon="5.46244">
        <ele>1552.67</ele>
        <time>2015-09-20T09:55:51Z</time>
      </trkpt>
      <trkpt lat="44.78776" lon="5.46246">
        <ele>1552.67</ele>
        <time>2015-09-20T09:55:55Z</time>
      </trkpt>
      <trkpt lat="44.78779" lon="5.46258">
        <ele>1553.15</ele>
        <time>2015-09-20T09:56:08Z</time>
      </trkpt>
      <trkpt lat="44.78786" lon="5.46269">
        <ele>1552.19</ele>
        <time>2015-09-20T09:56:20Z</time>
      </trkpt>
      <trkpt lat="44.78791" lon="5.46272">
        <ele>1550.74</ele>
        <time>2015-09-20T09:56:35Z</time>
      </trkpt>
      <trkpt lat="44.78805" lon="5.46271">
        <ele>1550.74</ele>
        <time>2015-09-20T09:56:54Z</time>
      </trkpt>
      <trkpt lat="44.78803" lon="5.46273">
        <ele>1551.22</ele>
        <time>2015-09-20T09:57:13Z</time>
      </trkpt>
      <trkpt lat="44.78807" lon="5.46274">
        <ele>1552.19</ele>
        <time>2015-09-20T09:57:35Z</time>
      </trkpt>
      <trkpt lat="44.78812" lon="5.46289">
        <ele>1554.59</ele>
        <time>2015-09-20T09:57:49Z</time>
      </trkpt>
      <trkpt lat="44.78826" lon="5.46287">
        <ele>1554.59</ele>
        <time>2015-09-20T09:58:05Z</time>
      </trkpt>
      <trkpt lat="44.7883" lon="5.4628">
        <ele>1553.63</ele>
        <time>2015-09-20T09:58:28Z</time>
      </trkpt>
      <trkpt lat="44.78833" lon="5.46285">
        <ele>1554.11</ele>
        <time>2015-09-20T09:58:39Z</time>
      </trkpt>
      <trkpt lat="44.78836" lon="5.46291">
        <ele>1557.47</ele>
        <time>2015-09-20T09:58:46Z</time>
      </trkpt>
      <trkpt lat="44.78836" lon="5.46292">
        <ele>1557.47</ele>
        <time>2015-09-20T09:58:47Z</time>
      </trkpt>
      <trkpt lat="44.7884" lon="5.46291">
        <ele>1557.95</ele>
        <time>2015-09-20T09:58:57Z</time>
      </trkpt>
      <trkpt lat="44.78841" lon="5.46287">
        <ele>1556.99</ele>
        <time>2015-09-20T09:59:18Z</time>
      </trkpt>
      <trkpt lat="44.78846" lon="5.4629">
        <ele>1559.4</ele>
        <time>2015-09-20T09:59:28Z</time>
      </trkpt>
      <trkpt lat="44.78846" lon="5.46292">
        <ele>1560.84</ele>
        <time>2015-09-20T09:59:30Z</time>
      </trkpt>
      <trkpt lat="44.78847" lon="5.46292">
        <ele>1559.88</ele>
        <time>2015-09-20T09:59:32Z</time>
      </trkpt>
      <trkpt lat="44.78856" lon="5.46295">
        <ele>1561.32</ele>
        <time>2015-09-20T09:59:46Z</time>
      </trkpt>
      <trkpt lat="44.78859" lon="5.46301">
        <ele>1565.16</ele>
        <time>2015-09-20T09:59:53Z</time>
      </trkpt>
      <trkpt lat="44.78859" lon="5.46302">
        <ele>1565.16</ele>
        <time>2015-09-20T09:59:54Z</time>
      </trkpt>
      <trkpt lat="44.78867" lon="5.46308">
        <ele>1568.05</ele>
        <time>2015-09-20T10:00:09Z</time>
      </trkpt>
      <trkpt lat="44.78865" lon="5.46321">
        <ele>1569.97</ele>
        <time>2015-09-20T10:00:25Z</time>
      </trkpt>
      <trkpt lat="44.78859" lon="5.46333">
        <ele>1572.37</ele>
        <time>2015-09-20T10:00:42Z</time>
      </trkpt>
      <trkpt lat="44.78857" lon="5.4634">
        <ele>1573.33</ele>
        <time>2015-09-20T10:01:02Z</time>
      </trkpt>
      <trkpt lat="44.78861" lon="5.46334">
        <ele>1572.85</ele>
        <time>2015-09-20T10:01:27Z</time>
      </trkpt>
      <trkpt lat="44.78861" lon="5.46335">
        <ele>1574.3</ele>
        <time>2015-09-20T10:01:52Z</time>
      </trkpt>
      <trkpt lat="44.78866" lon="5.4635">
        <ele>1573.82</ele>
        <time>2015-09-20T10:02:23Z</time>
      </trkpt>
      <trkpt lat="44.78859" lon="5.46343">
        <ele>1574.78</ele>
        <time>2015-09-20T10:02:40Z</time>
      </trkpt>
      <trkpt lat="44.78853" lon="5.46333">
        <ele>1577.18</ele>
        <time>2015-09-20T10:02:52Z</time>
      </trkpt>
      <trkpt lat="44.78853" lon="5.46344">
        <ele>1580.06</ele>
        <time>2015-09-20T10:03:07Z</time>
      </trkpt>
      <trkpt lat="44.78855" lon="5.46355">
        <ele>1583.43</ele>
        <time>2015-09-20T10:03:21Z</time>
      </trkpt>
      <trkpt lat="44.78855" lon="5.46365">
        <ele>1585.35</ele>
        <time>2015-09-20T10:03:35Z</time>
      </trkpt>
      <trkpt lat="44.78857" lon="5.46373">
        <ele>1588.24</ele>
        <time>2015-09-20T10:03:49Z</time>
      </trkpt>
      <trkpt lat="44.78858" lon="5.46375">
        <ele>1591.12</ele>
        <time>2015-09-20T10:03:56Z</time>
      </trkpt>
      <trkpt lat="44.78857" lon="5.46386">
        <ele>1591.6</ele>
        <time>2015-09-20T10:04:12Z</time>
      </trkpt>
      <trkpt lat="44.78863" lon="5.46397">
        <ele>1593.04</ele>
        <time>2015-09-20T10:04:30Z</time>
      </trkpt>
      <trkpt lat="44.78868" lon="5.46404">
        <ele>1593.04</ele>
        <time>2015-09-20T10:04:42Z</time>
      </trkpt>
      <trkpt lat="44.78869" lon="5.46404">
        <ele>1591.6</ele>
        <time>2015-09-20T10:04:49Z</time>
      </trkpt>
      <trkpt lat="44.78873" lon="5.46408">
        <ele>1591.12</ele>
        <time>2015-09-20T10:05:01Z</time>
      </trkpt>
      <trkpt lat="44.78867" lon="5.46409">
        <ele>1592.56</ele>
        <time>2015-09-20T10:05:26Z</time>
      </trkpt>
      <trkpt lat="44.78872" lon="5.46417">
        <ele>1592.56</ele>
        <time>2015-09-20T10:05:48Z</time>
      </trkpt>
      <trkpt lat="44.78876" lon="5.4642">
        <ele>1593.04</ele>
        <time>2015-09-20T10:05:53Z</time>
      </trkpt>
      <trkpt lat="44.78888" lon="5.46426">
        <ele>1593.52</ele>
        <time>2015-09-20T10:06:07Z</time>
      </trkpt>
      <trkpt lat="44.78902" lon="5.46434">
        <ele>1596.41</ele>
        <time>2015-09-20T10:06:24Z</time>
      </trkpt>
      <trkpt lat="44.78913" lon="5.46443">
        <ele>1599.29</ele>
        <time>2015-09-20T10:06:40Z</time>
      </trkpt>
      <trkpt lat="44.7892" lon="5.46455">
        <ele>1601.21</ele>
        <time>2015-09-20T10:06:53Z</time>
      </trkpt>
      <trkpt lat="44.78923" lon="5.46457">
        <ele>1601.21</ele>
        <time>2015-09-20T10:06:56Z</time>
      </trkpt>
      <trkpt lat="44.78929" lon="5.4646">
        <ele>1602.66</ele>
        <time>2015-09-20T10:07:11Z</time>
      </trkpt>
      <trkpt lat="44.78937" lon="5.46468">
        <ele>1605.06</ele>
        <time>2015-09-20T10:07:27Z</time>
      </trkpt>
      <trkpt lat="44.78946" lon="5.46472">
        <ele>1605.06</ele>
        <time>2015-09-20T10:07:41Z</time>
      </trkpt>
      <trkpt lat="44.78958" lon="5.46471">
        <ele>1606.5</ele>
        <time>2015-09-20T10:07:54Z</time>
      </trkpt>
      <trkpt lat="44.78964" lon="5.46473">
        <ele>1607.46</ele>
        <time>2015-09-20T10:08:03Z</time>
      </trkpt>
      <trkpt lat="44.78978" lon="5.46478">
        <ele>1608.42</ele>
        <time>2015-09-20T10:08:16Z</time>
      </trkpt>
      <trkpt lat="44.78985" lon="5.46479">
        <ele>1610.83</ele>
        <time>2015-09-20T10:08:28Z</time>
      </trkpt>
      <trkpt lat="44.78997" lon="5.46476">
        <ele>1611.79</ele>
        <time>2015-09-20T10:08:42Z</time>
      </trkpt>
      <trkpt lat="44.7901" lon="5.46472">
        <ele>1611.31</ele>
        <time>2015-09-20T10:09:05Z</time>
      </trkpt>
      <trkpt lat="44.7901" lon="5.46472">
        <ele>1610.83</ele>
        <time>2015-09-20T10:09:27Z</time>
      </trkpt>
      <trkpt lat="44.7901" lon="5.46474">
        <ele>1611.31</ele>
        <time>2015-09-20T10:09:45Z</time>
      </trkpt>
      <trkpt lat="44.79014" lon="5.46476">
        <ele>1612.75</ele>
        <time>2015-09-20T10:09:56Z</time>
      </trkpt>
      <trkpt lat="44.79015" lon="5.46477">
        <ele>1612.75</ele>
        <time>2015-09-20T10:09:58Z</time>
      </trkpt>
      <trkpt lat="44.7902" lon="5.46479">
        <ele>1612.75</ele>
        <time>2015-09-20T10:10:06Z</time>
      </trkpt>
      <trkpt lat="44.79032" lon="5.46485">
        <ele>1615.63</ele>
        <time>2015-09-20T10:10:24Z</time>
      </trkpt>
      <trkpt lat="44.79034" lon="5.4649">
        <ele>1617.07</ele>
        <time>2015-09-20T10:10:38Z</time>
      </trkpt>
      <trkpt lat="44.7904" lon="5.46494">
        <ele>1619.48</ele>
        <time>2015-09-20T10:10:52Z</time>
      </trkpt>
      <trkpt lat="44.79049" lon="5.46495">
        <ele>1619.48</ele>
        <time>2015-09-20T10:11:06Z</time>
      </trkpt>
      <trkpt lat="44.79058" lon="5.46496">
        <ele>1621.88</ele>
        <time>2015-09-20T10:11:20Z</time>
      </trkpt>
      <trkpt lat="44.79059" lon="5.46497">
        <ele>1622.36</ele>
        <time>2015-09-20T10:11:26Z</time>
      </trkpt>
      <trkpt lat="44.79071" lon="5.4649">
        <ele>1624.28</ele>
        <time>2015-09-20T10:11:38Z</time>
      </trkpt>
      <trkpt lat="44.79082" lon="5.4648">
        <ele>1623.8</ele>
        <time>2015-09-20T10:11:51Z</time>
      </trkpt>
      <trkpt lat="44.7909" lon="5.46475">
        <ele>1625.25</ele>
        <time>2015-09-20T10:12:04Z</time>
      </trkpt>
      <trkpt lat="44.79093" lon="5.46468">
        <ele>1625.73</ele>
        <time>2015-09-20T10:12:30Z</time>
      </trkpt>
      <trkpt lat="44.79096" lon="5.4647">
        <ele>1626.69</ele>
        <time>2015-09-20T10:12:47Z</time>
      </trkpt>
      <trkpt lat="44.79101" lon="5.46469">
        <ele>1627.65</ele>
        <time>2015-09-20T10:13:01Z</time>
      </trkpt>
      <trkpt lat="44.79102" lon="5.46472">
        <ele>1627.65</ele>
        <time>2015-09-20T10:13:19Z</time>
      </trkpt>
      <trkpt lat="44.7911" lon="5.46471">
        <ele>1629.09</ele>
        <time>2015-09-20T10:13:41Z</time>
      </trkpt>
      <trkpt lat="44.79112" lon="5.4647">
        <ele>1630.05</ele>
        <time>2015-09-20T10:13:45Z</time>
      </trkpt>
      <trkpt lat="44.79119" lon="5.46469">
        <ele>1632.94</ele>
        <time>2015-09-20T10:13:59Z</time>
      </trkpt>
      <trkpt lat="44.7913" lon="5.46469">
        <ele>1635.34</ele>
        <time>2015-09-20T10:14:16Z</time>
      </trkpt>
      <trkpt lat="44.7914" lon="5.46469">
        <ele>1637.26</ele>
        <time>2015-09-20T10:14:28Z</time>
      </trkpt>
      <trkpt lat="44.7915" lon="5.46463">
        <ele>1638.7</ele>
        <time>2015-09-20T10:14:42Z</time>
      </trkpt>
      <trkpt lat="44.79166" lon="5.46461">
        <ele>1639.19</ele>
        <time>2015-09-20T10:14:58Z</time>
      </trkpt>
      <trkpt lat="44.79176" lon="5.46459">
        <ele>1639.19</ele>
        <time>2015-09-20T10:15:09Z</time>
      </trkpt>
      <trkpt lat="44.79185" lon="5.46457">
        <ele>1639.19</ele>
        <time>2015-09-20T10:15:19Z</time>
      </trkpt>
      <trkpt lat="44.79204" lon="5.46449">
        <ele>1638.22</ele>
        <time>2015-09-20T10:15:36Z</time>
      </trkpt>
      <trkpt lat="44.79216" lon="5.46446">
        <ele>1638.7</ele>
        <time>2015-09-20T10:15:49Z</time>
      </trkpt>
      <trkpt lat="44.79218" lon="5.46445">
        <ele>1638.7</ele>
        <time>2015-09-20T10:15:52Z</time>
      </trkpt>
      <trkpt lat="44.79234" lon="5.46437">
        <ele>1637.26</ele>
        <time>2015-09-20T10:16:08Z</time>
      </trkpt>
      <trkpt lat="44.79238" lon="5.46437">
        <ele>1637.26</ele>
        <time>2015-09-20T10:16:11Z</time>
      </trkpt>
      <trkpt lat="44.79251" lon="5.4643">
        <ele>1638.22</ele>
        <time>2015-09-20T10:16:27Z</time>
      </trkpt>
      <trkpt lat="44.79255" lon="5.4643">
        <ele>1638.7</ele>
        <time>2015-09-20T10:16:49Z</time>
      </trkpt>
      <trkpt lat="44.79247" lon="5.46438">
        <ele>1639.19</ele>
        <time>2015-09-20T10:17:11Z</time>
      </trkpt>
      <trkpt lat="44.7925" lon="5.46432">
        <ele>1639.19</ele>
        <time>2015-09-20T10:17:27Z</time>
      </trkpt>
      <trkpt lat="44.79253" lon="5.46433">
        <ele>1639.67</ele>
        <time>2015-09-20T10:17:45Z</time>
      </trkpt>
      <trkpt lat="44.79247" lon="5.46435">
        <ele>1641.11</ele>
        <time>2015-09-20T10:18:13Z</time>
      </trkpt>
      <trkpt lat="44.79251" lon="5.46433">
        <ele>1640.63</ele>
        <time>2015-09-20T10:18:45Z</time>
      </trkpt>
      <trkpt lat="44.79253" lon="5.46431">
        <ele>1637.26</ele>
        <time>2015-09-20T10:18:53Z</time>
      </trkpt>
      <trkpt lat="44.79254" lon="5.46431">
        <ele>1642.55</ele>
        <time>2015-09-20T10:18:54Z</time>
      </trkpt>
      <trkpt lat="44.79254" lon="5.46431">
        <ele>1639.67</ele>
        <time>2015-09-20T10:19:08Z</time>
      </trkpt>
      <trkpt lat="44.79257" lon="5.46425">
        <ele>1639.19</ele>
        <time>2015-09-20T10:19:14Z</time>
      </trkpt>
      <trkpt lat="44.79257" lon="5.46423">
        <ele>1640.15</ele>
        <time>2015-09-20T10:19:27Z</time>
      </trkpt>
      <trkpt lat="44.79257" lon="5.46418">
        <ele>1639.67</ele>
        <time>2015-09-20T10:19:40Z</time>
      </trkpt>
      <trkpt lat="44.79256" lon="5.46417">
        <ele>1639.19</ele>
        <time>2015-09-20T10:19:59Z</time>
      </trkpt>
      <trkpt lat="44.79255" lon="5.46411">
        <ele>1639.67</ele>
        <time>2015-09-20T10:20:41Z</time>
      </trkpt>
      <trkpt lat="44.79253" lon="5.46412">
        <ele>1640.63</ele>
        <time>2015-09-20T10:21:28Z</time>
      </trkpt>
      <trkpt lat="44.79252" lon="5.46413">
        <ele>1640.63</ele>
        <time>2015-09-20T10:22:12Z</time>
      </trkpt>
      <trkpt lat="44.79255" lon="5.46415">
        <ele>1640.63</ele>
        <time>2015-09-20T10:22:47Z</time>
      </trkpt>
      <trkpt lat="44.79256" lon="5.46416">
        <ele>1640.63</ele>
        <time>2015-09-20T10:23:03Z</time>
      </trkpt>
      <trkpt lat="44.79259" lon="5.46419">
        <ele>1641.59</ele>
        <time>2015-09-20T10:23:36Z</time>
      </trkpt>
      <trkpt lat="44.79258" lon="5.46413">
        <ele>1642.07</ele>
        <time>2015-09-20T10:24:03Z</time>
      </trkpt>
      <trkpt lat="44.79261" lon="5.4642">
        <ele>1641.59</ele>
        <time>2015-09-20T10:24:40Z</time>
      </trkpt>
      <trkpt lat="44.79261" lon="5.46419">
        <ele>1642.55</ele>
        <time>2015-09-20T10:25:07Z</time>
      </trkpt>
      <trkpt lat="44.79259" lon="5.46414">
        <ele>1642.07</ele>
        <time>2015-09-20T10:25:38Z</time>
      </trkpt>
      <trkpt lat="44.79259" lon="5.46416">
        <ele>1641.59</ele>
        <time>2015-09-20T10:26:13Z</time>
      </trkpt>
      <trkpt lat="44.79259" lon="5.46422">
        <ele>1642.07</ele>
        <time>2015-09-20T10:26:50Z</time>
      </trkpt>
      <trkpt lat="44.7926" lon="5.4642">
        <ele>1642.55</ele>
        <time>2015-09-20T10:27:19Z</time>
      </trkpt>
      <trkpt lat="44.79259" lon="5.46415">
        <ele>1642.55</ele>
        <time>2015-09-20T10:27:55Z</time>
      </trkpt>
      <trkpt lat="44.79258" lon="5.46417">
        <ele>1642.55</ele>
        <time>2015-09-20T10:28:29Z</time>
      </trkpt>
      <trkpt lat="44.79257" lon="5.46418">
        <ele>1642.07</ele>
        <time>2015-09-20T10:28:59Z</time>
      </trkpt>
      <trkpt lat="44.79261" lon="5.46418">
        <ele>1642.55</ele>
        <time>2015-09-20T10:29:35Z</time>
      </trkpt>
      <trkpt lat="44.79262" lon="5.46419">
        <ele>1643.03</ele>
        <time>2015-09-20T10:30:07Z</time>
      </trkpt>
      <trkpt lat="44.7926" lon="5.46422">
        <ele>1643.03</ele>
        <time>2015-09-20T10:30:33Z</time>
      </trkpt>
      <trkpt lat="44.79259" lon="5.46421">
        <ele>1643.03</ele>
        <time>2015-09-20T10:31:13Z</time>
      </trkpt>
      <trkpt lat="44.79261" lon="5.4642">
        <ele>1643.51</ele>
        <time>2015-09-20T10:31:50Z</time>
      </trkpt>
      <trkpt lat="44.79257" lon="5.46424">
        <ele>1644.47</ele>
        <time>2015-09-20T10:32:18Z</time>
      </trkpt>
      <trkpt lat="44.79256" lon="5.46423">
        <ele>1643.99</ele>
        <time>2015-09-20T10:32:38Z</time>
      </trkpt>
      <trkpt lat="44.79258" lon="5.46427">
        <ele>1644.47</ele>
        <time>2015-09-20T10:33:03Z</time>
      </trkpt>
      <trkpt lat="44.79256" lon="5.46423">
        <ele>1645.43</ele>
        <time>2015-09-20T10:33:34Z</time>
      </trkpt>
      <trkpt lat="44.79257" lon="5.46423">
        <ele>1644.95</ele>
        <time>2015-09-20T10:33:59Z</time>
      </trkpt>
      <trkpt lat="44.79256" lon="5.46426">
        <ele>1645.91</ele>
        <time>2015-09-20T10:34:31Z</time>
      </trkpt>
      <trkpt lat="44.79255" lon="5.46425">
        <ele>1646.88</ele>
        <time>2015-09-20T10:35:06Z</time>
      </trkpt>
      <trkpt lat="44.79255" lon="5.46427">
        <ele>1646.88</ele>
        <time>2015-09-20T10:35:30Z</time>
      </trkpt>
      <trkpt lat="44.79255" lon="5.46426">
        <ele>1646.4</ele>
        <time>2015-09-20T10:36:01Z</time>
      </trkpt>
      <trkpt lat="44.79257" lon="5.46421">
        <ele>1646.88</ele>
        <time>2015-09-20T10:36:29Z</time>
      </trkpt>
      <trkpt lat="44.79257" lon="5.4642">
        <ele>1647.36</ele>
        <time>2015-09-20T10:37:00Z</time>
      </trkpt>
      <trkpt lat="44.79261" lon="5.4642">
        <ele>1647.84</ele>
        <time>2015-09-20T10:37:34Z</time>
      </trkpt>
      <trkpt lat="44.79259" lon="5.46422">
        <ele>1648.32</ele>
        <time>2015-09-20T10:37:59Z</time>
      </trkpt>
      <trkpt lat="44.79259" lon="5.46418">
        <ele>1647.36</ele>
        <time>2015-09-20T10:38:25Z</time>
      </trkpt>
      <trkpt lat="44.79259" lon="5.46418">
        <ele>1648.32</ele>
        <time>2015-09-20T10:38:59Z</time>
      </trkpt>
      <trkpt lat="44.79261" lon="5.46421">
        <ele>1647.36</ele>
        <time>2015-09-20T10:39:37Z</time>
      </trkpt>
      <trkpt lat="44.79261" lon="5.46423">
        <ele>1648.32</ele>
        <time>2015-09-20T10:40:08Z</time>
      </trkpt>
      <trkpt lat="44.79257" lon="5.46414">
        <ele>1647.84</ele>
        <time>2015-09-20T10:40:41Z</time>
      </trkpt>
      <trkpt lat="44.79258" lon="5.4642">
        <ele>1648.32</ele>
        <time>2015-09-20T10:40:51Z</time>
      </trkpt>
      <trkpt lat="44.79256" lon="5.4642">
        <ele>1647.84</ele>
        <time>2015-09-20T10:41:13Z</time>
      </trkpt>
      <trkpt lat="44.79259" lon="5.4642">
        <ele>1649.76</ele>
        <time>2015-09-20T10:41:29Z</time>
      </trkpt>
      <trkpt lat="44.7926" lon="5.46422">
        <ele>1648.8</ele>
        <time>2015-09-20T10:41:41Z</time>
      </trkpt>
      <trkpt lat="44.79268" lon="5.46415">
        <ele>1649.76</ele>
        <time>2015-09-20T10:41:58Z</time>
      </trkpt>
      <trkpt lat="44.79272" lon="5.46411">
        <ele>1649.76</ele>
        <time>2015-09-20T10:42:12Z</time>
      </trkpt>
      <trkpt lat="44.79263" lon="5.46418">
        <ele>1649.76</ele>
        <time>2015-09-20T10:42:38Z</time>
      </trkpt>
      <trkpt lat="44.79259" lon="5.46428">
        <ele>1649.28</ele>
        <time>2015-09-20T10:42:49Z</time>
      </trkpt>
      <trkpt lat="44.79263" lon="5.46435">
        <ele>1649.28</ele>
        <time>2015-09-20T10:43:01Z</time>
      </trkpt>
      <trkpt lat="44.79272" lon="5.46439">
        <ele>1652.64</ele>
        <time>2015-09-20T10:43:12Z</time>
      </trkpt>
      <trkpt lat="44.79275" lon="5.4644">
        <ele>1653.12</ele>
        <time>2015-09-20T10:43:16Z</time>
      </trkpt>
      <trkpt lat="44.7928" lon="5.4644">
        <ele>1652.64</ele>
        <time>2015-09-20T10:43:23Z</time>
      </trkpt>
      <trkpt lat="44.79284" lon="5.4644">
        <ele>1652.64</ele>
        <time>2015-09-20T10:43:27Z</time>
      </trkpt>
      <trkpt lat="44.79293" lon="5.46446">
        <ele>1654.57</ele>
        <time>2015-09-20T10:43:38Z</time>
      </trkpt>
      <trkpt lat="44.79296" lon="5.46448">
        <ele>1655.53</ele>
        <time>2015-09-20T10:43:41Z</time>
      </trkpt>
      <trkpt lat="44.79305" lon="5.46455">
        <ele>1656.01</ele>
        <time>2015-09-20T10:43:55Z</time>
      </trkpt>
      <trkpt lat="44.7931" lon="5.46454">
        <ele>1655.05</ele>
        <time>2015-09-20T10:43:59Z</time>
      </trkpt>
      <trkpt lat="44.7932" lon="5.4646">
        <ele>1657.93</ele>
        <time>2015-09-20T10:44:13Z</time>
      </trkpt>
      <trkpt lat="44.79322" lon="5.46461">
        <ele>1658.89</ele>
        <time>2015-09-20T10:44:16Z</time>
      </trkpt>
      <trkpt lat="44.79324" lon="5.46463">
        <ele>1658.89</ele>
        <time>2015-09-20T10:44:19Z</time>
      </trkpt>
      <trkpt lat="44.79326" lon="5.46465">
        <ele>1660.33</ele>
        <time>2015-09-20T10:44:22Z</time>
      </trkpt>
      <trkpt lat="44.79335" lon="5.46477">
        <ele>1662.74</ele>
        <time>2015-09-20T10:44:35Z</time>
      </trkpt>
      <trkpt lat="44.79343" lon="5.46488">
        <ele>1665.14</ele>
        <time>2015-09-20T10:44:47Z</time>
      </trkpt>
      <trkpt lat="44.79347" lon="5.4649">
        <ele>1663.22</ele>
        <time>2015-09-20T10:44:52Z</time>
      </trkpt>
      <trkpt lat="44.79354" lon="5.46495">
        <ele>1663.22</ele>
        <time>2015-09-20T10:44:59Z</time>
      </trkpt>
      <trkpt lat="44.79356" lon="5.46496">
        <ele>1662.26</ele>
        <time>2015-09-20T10:45:01Z</time>
      </trkpt>
      <trkpt lat="44.79358" lon="5.46499">
        <ele>1665.62</ele>
        <time>2015-09-20T10:45:06Z</time>
      </trkpt>
      <trkpt lat="44.79362" lon="5.46501">
        <ele>1663.7</ele>
        <time>2015-09-20T10:45:09Z</time>
      </trkpt>
      <trkpt lat="44.79373" lon="5.46515">
        <ele>1660.33</ele>
        <time>2015-09-20T10:45:23Z</time>
      </trkpt>
      <trkpt lat="44.79382" lon="5.46534">
        <ele>1659.85</ele>
        <time>2015-09-20T10:45:37Z</time>
      </trkpt>
      <trkpt lat="44.79393" lon="5.46551">
        <ele>1656.97</ele>
        <time>2015-09-20T10:45:50Z</time>
      </trkpt>
      <trkpt lat="44.79406" lon="5.46577">
        <ele>1655.05</ele>
        <time>2015-09-20T10:46:08Z</time>
      </trkpt>
      <trkpt lat="44.79414" lon="5.466">
        <ele>1655.05</ele>
        <time>2015-09-20T10:46:23Z</time>
      </trkpt>
      <trkpt lat="44.79413" lon="5.46612">
        <ele>1652.16</ele>
        <time>2015-09-20T10:46:35Z</time>
      </trkpt>
      <trkpt lat="44.79412" lon="5.46612">
        <ele>1657.93</ele>
        <time>2015-09-20T10:46:36Z</time>
      </trkpt>
      <trkpt lat="44.79412" lon="5.46612">
        <ele>1656.01</ele>
        <time>2015-09-20T10:46:37Z</time>
      </trkpt>
      <trkpt lat="44.79412" lon="5.46612">
        <ele>1654.57</ele>
        <time>2015-09-20T10:46:39Z</time>
      </trkpt>
      <trkpt lat="44.79412" lon="5.46612">
        <ele>1656.01</ele>
        <time>2015-09-20T10:46:41Z</time>
      </trkpt>
      <trkpt lat="44.79413" lon="5.46621">
        <ele>1655.05</ele>
        <time>2015-09-20T10:47:08Z</time>
      </trkpt>
      <trkpt lat="44.7941" lon="5.46642">
        <ele>1652.16</ele>
        <time>2015-09-20T10:47:26Z</time>
      </trkpt>
      <trkpt lat="44.79409" lon="5.46664">
        <ele>1649.28</ele>
        <time>2015-09-20T10:47:43Z</time>
      </trkpt>
      <trkpt lat="44.79405" lon="5.46676">
        <ele>1649.28</ele>
        <time>2015-09-20T10:47:56Z</time>
      </trkpt>
      <trkpt lat="44.79395" lon="5.46683">
        <ele>1651.2</ele>
        <time>2015-09-20T10:48:11Z</time>
      </trkpt>
      <trkpt lat="44.79387" lon="5.46692">
        <ele>1653.6</ele>
        <time>2015-09-20T10:48:22Z</time>
      </trkpt>
      <trkpt lat="44.79376" lon="5.46704">
        <ele>1655.53</ele>
        <time>2015-09-20T10:48:39Z</time>
      </trkpt>
      <trkpt lat="44.79366" lon="5.46716">
        <ele>1655.05</ele>
        <time>2015-09-20T10:48:53Z</time>
      </trkpt>
      <trkpt lat="44.79365" lon="5.46717">
        <ele>1655.05</ele>
        <time>2015-09-20T10:48:54Z</time>
      </trkpt>
      <trkpt lat="44.7936" lon="5.46723">
        <ele>1656.49</ele>
        <time>2015-09-20T10:49:01Z</time>
      </trkpt>
      <trkpt lat="44.79346" lon="5.46743">
        <ele>1656.49</ele>
        <time>2015-09-20T10:49:20Z</time>
      </trkpt>
      <trkpt lat="44.79335" lon="5.46745">
        <ele>1656.97</ele>
        <time>2015-09-20T10:49:35Z</time>
      </trkpt>
      <trkpt lat="44.79327" lon="5.46745">
        <ele>1656.49</ele>
        <time>2015-09-20T10:49:44Z</time>
      </trkpt>
      <trkpt lat="44.79321" lon="5.46748">
        <ele>1656.97</ele>
        <time>2015-09-20T10:49:50Z</time>
      </trkpt>
      <trkpt lat="44.79319" lon="5.46748">
        <ele>1658.41</ele>
        <time>2015-09-20T10:49:52Z</time>
      </trkpt>
      <trkpt lat="44.79307" lon="5.46751">
        <ele>1657.45</ele>
        <time>2015-09-20T10:50:07Z</time>
      </trkpt>
      <trkpt lat="44.79306" lon="5.46751">
        <ele>1656.97</ele>
        <time>2015-09-20T10:50:08Z</time>
      </trkpt>
      <trkpt lat="44.79304" lon="5.46753">
        <ele>1656.97</ele>
        <time>2015-09-20T10:50:10Z</time>
      </trkpt>
      <trkpt lat="44.793" lon="5.46751">
        <ele>1657.93</ele>
        <time>2015-09-20T10:50:15Z</time>
      </trkpt>
      <trkpt lat="44.79299" lon="5.4675">
        <ele>1659.37</ele>
        <time>2015-09-20T10:50:17Z</time>
      </trkpt>
      <trkpt lat="44.79296" lon="5.46747">
        <ele>1660.33</ele>
        <time>2015-09-20T10:50:21Z</time>
      </trkpt>
      <trkpt lat="44.79293" lon="5.46747">
        <ele>1660.33</ele>
        <time>2015-09-20T10:50:24Z</time>
      </trkpt>
      <trkpt lat="44.79288" lon="5.46755">
        <ele>1659.85</ele>
        <time>2015-09-20T10:50:35Z</time>
      </trkpt>
      <trkpt lat="44.79286" lon="5.46772">
        <ele>1657.93</ele>
        <time>2015-09-20T10:50:48Z</time>
      </trkpt>
      <trkpt lat="44.79284" lon="5.46772">
        <ele>1658.41</ele>
        <time>2015-09-20T10:50:52Z</time>
      </trkpt>
      <trkpt lat="44.79281" lon="5.4678">
        <ele>1658.89</ele>
        <time>2015-09-20T10:50:58Z</time>
      </trkpt>
      <trkpt lat="44.79272" lon="5.46795">
        <ele>1661.3</ele>
        <time>2015-09-20T10:51:14Z</time>
      </trkpt>
      <trkpt lat="44.79265" lon="5.46803">
        <ele>1663.7</ele>
        <time>2015-09-20T10:51:27Z</time>
      </trkpt>
      <trkpt lat="44.79258" lon="5.46807">
        <ele>1664.66</ele>
        <time>2015-09-20T10:51:37Z</time>
      </trkpt>
      <trkpt lat="44.7925" lon="5.46808">
        <ele>1665.62</ele>
        <time>2015-09-20T10:51:49Z</time>
      </trkpt>
      <trkpt lat="44.79246" lon="5.46805">
        <ele>1666.58</ele>
        <time>2015-09-20T10:52:04Z</time>
      </trkpt>
      <trkpt lat="44.79245" lon="5.46804">
        <ele>1665.62</ele>
        <time>2015-09-20T10:52:26Z</time>
      </trkpt>
      <trkpt lat="44.79243" lon="5.46803">
        <ele>1666.1</ele>
        <time>2015-09-20T10:52:28Z</time>
      </trkpt>
      <trkpt lat="44.79231" lon="5.46789">
        <ele>1664.66</ele>
        <time>2015-09-20T10:52:43Z</time>
      </trkpt>
      <trkpt lat="44.79225" lon="5.46779">
        <ele>1665.14</ele>
        <time>2015-09-20T10:52:54Z</time>
      </trkpt>
      <trkpt lat="44.79217" lon="5.46769">
        <ele>1664.66</ele>
        <time>2015-09-20T10:53:06Z</time>
      </trkpt>
      <trkpt lat="44.79205" lon="5.46759">
        <ele>1667.54</ele>
        <time>2015-09-20T10:53:21Z</time>
      </trkpt>
      <trkpt lat="44.79203" lon="5.4676">
        <ele>1668.02</ele>
        <time>2015-09-20T10:53:23Z</time>
      </trkpt>
      <trkpt lat="44.79192" lon="5.46765">
        <ele>1669.95</ele>
        <time>2015-09-20T10:53:35Z</time>
      </trkpt>
      <trkpt lat="44.7918" lon="5.46762">
        <ele>1670.43</ele>
        <time>2015-09-20T10:53:50Z</time>
      </trkpt>
      <trkpt lat="44.79166" lon="5.46767">
        <ele>1671.87</ele>
        <time>2015-09-20T10:54:04Z</time>
      </trkpt>
      <trkpt lat="44.79154" lon="5.46766">
        <ele>1672.83</ele>
        <time>2015-09-20T10:54:19Z</time>
      </trkpt>
      <trkpt lat="44.79139" lon="5.46771">
        <ele>1671.39</ele>
        <time>2015-09-20T10:54:34Z</time>
      </trkpt>
      <trkpt lat="44.79126" lon="5.46768">
        <ele>1672.83</ele>
        <time>2015-09-20T10:54:50Z</time>
      </trkpt>
      <trkpt lat="44.7912" lon="5.46765">
        <ele>1672.83</ele>
        <time>2015-09-20T10:55:06Z</time>
      </trkpt>
      <trkpt lat="44.79105" lon="5.46756">
        <ele>1671.39</ele>
        <time>2015-09-20T10:55:23Z</time>
      </trkpt>
      <trkpt lat="44.79089" lon="5.46752">
        <ele>1669.47</ele>
        <time>2015-09-20T10:55:39Z</time>
      </trkpt>
      <trkpt lat="44.79083" lon="5.46753">
        <ele>1673.31</ele>
        <time>2015-09-20T10:55:47Z</time>
      </trkpt>
      <trkpt lat="44.79069" lon="5.46752">
        <ele>1672.35</ele>
        <time>2015-09-20T10:56:00Z</time>
      </trkpt>
      <trkpt lat="44.79055" lon="5.46746">
        <ele>1671.39</ele>
        <time>2015-09-20T10:56:16Z</time>
      </trkpt>
      <trkpt lat="44.79048" lon="5.46738">
        <ele>1674.75</ele>
        <time>2015-09-20T10:56:28Z</time>
      </trkpt>
      <trkpt lat="44.79048" lon="5.46737">
        <ele>1674.75</ele>
        <time>2015-09-20T10:56:29Z</time>
      </trkpt>
      <trkpt lat="44.79042" lon="5.46739">
        <ele>1677.64</ele>
        <time>2015-09-20T10:56:38Z</time>
      </trkpt>
      <trkpt lat="44.79035" lon="5.46741">
        <ele>1680.04</ele>
        <time>2015-09-20T10:56:50Z</time>
      </trkpt>
      <trkpt lat="44.79031" lon="5.46741">
        <ele>1681.48</ele>
        <time>2015-09-20T10:56:56Z</time>
      </trkpt>
      <trkpt lat="44.79022" lon="5.46738">
        <ele>1681.48</ele>
        <time>2015-09-20T10:57:10Z</time>
      </trkpt>
      <trkpt lat="44.79021" lon="5.46737">
        <ele>1683.89</ele>
        <time>2015-09-20T10:57:26Z</time>
      </trkpt>
      <trkpt lat="44.79018" lon="5.46735">
        <ele>1683.89</ele>
        <time>2015-09-20T10:57:33Z</time>
      </trkpt>
      <trkpt lat="44.79015" lon="5.46733">
        <ele>1683.89</ele>
        <time>2015-09-20T10:57:41Z</time>
      </trkpt>
      <trkpt lat="44.79" lon="5.46737">
        <ele>1684.85</ele>
        <time>2015-09-20T10:57:59Z</time>
      </trkpt>
      <trkpt lat="44.78995" lon="5.46738">
        <ele>1683.89</ele>
        <time>2015-09-20T10:58:04Z</time>
      </trkpt>
      <trkpt lat="44.78993" lon="5.46739">
        <ele>1684.37</ele>
        <time>2015-09-20T10:58:06Z</time>
      </trkpt>
      <trkpt lat="44.78984" lon="5.46737">
        <ele>1685.33</ele>
        <time>2015-09-20T10:58:15Z</time>
      </trkpt>
      <trkpt lat="44.78981" lon="5.46735">
        <ele>1684.37</ele>
        <time>2015-09-20T10:58:18Z</time>
      </trkpt>
      <trkpt lat="44.78969" lon="5.46721">
        <ele>1683.89</ele>
        <time>2015-09-20T10:58:33Z</time>
      </trkpt>
      <trkpt lat="44.78955" lon="5.46707">
        <ele>1684.37</ele>
        <time>2015-09-20T10:58:49Z</time>
      </trkpt>
      <trkpt lat="44.78949" lon="5.46704">
        <ele>1684.85</ele>
        <time>2015-09-20T10:58:55Z</time>
      </trkpt>
      <trkpt lat="44.78946" lon="5.46703">
        <ele>1685.33</ele>
        <time>2015-09-20T10:58:58Z</time>
      </trkpt>
      <trkpt lat="44.78934" lon="5.46687">
        <ele>1686.29</ele>
        <time>2015-09-20T10:59:14Z</time>
      </trkpt>
      <trkpt lat="44.7893" lon="5.46685">
        <ele>1688.69</ele>
        <time>2015-09-20T10:59:19Z</time>
      </trkpt>
      <trkpt lat="44.78919" lon="5.46682">
        <ele>1688.69</ele>
        <time>2015-09-20T10:59:33Z</time>
      </trkpt>
      <trkpt lat="44.7892" lon="5.4668">
        <ele>1689.17</ele>
        <time>2015-09-20T10:59:50Z</time>
      </trkpt>
      <trkpt lat="44.7891" lon="5.46687">
        <ele>1687.25</ele>
        <time>2015-09-20T11:00:03Z</time>
      </trkpt>
      <trkpt lat="44.78901" lon="5.46697">
        <ele>1685.81</ele>
        <time>2015-09-20T11:00:16Z</time>
      </trkpt>
      <trkpt lat="44.78893" lon="5.46692">
        <ele>1686.77</ele>
        <time>2015-09-20T11:00:25Z</time>
      </trkpt>
      <trkpt lat="44.78885" lon="5.46689">
        <ele>1687.25</ele>
        <time>2015-09-20T11:00:39Z</time>
      </trkpt>
      <trkpt lat="44.78886" lon="5.46687">
        <ele>1687.25</ele>
        <time>2015-09-20T11:01:02Z</time>
      </trkpt>
      <trkpt lat="44.78885" lon="5.46687">
        <ele>1685.33</ele>
        <time>2015-09-20T11:01:08Z</time>
      </trkpt>
      <trkpt lat="44.78885" lon="5.46687">
        <ele>1689.65</ele>
        <time>2015-09-20T11:01:09Z</time>
      </trkpt>
      <trkpt lat="44.78885" lon="5.46687">
        <ele>1687.25</ele>
        <time>2015-09-20T11:01:10Z</time>
      </trkpt>
      <trkpt lat="44.78885" lon="5.46686">
        <ele>1686.77</ele>
        <time>2015-09-20T11:01:32Z</time>
      </trkpt>
      <trkpt lat="44.78875" lon="5.46681">
        <ele>1685.81</ele>
        <time>2015-09-20T11:01:55Z</time>
      </trkpt>
      <trkpt lat="44.78873" lon="5.4668">
        <ele>1685.33</ele>
        <time>2015-09-20T11:01:57Z</time>
      </trkpt>
      <trkpt lat="44.78869" lon="5.4668">
        <ele>1685.33</ele>
        <time>2015-09-20T11:02:02Z</time>
      </trkpt>
      <trkpt lat="44.78865" lon="5.46677">
        <ele>1685.33</ele>
        <time>2015-09-20T11:02:08Z</time>
      </trkpt>
      <trkpt lat="44.78849" lon="5.46676">
        <ele>1687.25</ele>
        <time>2015-09-20T11:02:23Z</time>
      </trkpt>
      <trkpt lat="44.7884" lon="5.46665">
        <ele>1686.29</ele>
        <time>2015-09-20T11:02:36Z</time>
      </trkpt>
      <trkpt lat="44.78827" lon="5.46657">
        <ele>1684.85</ele>
        <time>2015-09-20T11:02:50Z</time>
      </trkpt>
      <trkpt lat="44.7882" lon="5.46639">
        <ele>1685.33</ele>
        <time>2015-09-20T11:03:06Z</time>
      </trkpt>
      <trkpt lat="44.78814" lon="5.46632">
        <ele>1684.85</ele>
        <time>2015-09-20T11:03:19Z</time>
      </trkpt>
      <trkpt lat="44.78816" lon="5.46616">
        <ele>1683.41</ele>
        <time>2015-09-20T11:03:32Z</time>
      </trkpt>
      <trkpt lat="44.78818" lon="5.46613">
        <ele>1681.48</ele>
        <time>2015-09-20T11:03:35Z</time>
      </trkpt>
      <trkpt lat="44.78819" lon="5.46608">
        <ele>1681.48</ele>
        <time>2015-09-20T11:03:39Z</time>
      </trkpt>
      <trkpt lat="44.78815" lon="5.46577">
        <ele>1680.52</ele>
        <time>2015-09-20T11:03:58Z</time>
      </trkpt>
      <trkpt lat="44.78812" lon="5.46562">
        <ele>1683.89</ele>
        <time>2015-09-20T11:04:11Z</time>
      </trkpt>
      <trkpt lat="44.78808" lon="5.46558">
        <ele>1685.81</ele>
        <time>2015-09-20T11:04:16Z</time>
      </trkpt>
      <trkpt lat="44.78804" lon="5.46556">
        <ele>1687.25</ele>
        <time>2015-09-20T11:04:21Z</time>
      </trkpt>
      <trkpt lat="44.78801" lon="5.46556">
        <ele>1685.33</ele>
        <time>2015-09-20T11:04:23Z</time>
      </trkpt>
      <trkpt lat="44.78782" lon="5.46551">
        <ele>1682.44</ele>
        <time>2015-09-20T11:04:41Z</time>
      </trkpt>
      <trkpt lat="44.7877" lon="5.46546">
        <ele>1681.48</ele>
        <time>2015-09-20T11:04:52Z</time>
      </trkpt>
      <trkpt lat="44.78757" lon="5.4654">
        <ele>1681.96</ele>
        <time>2015-09-20T11:05:06Z</time>
      </trkpt>
      <trkpt lat="44.78746" lon="5.46528">
        <ele>1683.89</ele>
        <time>2015-09-20T11:05:21Z</time>
      </trkpt>
      <trkpt lat="44.78734" lon="5.46517">
        <ele>1685.81</ele>
        <time>2015-09-20T11:05:37Z</time>
      </trkpt>
      <trkpt lat="44.78726" lon="5.46507">
        <ele>1687.25</ele>
        <time>2015-09-20T11:05:50Z</time>
      </trkpt>
      <trkpt lat="44.78723" lon="5.465">
        <ele>1687.73</ele>
        <time>2015-09-20T11:06:08Z</time>
      </trkpt>
      <trkpt lat="44.78714" lon="5.46481">
        <ele>1690.14</ele>
        <time>2015-09-20T11:06:23Z</time>
      </trkpt>
      <trkpt lat="44.78707" lon="5.46467">
        <ele>1692.06</ele>
        <time>2015-09-20T11:06:37Z</time>
      </trkpt>
      <trkpt lat="44.78704" lon="5.46454">
        <ele>1694.46</ele>
        <time>2015-09-20T11:06:50Z</time>
      </trkpt>
      <trkpt lat="44.78699" lon="5.46445">
        <ele>1696.86</ele>
        <time>2015-09-20T11:07:02Z</time>
      </trkpt>
      <trkpt lat="44.78694" lon="5.46438">
        <ele>1696.86</ele>
        <time>2015-09-20T11:07:16Z</time>
      </trkpt>
      <trkpt lat="44.78692" lon="5.46433">
        <ele>1696.86</ele>
        <time>2015-09-20T11:07:28Z</time>
      </trkpt>
      <trkpt lat="44.78684" lon="5.46437">
        <ele>1695.9</ele>
        <time>2015-09-20T11:07:37Z</time>
      </trkpt>
      <trkpt lat="44.78682" lon="5.46435">
        <ele>1696.38</ele>
        <time>2015-09-20T11:07:40Z</time>
      </trkpt>
      <trkpt lat="44.78667" lon="5.46426">
        <ele>1697.34</ele>
        <time>2015-09-20T11:07:57Z</time>
      </trkpt>
      <trkpt lat="44.78662" lon="5.46422">
        <ele>1696.86</ele>
        <time>2015-09-20T11:08:05Z</time>
      </trkpt>
      <trkpt lat="44.78644" lon="5.46416">
        <ele>1696.86</ele>
        <time>2015-09-20T11:08:21Z</time>
      </trkpt>
      <trkpt lat="44.78636" lon="5.46413">
        <ele>1696.38</ele>
        <time>2015-09-20T11:08:35Z</time>
      </trkpt>
      <trkpt lat="44.78633" lon="5.46412">
        <ele>1695.42</ele>
        <time>2015-09-20T11:08:37Z</time>
      </trkpt>
      <trkpt lat="44.78619" lon="5.46399">
        <ele>1696.38</ele>
        <time>2015-09-20T11:08:53Z</time>
      </trkpt>
      <trkpt lat="44.7861" lon="5.46388">
        <ele>1696.86</ele>
        <time>2015-09-20T11:09:05Z</time>
      </trkpt>
      <trkpt lat="44.78599" lon="5.46378">
        <ele>1697.34</ele>
        <time>2015-09-20T11:09:19Z</time>
      </trkpt>
      <trkpt lat="44.78588" lon="5.46367">
        <ele>1698.79</ele>
        <time>2015-09-20T11:09:35Z</time>
      </trkpt>
      <trkpt lat="44.78578" lon="5.46355">
        <ele>1698.79</ele>
        <time>2015-09-20T11:09:51Z</time>
      </trkpt>
      <trkpt lat="44.7857" lon="5.46348">
        <ele>1699.75</ele>
        <time>2015-09-20T11:10:05Z</time>
      </trkpt>
      <trkpt lat="44.78567" lon="5.46339">
        <ele>1702.15</ele>
        <time>2015-09-20T11:10:17Z</time>
      </trkpt>
      <trkpt lat="44.78559" lon="5.46329">
        <ele>1704.07</ele>
        <time>2015-09-20T11:10:30Z</time>
      </trkpt>
      <trkpt lat="44.78555" lon="5.46326">
        <ele>1705.04</ele>
        <time>2015-09-20T11:10:34Z</time>
      </trkpt>
      <trkpt lat="44.78537" lon="5.46324">
        <ele>1704.07</ele>
        <time>2015-09-20T11:10:52Z</time>
      </trkpt>
      <trkpt lat="44.78528" lon="5.46309">
        <ele>1706</ele>
        <time>2015-09-20T11:11:07Z</time>
      </trkpt>
      <trkpt lat="44.78517" lon="5.46297">
        <ele>1707.92</ele>
        <time>2015-09-20T11:11:22Z</time>
      </trkpt>
      <trkpt lat="44.785" lon="5.46291">
        <ele>1707.92</ele>
        <time>2015-09-20T11:11:39Z</time>
      </trkpt>
      <trkpt lat="44.78481" lon="5.46279">
        <ele>1707.92</ele>
        <time>2015-09-20T11:11:57Z</time>
      </trkpt>
      <trkpt lat="44.78468" lon="5.46281">
        <ele>1709.36</ele>
        <time>2015-09-20T11:12:11Z</time>
      </trkpt>
      <trkpt lat="44.78458" lon="5.46282">
        <ele>1709.36</ele>
        <time>2015-09-20T11:12:21Z</time>
      </trkpt>
      <trkpt lat="44.78445" lon="5.46276">
        <ele>1710.32</ele>
        <time>2015-09-20T11:12:35Z</time>
      </trkpt>
      <trkpt lat="44.78435" lon="5.46266">
        <ele>1710.32</ele>
        <time>2015-09-20T11:12:49Z</time>
      </trkpt>
      <trkpt lat="44.78426" lon="5.46255">
        <ele>1709.84</ele>
        <time>2015-09-20T11:13:01Z</time>
      </trkpt>
      <trkpt lat="44.78418" lon="5.46245">
        <ele>1710.32</ele>
        <time>2015-09-20T11:13:11Z</time>
      </trkpt>
      <trkpt lat="44.78401" lon="5.46239">
        <ele>1712.25</ele>
        <time>2015-09-20T11:13:28Z</time>
      </trkpt>
      <trkpt lat="44.784" lon="5.46239">
        <ele>1712.25</ele>
        <time>2015-09-20T11:13:29Z</time>
      </trkpt>
      <trkpt lat="44.78393" lon="5.46229">
        <ele>1712.73</ele>
        <time>2015-09-20T11:13:42Z</time>
      </trkpt>
      <trkpt lat="44.78392" lon="5.46225">
        <ele>1714.65</ele>
        <time>2015-09-20T11:13:46Z</time>
      </trkpt>
      <trkpt lat="44.78385" lon="5.4621">
        <ele>1715.13</ele>
        <time>2015-09-20T11:14:01Z</time>
      </trkpt>
      <trkpt lat="44.78379" lon="5.46195">
        <ele>1714.65</ele>
        <time>2015-09-20T11:14:15Z</time>
      </trkpt>
      <trkpt lat="44.78374" lon="5.46175">
        <ele>1715.61</ele>
        <time>2015-09-20T11:14:31Z</time>
      </trkpt>
      <trkpt lat="44.78366" lon="5.46161">
        <ele>1715.13</ele>
        <time>2015-09-20T11:14:46Z</time>
      </trkpt>
      <trkpt lat="44.78366" lon="5.46157">
        <ele>1715.13</ele>
        <time>2015-09-20T11:14:49Z</time>
      </trkpt>
      <trkpt lat="44.78363" lon="5.46139">
        <ele>1716.09</ele>
        <time>2015-09-20T11:15:04Z</time>
      </trkpt>
      <trkpt lat="44.78354" lon="5.46128">
        <ele>1718.01</ele>
        <time>2015-09-20T11:15:18Z</time>
      </trkpt>
      <trkpt lat="44.78351" lon="5.46126">
        <ele>1718.01</ele>
        <time>2015-09-20T11:15:22Z</time>
      </trkpt>
      <trkpt lat="44.78341" lon="5.46119">
        <ele>1718.01</ele>
        <time>2015-09-20T11:15:34Z</time>
      </trkpt>
      <trkpt lat="44.78336" lon="5.46118">
        <ele>1718.49</ele>
        <time>2015-09-20T11:15:39Z</time>
      </trkpt>
      <trkpt lat="44.78331" lon="5.46113">
        <ele>1720.42</ele>
        <time>2015-09-20T11:15:45Z</time>
      </trkpt>
      <trkpt lat="44.78326" lon="5.46111">
        <ele>1720.9</ele>
        <time>2015-09-20T11:15:50Z</time>
      </trkpt>
      <trkpt lat="44.78313" lon="5.46105">
        <ele>1720.42</ele>
        <time>2015-09-20T11:16:04Z</time>
      </trkpt>
      <trkpt lat="44.78306" lon="5.46096">
        <ele>1721.86</ele>
        <time>2015-09-20T11:16:16Z</time>
      </trkpt>
      <trkpt lat="44.78294" lon="5.46082">
        <ele>1722.34</ele>
        <time>2015-09-20T11:16:31Z</time>
      </trkpt>
      <trkpt lat="44.78281" lon="5.46074">
        <ele>1721.38</ele>
        <time>2015-09-20T11:16:46Z</time>
      </trkpt>
      <trkpt lat="44.78272" lon="5.46066">
        <ele>1719.94</ele>
        <time>2015-09-20T11:16:58Z</time>
      </trkpt>
      <trkpt lat="44.78266" lon="5.46064">
        <ele>1718.49</ele>
        <time>2015-09-20T11:17:05Z</time>
      </trkpt>
      <trkpt lat="44.78256" lon="5.46059">
        <ele>1717.53</ele>
        <time>2015-09-20T11:17:16Z</time>
      </trkpt>
      <trkpt lat="44.78242" lon="5.46055">
        <ele>1716.09</ele>
        <time>2015-09-20T11:17:32Z</time>
      </trkpt>
      <trkpt lat="44.78241" lon="5.46055">
        <ele>1715.61</ele>
        <time>2015-09-20T11:17:33Z</time>
      </trkpt>
      <trkpt lat="44.78233" lon="5.46054">
        <ele>1717.05</ele>
        <time>2015-09-20T11:17:44Z</time>
      </trkpt>
      <trkpt lat="44.7822" lon="5.46046">
        <ele>1718.97</ele>
        <time>2015-09-20T11:17:58Z</time>
      </trkpt>
      <trkpt lat="44.78209" lon="5.46043">
        <ele>1720.9</ele>
        <time>2015-09-20T11:18:12Z</time>
      </trkpt>
      <trkpt lat="44.782" lon="5.46032">
        <ele>1722.34</ele>
        <time>2015-09-20T11:18:27Z</time>
      </trkpt>
      <trkpt lat="44.78185" lon="5.46026">
        <ele>1723.78</ele>
        <time>2015-09-20T11:18:44Z</time>
      </trkpt>
      <trkpt lat="44.78183" lon="5.46028">
        <ele>1723.78</ele>
        <time>2015-09-20T11:18:46Z</time>
      </trkpt>
      <trkpt lat="44.78176" lon="5.46032">
        <ele>1723.78</ele>
        <time>2015-09-20T11:18:55Z</time>
      </trkpt>
      <trkpt lat="44.78162" lon="5.46024">
        <ele>1725.22</ele>
        <time>2015-09-20T11:19:11Z</time>
      </trkpt>
      <trkpt lat="44.78148" lon="5.46019">
        <ele>1727.63</ele>
        <time>2015-09-20T11:19:27Z</time>
      </trkpt>
      <trkpt lat="44.78142" lon="5.46012">
        <ele>1730.03</ele>
        <time>2015-09-20T11:19:41Z</time>
      </trkpt>
      <trkpt lat="44.78134" lon="5.46002">
        <ele>1732.43</ele>
        <time>2015-09-20T11:19:55Z</time>
      </trkpt>
      <trkpt lat="44.78129" lon="5.45989">
        <ele>1732.91</ele>
        <time>2015-09-20T11:20:08Z</time>
      </trkpt>
      <trkpt lat="44.7812" lon="5.4598">
        <ele>1735.32</ele>
        <time>2015-09-20T11:20:23Z</time>
      </trkpt>
      <trkpt lat="44.78113" lon="5.45979">
        <ele>1735.8</ele>
        <time>2015-09-20T11:20:37Z</time>
      </trkpt>
      <trkpt lat="44.78109" lon="5.45966">
        <ele>1735.32</ele>
        <time>2015-09-20T11:20:50Z</time>
      </trkpt>
      <trkpt lat="44.78108" lon="5.45961">
        <ele>1733.39</ele>
        <time>2015-09-20T11:21:06Z</time>
      </trkpt>
      <trkpt lat="44.78107" lon="5.4596">
        <ele>1732.91</ele>
        <time>2015-09-20T11:21:32Z</time>
      </trkpt>
      <trkpt lat="44.78105" lon="5.45956">
        <ele>1732.91</ele>
        <time>2015-09-20T11:22:00Z</time>
      </trkpt>
      <trkpt lat="44.78099" lon="5.45954">
        <ele>1731.95</ele>
        <time>2015-09-20T11:22:25Z</time>
      </trkpt>
      <trkpt lat="44.78099" lon="5.45953">
        <ele>1731.95</ele>
        <time>2015-09-20T11:22:26Z</time>
      </trkpt>
      <trkpt lat="44.78089" lon="5.45935">
        <ele>1731.47</ele>
        <time>2015-09-20T11:22:42Z</time>
      </trkpt>
      <trkpt lat="44.78082" lon="5.45928">
        <ele>1731.47</ele>
        <time>2015-09-20T11:22:56Z</time>
      </trkpt>
      <trkpt lat="44.78075" lon="5.45925">
        <ele>1731.47</ele>
        <time>2015-09-20T11:23:05Z</time>
      </trkpt>
      <trkpt lat="44.78059" lon="5.45923">
        <ele>1733.88</ele>
        <time>2015-09-20T11:23:22Z</time>
      </trkpt>
      <trkpt lat="44.78048" lon="5.4592">
        <ele>1737.24</ele>
        <time>2015-09-20T11:23:34Z</time>
      </trkpt>
      <trkpt lat="44.78047" lon="5.45919">
        <ele>1737.72</ele>
        <time>2015-09-20T11:23:35Z</time>
      </trkpt>
      <trkpt lat="44.78041" lon="5.45916">
        <ele>1737.72</ele>
        <time>2015-09-20T11:23:43Z</time>
      </trkpt>
      <trkpt lat="44.78033" lon="5.45902">
        <ele>1739.16</ele>
        <time>2015-09-20T11:23:56Z</time>
      </trkpt>
      <trkpt lat="44.78027" lon="5.45887">
        <ele>1741.08</ele>
        <time>2015-09-20T11:24:10Z</time>
      </trkpt>
      <trkpt lat="44.78027" lon="5.45878">
        <ele>1742.05</ele>
        <time>2015-09-20T11:24:24Z</time>
      </trkpt>
      <trkpt lat="44.78028" lon="5.45879">
        <ele>1742.53</ele>
        <time>2015-09-20T11:24:46Z</time>
      </trkpt>
      <trkpt lat="44.78026" lon="5.45871">
        <ele>1743.49</ele>
        <time>2015-09-20T11:25:02Z</time>
      </trkpt>
      <trkpt lat="44.78023" lon="5.45846">
        <ele>1744.45</ele>
        <time>2015-09-20T11:25:19Z</time>
      </trkpt>
      <trkpt lat="44.78017" lon="5.45833">
        <ele>1746.85</ele>
        <time>2015-09-20T11:25:32Z</time>
      </trkpt>
      <trkpt lat="44.78008" lon="5.45824">
        <ele>1750.22</ele>
        <time>2015-09-20T11:25:47Z</time>
      </trkpt>
      <trkpt lat="44.78006" lon="5.45822">
        <ele>1750.7</ele>
        <time>2015-09-20T11:26:08Z</time>
      </trkpt>
      <trkpt lat="44.78008" lon="5.45813">
        <ele>1751.18</ele>
        <time>2015-09-20T11:26:24Z</time>
      </trkpt>
      <trkpt lat="44.77997" lon="5.45803">
        <ele>1751.66</ele>
        <time>2015-09-20T11:26:39Z</time>
      </trkpt>
      <trkpt lat="44.78" lon="5.45802">
        <ele>1751.18</ele>
        <time>2015-09-20T11:26:54Z</time>
      </trkpt>
      <trkpt lat="44.78" lon="5.45803">
        <ele>1751.66</ele>
        <time>2015-09-20T11:27:17Z</time>
      </trkpt>
      <trkpt lat="44.77998" lon="5.45801">
        <ele>1751.66</ele>
        <time>2015-09-20T11:27:41Z</time>
      </trkpt>
      <trkpt lat="44.77998" lon="5.45792">
        <ele>1750.22</ele>
        <time>2015-09-20T11:27:59Z</time>
      </trkpt>
      <trkpt lat="44.77997" lon="5.45796">
        <ele>1750.7</ele>
        <time>2015-09-20T11:28:18Z</time>
      </trkpt>
      <trkpt lat="44.77997" lon="5.45805">
        <ele>1751.18</ele>
        <time>2015-09-20T11:28:28Z</time>
      </trkpt>
      <trkpt lat="44.77995" lon="5.45808">
        <ele>1751.18</ele>
        <time>2015-09-20T11:28:41Z</time>
      </trkpt>
      <trkpt lat="44.78" lon="5.45811">
        <ele>1751.18</ele>
        <time>2015-09-20T11:28:59Z</time>
      </trkpt>
      <trkpt lat="44.78005" lon="5.45821">
        <ele>1750.22</ele>
        <time>2015-09-20T11:29:11Z</time>
      </trkpt>
      <trkpt lat="44.78007" lon="5.4582">
        <ele>1749.26</ele>
        <time>2015-09-20T11:29:24Z</time>
      </trkpt>
      <trkpt lat="44.78008" lon="5.45822">
        <ele>1748.29</ele>
        <time>2015-09-20T11:29:36Z</time>
      </trkpt>
      <trkpt lat="44.78008" lon="5.45822">
        <ele>1748.29</ele>
        <time>2015-09-20T11:29:50Z</time>
      </trkpt>
      <trkpt lat="44.78008" lon="5.45826">
        <ele>1748.78</ele>
        <time>2015-09-20T11:30:02Z</time>
      </trkpt>
      <trkpt lat="44.78012" lon="5.45828">
        <ele>1748.29</ele>
        <time>2015-09-20T11:30:19Z</time>
      </trkpt>
      <trkpt lat="44.78015" lon="5.45829">
        <ele>1747.81</ele>
        <time>2015-09-20T11:30:44Z</time>
      </trkpt>
      <trkpt lat="44.78011" lon="5.4583">
        <ele>1747.81</ele>
        <time>2015-09-20T11:31:17Z</time>
      </trkpt>
      <trkpt lat="44.78014" lon="5.45827">
        <ele>1747.33</ele>
        <time>2015-09-20T11:31:42Z</time>
      </trkpt>
      <trkpt lat="44.78009" lon="5.45824">
        <ele>1747.33</ele>
        <time>2015-09-20T11:32:11Z</time>
      </trkpt>
      <trkpt lat="44.7801" lon="5.45823">
        <ele>1745.41</ele>
        <time>2015-09-20T11:32:13Z</time>
      </trkpt>
      <trkpt lat="44.7801" lon="5.45823">
        <ele>1748.78</ele>
        <time>2015-09-20T11:32:14Z</time>
      </trkpt>
      <trkpt lat="44.7801" lon="5.45823">
        <ele>1747.33</ele>
        <time>2015-09-20T11:32:15Z</time>
      </trkpt>
      <trkpt lat="44.78011" lon="5.45823">
        <ele>1743.97</ele>
        <time>2015-09-20T11:32:16Z</time>
      </trkpt>
      <trkpt lat="44.78011" lon="5.45822">
        <ele>1750.7</ele>
        <time>2015-09-20T11:32:17Z</time>
      </trkpt>
      <trkpt lat="44.78011" lon="5.45821">
        <ele>1747.33</ele>
        <time>2015-09-20T11:32:18Z</time>
      </trkpt>
      <trkpt lat="44.78013" lon="5.45822">
        <ele>1742.53</ele>
        <time>2015-09-20T11:32:30Z</time>
      </trkpt>
      <trkpt lat="44.78013" lon="5.45823">
        <ele>1748.78</ele>
        <time>2015-09-20T11:32:31Z</time>
      </trkpt>
      <trkpt lat="44.78013" lon="5.45824">
        <ele>1747.33</ele>
        <time>2015-09-20T11:32:34Z</time>
      </trkpt>
      <trkpt lat="44.78012" lon="5.45828">
        <ele>1746.85</ele>
        <time>2015-09-20T11:32:56Z</time>
      </trkpt>
      <trkpt lat="44.78012" lon="5.45831">
        <ele>1746.85</ele>
        <time>2015-09-20T11:33:38Z</time>
      </trkpt>
      <trkpt lat="44.78016" lon="5.45835">
        <ele>1744.93</ele>
        <time>2015-09-20T11:33:50Z</time>
      </trkpt>
      <trkpt lat="44.78022" lon="5.45846">
        <ele>1742.05</ele>
        <time>2015-09-20T11:34:05Z</time>
      </trkpt>
      <trkpt lat="44.78025" lon="5.45845">
        <ele>1741.57</ele>
        <time>2015-09-20T11:34:15Z</time>
      </trkpt>
      <trkpt lat="44.78027" lon="5.45846">
        <ele>1741.08</ele>
        <time>2015-09-20T11:34:17Z</time>
      </trkpt>
      <trkpt lat="44.78034" lon="5.45852">
        <ele>1738.2</ele>
        <time>2015-09-20T11:34:27Z</time>
      </trkpt>
      <trkpt lat="44.78036" lon="5.45853">
        <ele>1736.76</ele>
        <time>2015-09-20T11:34:30Z</time>
      </trkpt>
      <trkpt lat="44.78042" lon="5.45857">
        <ele>1733.88</ele>
        <time>2015-09-20T11:34:38Z</time>
      </trkpt>
      <trkpt lat="44.78053" lon="5.45869">
        <ele>1730.51</ele>
        <time>2015-09-20T11:34:52Z</time>
      </trkpt>
      <trkpt lat="44.78062" lon="5.45885">
        <ele>1727.63</ele>
        <time>2015-09-20T11:35:07Z</time>
      </trkpt>
      <trkpt lat="44.78063" lon="5.45889">
        <ele>1726.18</ele>
        <time>2015-09-20T11:35:10Z</time>
      </trkpt>
      <trkpt lat="44.78071" lon="5.45899">
        <ele>1725.7</ele>
        <time>2015-09-20T11:35:20Z</time>
      </trkpt>
      <trkpt lat="44.78086" lon="5.45912">
        <ele>1727.63</ele>
        <time>2015-09-20T11:35:39Z</time>
      </trkpt>
      <trkpt lat="44.78096" lon="5.45919">
        <ele>1727.63</ele>
        <time>2015-09-20T11:35:53Z</time>
      </trkpt>
      <trkpt lat="44.78106" lon="5.45922">
        <ele>1725.7</ele>
        <time>2015-09-20T11:36:03Z</time>
      </trkpt>
      <trkpt lat="44.78114" lon="5.45928">
        <ele>1725.22</ele>
        <time>2015-09-20T11:36:12Z</time>
      </trkpt>
      <trkpt lat="44.78123" lon="5.45944">
        <ele>1726.67</ele>
        <time>2015-09-20T11:36:28Z</time>
      </trkpt>
      <trkpt lat="44.78122" lon="5.4595">
        <ele>1730.03</ele>
        <time>2015-09-20T11:36:34Z</time>
      </trkpt>
      <trkpt lat="44.78121" lon="5.45949">
        <ele>1730.03</ele>
        <time>2015-09-20T11:36:35Z</time>
      </trkpt>
      <trkpt lat="44.78126" lon="5.45962">
        <ele>1728.59</ele>
        <time>2015-09-20T11:36:55Z</time>
      </trkpt>
      <trkpt lat="44.7813" lon="5.4597">
        <ele>1728.11</ele>
        <time>2015-09-20T11:37:03Z</time>
      </trkpt>
      <trkpt lat="44.78131" lon="5.45971">
        <ele>1727.15</ele>
        <time>2015-09-20T11:37:05Z</time>
      </trkpt>
      <trkpt lat="44.7814" lon="5.45984">
        <ele>1725.22</ele>
        <time>2015-09-20T11:37:20Z</time>
      </trkpt>
      <trkpt lat="44.78145" lon="5.45991">
        <ele>1724.26</ele>
        <time>2015-09-20T11:37:28Z</time>
      </trkpt>
      <trkpt lat="44.78148" lon="5.46003">
        <ele>1725.22</ele>
        <time>2015-09-20T11:37:42Z</time>
      </trkpt>
      <trkpt lat="44.78153" lon="5.46016">
        <ele>1723.78</ele>
        <time>2015-09-20T11:37:55Z</time>
      </trkpt>
      <trkpt lat="44.78161" lon="5.46024">
        <ele>1721.86</ele>
        <time>2015-09-20T11:38:07Z</time>
      </trkpt>
      <trkpt lat="44.78175" lon="5.46035">
        <ele>1721.38</ele>
        <time>2015-09-20T11:38:22Z</time>
      </trkpt>
      <trkpt lat="44.78182" lon="5.46044">
        <ele>1721.38</ele>
        <time>2015-09-20T11:38:32Z</time>
      </trkpt>
      <trkpt lat="44.78189" lon="5.46053">
        <ele>1721.38</ele>
        <time>2015-09-20T11:38:48Z</time>
      </trkpt>
      <trkpt lat="44.78195" lon="5.46052">
        <ele>1721.38</ele>
        <time>2015-09-20T11:39:00Z</time>
      </trkpt>
      <trkpt lat="44.78212" lon="5.46044">
        <ele>1717.53</ele>
        <time>2015-09-20T11:39:19Z</time>
      </trkpt>
      <trkpt lat="44.78214" lon="5.46045">
        <ele>1717.53</ele>
        <time>2015-09-20T11:39:21Z</time>
      </trkpt>
      <trkpt lat="44.78225" lon="5.46047">
        <ele>1714.17</ele>
        <time>2015-09-20T11:39:32Z</time>
      </trkpt>
      <trkpt lat="44.78229" lon="5.46049">
        <ele>1713.69</ele>
        <time>2015-09-20T11:39:36Z</time>
      </trkpt>
      <trkpt lat="44.78231" lon="5.46051">
        <ele>1712.73</ele>
        <time>2015-09-20T11:39:38Z</time>
      </trkpt>
      <trkpt lat="44.78238" lon="5.46074">
        <ele>1711.28</ele>
        <time>2015-09-20T11:39:54Z</time>
      </trkpt>
      <trkpt lat="44.78246" lon="5.46091">
        <ele>1710.8</ele>
        <time>2015-09-20T11:40:08Z</time>
      </trkpt>
      <trkpt lat="44.78249" lon="5.46094">
        <ele>1709.36</ele>
        <time>2015-09-20T11:40:11Z</time>
      </trkpt>
      <trkpt lat="44.78258" lon="5.46115">
        <ele>1708.4</ele>
        <time>2015-09-20T11:40:26Z</time>
      </trkpt>
      <trkpt lat="44.7826" lon="5.46117">
        <ele>1708.4</ele>
        <time>2015-09-20T11:40:39Z</time>
      </trkpt>
      <trkpt lat="44.7826" lon="5.46122">
        <ele>1708.88</ele>
        <time>2015-09-20T11:41:18Z</time>
      </trkpt>
      <trkpt lat="44.78262" lon="5.46129">
        <ele>1708.4</ele>
        <time>2015-09-20T11:41:27Z</time>
      </trkpt>
      <trkpt lat="44.78265" lon="5.46136">
        <ele>1708.88</ele>
        <time>2015-09-20T11:41:32Z</time>
      </trkpt>
      <trkpt lat="44.78265" lon="5.46138">
        <ele>1707.92</ele>
        <time>2015-09-20T11:41:34Z</time>
      </trkpt>
      <trkpt lat="44.78272" lon="5.46153">
        <ele>1706.96</ele>
        <time>2015-09-20T11:41:47Z</time>
      </trkpt>
      <trkpt lat="44.7828" lon="5.46162">
        <ele>1705.52</ele>
        <time>2015-09-20T11:41:57Z</time>
      </trkpt>
      <trkpt lat="44.78281" lon="5.46164">
        <ele>1704.55</ele>
        <time>2015-09-20T11:41:59Z</time>
      </trkpt>
      <trkpt lat="44.78283" lon="5.46166">
        <ele>1705.52</ele>
        <time>2015-09-20T11:42:01Z</time>
      </trkpt>
      <trkpt lat="44.78286" lon="5.46168">
        <ele>1704.07</ele>
        <time>2015-09-20T11:42:04Z</time>
      </trkpt>
      <trkpt lat="44.78292" lon="5.46177">
        <ele>1702.15</ele>
        <time>2015-09-20T11:42:11Z</time>
      </trkpt>
      <trkpt lat="44.783" lon="5.462">
        <ele>1700.23</ele>
        <time>2015-09-20T11:42:27Z</time>
      </trkpt>
      <trkpt lat="44.78304" lon="5.46212">
        <ele>1697.83</ele>
        <time>2015-09-20T11:42:35Z</time>
      </trkpt>
      <trkpt lat="44.78315" lon="5.46235">
        <ele>1696.86</ele>
        <time>2015-09-20T11:42:52Z</time>
      </trkpt>
      <trkpt lat="44.78326" lon="5.46252">
        <ele>1693.98</ele>
        <time>2015-09-20T11:43:06Z</time>
      </trkpt>
      <trkpt lat="44.78327" lon="5.46253">
        <ele>1694.46</ele>
        <time>2015-09-20T11:43:07Z</time>
      </trkpt>
      <trkpt lat="44.78336" lon="5.46272">
        <ele>1692.54</ele>
        <time>2015-09-20T11:43:22Z</time>
      </trkpt>
      <trkpt lat="44.78342" lon="5.46285">
        <ele>1690.14</ele>
        <time>2015-09-20T11:43:32Z</time>
      </trkpt>
      <trkpt lat="44.78342" lon="5.46292">
        <ele>1689.65</ele>
        <time>2015-09-20T11:43:36Z</time>
      </trkpt>
      <trkpt lat="44.7835" lon="5.46309">
        <ele>1687.73</ele>
        <time>2015-09-20T11:43:50Z</time>
      </trkpt>
      <trkpt lat="44.78353" lon="5.46316">
        <ele>1685.81</ele>
        <time>2015-09-20T11:43:55Z</time>
      </trkpt>
      <trkpt lat="44.78357" lon="5.46327">
        <ele>1684.37</ele>
        <time>2015-09-20T11:44:04Z</time>
      </trkpt>
      <trkpt lat="44.78365" lon="5.46341">
        <ele>1683.89</ele>
        <time>2015-09-20T11:44:16Z</time>
      </trkpt>
      <trkpt lat="44.7838" lon="5.46353">
        <ele>1681</ele>
        <time>2015-09-20T11:44:32Z</time>
      </trkpt>
      <trkpt lat="44.78387" lon="5.46359">
        <ele>1679.56</ele>
        <time>2015-09-20T11:44:39Z</time>
      </trkpt>
      <trkpt lat="44.78392" lon="5.46369">
        <ele>1678.12</ele>
        <time>2015-09-20T11:44:47Z</time>
      </trkpt>
      <trkpt lat="44.78395" lon="5.46381">
        <ele>1676.68</ele>
        <time>2015-09-20T11:44:55Z</time>
      </trkpt>
      <trkpt lat="44.78397" lon="5.46408">
        <ele>1674.75</ele>
        <time>2015-09-20T11:45:11Z</time>
      </trkpt>
      <trkpt lat="44.78401" lon="5.46424">
        <ele>1673.31</ele>
        <time>2015-09-20T11:45:23Z</time>
      </trkpt>
      <trkpt lat="44.78407" lon="5.46439">
        <ele>1670.43</ele>
        <time>2015-09-20T11:45:37Z</time>
      </trkpt>
      <trkpt lat="44.78416" lon="5.46448">
        <ele>1668.99</ele>
        <time>2015-09-20T11:45:50Z</time>
      </trkpt>
      <trkpt lat="44.78423" lon="5.46462">
        <ele>1666.58</ele>
        <time>2015-09-20T11:46:03Z</time>
      </trkpt>
      <trkpt lat="44.78429" lon="5.46471">
        <ele>1664.66</ele>
        <time>2015-09-20T11:46:11Z</time>
      </trkpt>
      <trkpt lat="44.78438" lon="5.4649">
        <ele>1663.22</ele>
        <time>2015-09-20T11:46:25Z</time>
      </trkpt>
      <trkpt lat="44.78442" lon="5.46495">
        <ele>1661.78</ele>
        <time>2015-09-20T11:46:30Z</time>
      </trkpt>
      <trkpt lat="44.7845" lon="5.46506">
        <ele>1660.33</ele>
        <time>2015-09-20T11:46:40Z</time>
      </trkpt>
      <trkpt lat="44.7846" lon="5.46524">
        <ele>1658.41</ele>
        <time>2015-09-20T11:46:53Z</time>
      </trkpt>
      <trkpt lat="44.78461" lon="5.46531">
        <ele>1657.45</ele>
        <time>2015-09-20T11:46:58Z</time>
      </trkpt>
      <trkpt lat="44.78472" lon="5.4655">
        <ele>1654.09</ele>
        <time>2015-09-20T11:47:14Z</time>
      </trkpt>
      <trkpt lat="44.78481" lon="5.46566">
        <ele>1650.72</ele>
        <time>2015-09-20T11:47:27Z</time>
      </trkpt>
      <trkpt lat="44.78483" lon="5.46568">
        <ele>1651.68</ele>
        <time>2015-09-20T11:47:29Z</time>
      </trkpt>
      <trkpt lat="44.78487" lon="5.46589">
        <ele>1650.24</ele>
        <time>2015-09-20T11:47:44Z</time>
      </trkpt>
      <trkpt lat="44.78494" lon="5.46609">
        <ele>1648.32</ele>
        <time>2015-09-20T11:47:59Z</time>
      </trkpt>
      <trkpt lat="44.78502" lon="5.46625">
        <ele>1646.4</ele>
        <time>2015-09-20T11:48:14Z</time>
      </trkpt>
      <trkpt lat="44.78508" lon="5.4664">
        <ele>1643.51</ele>
        <time>2015-09-20T11:48:26Z</time>
      </trkpt>
      <trkpt lat="44.7851" lon="5.46645">
        <ele>1643.03</ele>
        <time>2015-09-20T11:48:30Z</time>
      </trkpt>
      <trkpt lat="44.7851" lon="5.46668">
        <ele>1640.63</ele>
        <time>2015-09-20T11:48:46Z</time>
      </trkpt>
      <trkpt lat="44.78511" lon="5.4669">
        <ele>1640.63</ele>
        <time>2015-09-20T11:49:01Z</time>
      </trkpt>
      <trkpt lat="44.78519" lon="5.46711">
        <ele>1637.26</ele>
        <time>2015-09-20T11:49:15Z</time>
      </trkpt>
      <trkpt lat="44.78523" lon="5.46733">
        <ele>1635.82</ele>
        <time>2015-09-20T11:49:30Z</time>
      </trkpt>
      <trkpt lat="44.78524" lon="5.46735">
        <ele>1635.34</ele>
        <time>2015-09-20T11:49:32Z</time>
      </trkpt>
      <trkpt lat="44.78528" lon="5.46744">
        <ele>1632.46</ele>
        <time>2015-09-20T11:49:39Z</time>
      </trkpt>
      <trkpt lat="44.78539" lon="5.46753">
        <ele>1630.05</ele>
        <time>2015-09-20T11:49:53Z</time>
      </trkpt>
      <trkpt lat="44.7855" lon="5.46773">
        <ele>1628.13</ele>
        <time>2015-09-20T11:50:10Z</time>
      </trkpt>
      <trkpt lat="44.78561" lon="5.46794">
        <ele>1626.21</ele>
        <time>2015-09-20T11:50:26Z</time>
      </trkpt>
      <trkpt lat="44.78563" lon="5.46798">
        <ele>1626.69</ele>
        <time>2015-09-20T11:50:39Z</time>
      </trkpt>
      <trkpt lat="44.78566" lon="5.46802">
        <ele>1625.73</ele>
        <time>2015-09-20T11:50:46Z</time>
      </trkpt>
      <trkpt lat="44.78574" lon="5.4682">
        <ele>1625.73</ele>
        <time>2015-09-20T11:51:02Z</time>
      </trkpt>
      <trkpt lat="44.78578" lon="5.46827">
        <ele>1625.25</ele>
        <time>2015-09-20T11:51:22Z</time>
      </trkpt>
      <trkpt lat="44.78583" lon="5.46837">
        <ele>1624.77</ele>
        <time>2015-09-20T11:51:29Z</time>
      </trkpt>
      <trkpt lat="44.78587" lon="5.46857">
        <ele>1622.84</ele>
        <time>2015-09-20T11:51:42Z</time>
      </trkpt>
      <trkpt lat="44.78587" lon="5.46878">
        <ele>1620.44</ele>
        <time>2015-09-20T11:51:55Z</time>
      </trkpt>
      <trkpt lat="44.78587" lon="5.46884">
        <ele>1619.96</ele>
        <time>2015-09-20T11:51:58Z</time>
      </trkpt>
      <trkpt lat="44.78588" lon="5.4689">
        <ele>1618.04</ele>
        <time>2015-09-20T11:52:02Z</time>
      </trkpt>
      <trkpt lat="44.78592" lon="5.4692">
        <ele>1615.15</ele>
        <time>2015-09-20T11:52:21Z</time>
      </trkpt>
      <trkpt lat="44.78599" lon="5.46935">
        <ele>1613.71</ele>
        <time>2015-09-20T11:52:33Z</time>
      </trkpt>
      <trkpt lat="44.78602" lon="5.46958">
        <ele>1612.27</ele>
        <time>2015-09-20T11:52:48Z</time>
      </trkpt>
      <trkpt lat="44.78606" lon="5.46973">
        <ele>1609.38</ele>
        <time>2015-09-20T11:52:58Z</time>
      </trkpt>
      <trkpt lat="44.78608" lon="5.46993">
        <ele>1608.42</ele>
        <time>2015-09-20T11:53:11Z</time>
      </trkpt>
      <trkpt lat="44.78614" lon="5.47016">
        <ele>1606.5</ele>
        <time>2015-09-20T11:53:26Z</time>
      </trkpt>
      <trkpt lat="44.78623" lon="5.47024">
        <ele>1605.54</ele>
        <time>2015-09-20T11:53:36Z</time>
      </trkpt>
      <trkpt lat="44.78633" lon="5.47037">
        <ele>1604.58</ele>
        <time>2015-09-20T11:53:50Z</time>
      </trkpt>
      <trkpt lat="44.78648" lon="5.47056">
        <ele>1603.62</ele>
        <time>2015-09-20T11:54:07Z</time>
      </trkpt>
      <trkpt lat="44.78661" lon="5.47071">
        <ele>1601.69</ele>
        <time>2015-09-20T11:54:21Z</time>
      </trkpt>
      <trkpt lat="44.78674" lon="5.47088">
        <ele>1600.25</ele>
        <time>2015-09-20T11:54:36Z</time>
      </trkpt>
      <trkpt lat="44.78686" lon="5.47097">
        <ele>1599.77</ele>
        <time>2015-09-20T11:54:51Z</time>
      </trkpt>
      <trkpt lat="44.787" lon="5.47101">
        <ele>1597.85</ele>
        <time>2015-09-20T11:55:04Z</time>
      </trkpt>
      <trkpt lat="44.78717" lon="5.47115">
        <ele>1595.93</ele>
        <time>2015-09-20T11:55:21Z</time>
      </trkpt>
      <trkpt lat="44.78721" lon="5.47115">
        <ele>1595.93</ele>
        <time>2015-09-20T11:55:24Z</time>
      </trkpt>
      <trkpt lat="44.78724" lon="5.47109">
        <ele>1596.89</ele>
        <time>2015-09-20T11:55:28Z</time>
      </trkpt>
      <trkpt lat="44.78726" lon="5.47108">
        <ele>1596.89</ele>
        <time>2015-09-20T11:55:33Z</time>
      </trkpt>
      <trkpt lat="44.78731" lon="5.47122">
        <ele>1595.45</ele>
        <time>2015-09-20T11:55:45Z</time>
      </trkpt>
      <trkpt lat="44.78745" lon="5.47131">
        <ele>1596.41</ele>
        <time>2015-09-20T11:55:57Z</time>
      </trkpt>
      <trkpt lat="44.7875" lon="5.47134">
        <ele>1595.45</ele>
        <time>2015-09-20T11:56:01Z</time>
      </trkpt>
      <trkpt lat="44.78755" lon="5.47137">
        <ele>1595.45</ele>
        <time>2015-09-20T11:56:06Z</time>
      </trkpt>
      <trkpt lat="44.78764" lon="5.47158">
        <ele>1594.96</ele>
        <time>2015-09-20T11:56:22Z</time>
      </trkpt>
      <trkpt lat="44.78766" lon="5.47162">
        <ele>1594</ele>
        <time>2015-09-20T11:56:25Z</time>
      </trkpt>
      <trkpt lat="44.78775" lon="5.47179">
        <ele>1593.52</ele>
        <time>2015-09-20T11:56:39Z</time>
      </trkpt>
      <trkpt lat="44.78781" lon="5.47192">
        <ele>1594</ele>
        <time>2015-09-20T11:56:53Z</time>
      </trkpt>
      <trkpt lat="44.78784" lon="5.47193">
        <ele>1594</ele>
        <time>2015-09-20T11:57:08Z</time>
      </trkpt>
      <trkpt lat="44.78783" lon="5.47194">
        <ele>1593.52</ele>
        <time>2015-09-20T11:57:28Z</time>
      </trkpt>
      <trkpt lat="44.78782" lon="5.47194">
        <ele>1594</ele>
        <time>2015-09-20T11:57:50Z</time>
      </trkpt>
      <trkpt lat="44.78782" lon="5.47197">
        <ele>1593.52</ele>
        <time>2015-09-20T11:58:06Z</time>
      </trkpt>
      <trkpt lat="44.78785" lon="5.47199">
        <ele>1594.48</ele>
        <time>2015-09-20T11:58:22Z</time>
      </trkpt>
      <trkpt lat="44.78788" lon="5.472">
        <ele>1594</ele>
        <time>2015-09-20T11:58:39Z</time>
      </trkpt>
      <trkpt lat="44.78788" lon="5.47207">
        <ele>1594.96</ele>
        <time>2015-09-20T11:59:00Z</time>
      </trkpt>
      <trkpt lat="44.78788" lon="5.47213">
        <ele>1594</ele>
        <time>2015-09-20T11:59:05Z</time>
      </trkpt>
      <trkpt lat="44.78789" lon="5.47217">
        <ele>1592.56</ele>
        <time>2015-09-20T11:59:18Z</time>
      </trkpt>
      <trkpt lat="44.7879" lon="5.47232">
        <ele>1592.08</ele>
        <time>2015-09-20T11:59:29Z</time>
      </trkpt>
      <trkpt lat="44.78788" lon="5.47237">
        <ele>1590.64</ele>
        <time>2015-09-20T11:59:32Z</time>
      </trkpt>
      <trkpt lat="44.78788" lon="5.4724">
        <ele>1590.64</ele>
        <time>2015-09-20T11:59:34Z</time>
      </trkpt>
      <trkpt lat="44.78787" lon="5.4727">
        <ele>1590.64</ele>
        <time>2015-09-20T11:59:52Z</time>
      </trkpt>
      <trkpt lat="44.78782" lon="5.47298">
        <ele>1590.16</ele>
        <time>2015-09-20T12:00:10Z</time>
      </trkpt>
      <trkpt lat="44.78778" lon="5.47322">
        <ele>1591.6</ele>
        <time>2015-09-20T12:00:27Z</time>
      </trkpt>
      <trkpt lat="44.78781" lon="5.47342">
        <ele>1593.04</ele>
        <time>2015-09-20T12:00:40Z</time>
      </trkpt>
      <trkpt lat="44.78789" lon="5.47353">
        <ele>1594.48</ele>
        <time>2015-09-20T12:00:52Z</time>
      </trkpt>
      <trkpt lat="44.78806" lon="5.47364">
        <ele>1593.52</ele>
        <time>2015-09-20T12:01:08Z</time>
      </trkpt>
      <trkpt lat="44.78823" lon="5.47364">
        <ele>1593.04</ele>
        <time>2015-09-20T12:01:22Z</time>
      </trkpt>
      <trkpt lat="44.78828" lon="5.47362">
        <ele>1593.04</ele>
        <time>2015-09-20T12:01:27Z</time>
      </trkpt>
      <trkpt lat="44.78841" lon="5.4737">
        <ele>1591.6</ele>
        <time>2015-09-20T12:01:41Z</time>
      </trkpt>
      <trkpt lat="44.78845" lon="5.47395">
        <ele>1590.64</ele>
        <time>2015-09-20T12:01:57Z</time>
      </trkpt>
      <trkpt lat="44.78838" lon="5.47417">
        <ele>1590.64</ele>
        <time>2015-09-20T12:02:13Z</time>
      </trkpt>
      <trkpt lat="44.7883" lon="5.47442">
        <ele>1592.08</ele>
        <time>2015-09-20T12:02:30Z</time>
      </trkpt>
      <trkpt lat="44.78824" lon="5.47456">
        <ele>1592.08</ele>
        <time>2015-09-20T12:02:40Z</time>
      </trkpt>
      <trkpt lat="44.78825" lon="5.47471">
        <ele>1592.08</ele>
        <time>2015-09-20T12:02:50Z</time>
      </trkpt>
      <trkpt lat="44.78832" lon="5.47498">
        <ele>1591.12</ele>
        <time>2015-09-20T12:03:08Z</time>
      </trkpt>
      <trkpt lat="44.78834" lon="5.47504">
        <ele>1589.68</ele>
        <time>2015-09-20T12:03:12Z</time>
      </trkpt>
      <trkpt lat="44.78837" lon="5.47511">
        <ele>1590.16</ele>
        <time>2015-09-20T12:03:17Z</time>
      </trkpt>
      <trkpt lat="44.78843" lon="5.47537">
        <ele>1588.24</ele>
        <time>2015-09-20T12:03:33Z</time>
      </trkpt>
      <trkpt lat="44.78847" lon="5.47552">
        <ele>1587.27</ele>
        <time>2015-09-20T12:03:43Z</time>
      </trkpt>
      <trkpt lat="44.7885" lon="5.47578">
        <ele>1586.79</ele>
        <time>2015-09-20T12:03:58Z</time>
      </trkpt>
      <trkpt lat="44.78854" lon="5.47607">
        <ele>1585.35</ele>
        <time>2015-09-20T12:04:15Z</time>
      </trkpt>
      <trkpt lat="44.78857" lon="5.47627">
        <ele>1586.31</ele>
        <time>2015-09-20T12:04:28Z</time>
      </trkpt>
      <trkpt lat="44.78857" lon="5.47633">
        <ele>1585.83</ele>
        <time>2015-09-20T12:04:47Z</time>
      </trkpt>
      <trkpt lat="44.78858" lon="5.47634">
        <ele>1586.31</ele>
        <time>2015-09-20T12:05:12Z</time>
      </trkpt>
      <trkpt lat="44.78861" lon="5.4764">
        <ele>1585.83</ele>
        <time>2015-09-20T12:05:29Z</time>
      </trkpt>
      <trkpt lat="44.78872" lon="5.47658">
        <ele>1586.31</ele>
        <time>2015-09-20T12:05:44Z</time>
      </trkpt>
      <trkpt lat="44.78881" lon="5.47665">
        <ele>1586.31</ele>
        <time>2015-09-20T12:05:53Z</time>
      </trkpt>
      <trkpt lat="44.78887" lon="5.47667">
        <ele>1587.27</ele>
        <time>2015-09-20T12:05:58Z</time>
      </trkpt>
      <trkpt lat="44.78893" lon="5.47669">
        <ele>1587.75</ele>
        <time>2015-09-20T12:06:05Z</time>
      </trkpt>
      <trkpt lat="44.7891" lon="5.47661">
        <ele>1589.68</ele>
        <time>2015-09-20T12:06:22Z</time>
      </trkpt>
      <trkpt lat="44.78926" lon="5.47658">
        <ele>1590.16</ele>
        <time>2015-09-20T12:06:37Z</time>
      </trkpt>
      <trkpt lat="44.78927" lon="5.47658">
        <ele>1590.16</ele>
        <time>2015-09-20T12:06:51Z</time>
      </trkpt>
      <trkpt lat="44.78939" lon="5.47659">
        <ele>1589.2</ele>
        <time>2015-09-20T12:07:09Z</time>
      </trkpt>
      <trkpt lat="44.78959" lon="5.47666">
        <ele>1589.68</ele>
        <time>2015-09-20T12:07:26Z</time>
      </trkpt>
      <trkpt lat="44.78978" lon="5.47665">
        <ele>1589.68</ele>
        <time>2015-09-20T12:07:43Z</time>
      </trkpt>
      <trkpt lat="44.78998" lon="5.47678">
        <ele>1590.64</ele>
        <time>2015-09-20T12:08:02Z</time>
      </trkpt>
      <trkpt lat="44.79013" lon="5.47691">
        <ele>1590.64</ele>
        <time>2015-09-20T12:08:18Z</time>
      </trkpt>
      <trkpt lat="44.79027" lon="5.47707">
        <ele>1592.08</ele>
        <time>2015-09-20T12:08:34Z</time>
      </trkpt>
      <trkpt lat="44.7904" lon="5.47723">
        <ele>1593.04</ele>
        <time>2015-09-20T12:08:49Z</time>
      </trkpt>
      <trkpt lat="44.79053" lon="5.47741">
        <ele>1592.56</ele>
        <time>2015-09-20T12:09:03Z</time>
      </trkpt>
      <trkpt lat="44.79062" lon="5.47759">
        <ele>1593.04</ele>
        <time>2015-09-20T12:09:17Z</time>
      </trkpt>
      <trkpt lat="44.79072" lon="5.47774">
        <ele>1594</ele>
        <time>2015-09-20T12:09:30Z</time>
      </trkpt>
      <trkpt lat="44.79086" lon="5.47797">
        <ele>1592.56</ele>
        <time>2015-09-20T12:09:47Z</time>
      </trkpt>
      <trkpt lat="44.79098" lon="5.4782">
        <ele>1592.56</ele>
        <time>2015-09-20T12:10:03Z</time>
      </trkpt>
      <trkpt lat="44.7911" lon="5.47839">
        <ele>1593.52</ele>
        <time>2015-09-20T12:10:19Z</time>
      </trkpt>
      <trkpt lat="44.79121" lon="5.4786">
        <ele>1593.04</ele>
        <time>2015-09-20T12:10:34Z</time>
      </trkpt>
      <trkpt lat="44.79135" lon="5.47876">
        <ele>1591.6</ele>
        <time>2015-09-20T12:10:49Z</time>
      </trkpt>
      <trkpt lat="44.79145" lon="5.47895">
        <ele>1591.6</ele>
        <time>2015-09-20T12:11:02Z</time>
      </trkpt>
      <trkpt lat="44.79153" lon="5.47913">
        <ele>1593.04</ele>
        <time>2015-09-20T12:11:16Z</time>
      </trkpt>
      <trkpt lat="44.79162" lon="5.47936">
        <ele>1592.56</ele>
        <time>2015-09-20T12:11:31Z</time>
      </trkpt>
      <trkpt lat="44.79172" lon="5.47955">
        <ele>1594</ele>
        <time>2015-09-20T12:11:45Z</time>
      </trkpt>
      <trkpt lat="44.79185" lon="5.47972">
        <ele>1594.48</ele>
        <time>2015-09-20T12:12:00Z</time>
      </trkpt>
      <trkpt lat="44.792" lon="5.47988">
        <ele>1593.04</ele>
        <time>2015-09-20T12:12:16Z</time>
      </trkpt>
      <trkpt lat="44.79216" lon="5.48005">
        <ele>1592.56</ele>
        <time>2015-09-20T12:12:33Z</time>
      </trkpt>
      <trkpt lat="44.79233" lon="5.48024">
        <ele>1593.04</ele>
        <time>2015-09-20T12:12:51Z</time>
      </trkpt>
      <trkpt lat="44.79249" lon="5.48034">
        <ele>1593.04</ele>
        <time>2015-09-20T12:13:05Z</time>
      </trkpt>
      <trkpt lat="44.79264" lon="5.48039">
        <ele>1592.08</ele>
        <time>2015-09-20T12:13:20Z</time>
      </trkpt>
      <trkpt lat="44.79266" lon="5.48039">
        <ele>1593.04</ele>
        <time>2015-09-20T12:13:22Z</time>
      </trkpt>
      <trkpt lat="44.7928" lon="5.48034">
        <ele>1589.68</ele>
        <time>2015-09-20T12:13:34Z</time>
      </trkpt>
      <trkpt lat="44.79295" lon="5.48025">
        <ele>1591.6</ele>
        <time>2015-09-20T12:13:49Z</time>
      </trkpt>
      <trkpt lat="44.79303" lon="5.48026">
        <ele>1593.52</ele>
        <time>2015-09-20T12:13:57Z</time>
      </trkpt>
      <trkpt lat="44.79316" lon="5.48026">
        <ele>1590.64</ele>
        <time>2015-09-20T12:14:08Z</time>
      </trkpt>
      <trkpt lat="44.79334" lon="5.48013">
        <ele>1590.64</ele>
        <time>2015-09-20T12:14:25Z</time>
      </trkpt>
      <trkpt lat="44.79335" lon="5.48012">
        <ele>1591.12</ele>
        <time>2015-09-20T12:14:26Z</time>
      </trkpt>
      <trkpt lat="44.79352" lon="5.48002">
        <ele>1591.12</ele>
        <time>2015-09-20T12:14:43Z</time>
      </trkpt>
      <trkpt lat="44.7937" lon="5.47997">
        <ele>1591.6</ele>
        <time>2015-09-20T12:15:00Z</time>
      </trkpt>
      <trkpt lat="44.79383" lon="5.47979">
        <ele>1593.52</ele>
        <time>2015-09-20T12:15:16Z</time>
      </trkpt>
      <trkpt lat="44.79388" lon="5.47957">
        <ele>1595.93</ele>
        <time>2015-09-20T12:15:32Z</time>
      </trkpt>
      <trkpt lat="44.79394" lon="5.47936">
        <ele>1596.89</ele>
        <time>2015-09-20T12:15:47Z</time>
      </trkpt>
      <trkpt lat="44.79401" lon="5.47915">
        <ele>1598.33</ele>
        <time>2015-09-20T12:16:03Z</time>
      </trkpt>
      <trkpt lat="44.79411" lon="5.47896">
        <ele>1598.33</ele>
        <time>2015-09-20T12:16:19Z</time>
      </trkpt>
      <trkpt lat="44.79412" lon="5.47893">
        <ele>1597.85</ele>
        <time>2015-09-20T12:16:21Z</time>
      </trkpt>
      <trkpt lat="44.79418" lon="5.47875">
        <ele>1599.77</ele>
        <time>2015-09-20T12:16:33Z</time>
      </trkpt>
      <trkpt lat="44.79428" lon="5.47862">
        <ele>1600.73</ele>
        <time>2015-09-20T12:16:48Z</time>
      </trkpt>
      <trkpt lat="44.79432" lon="5.47854">
        <ele>1600.73</ele>
        <time>2015-09-20T12:16:54Z</time>
      </trkpt>
      <trkpt lat="44.79435" lon="5.47838">
        <ele>1601.69</ele>
        <time>2015-09-20T12:17:05Z</time>
      </trkpt>
      <trkpt lat="44.79439" lon="5.47822">
        <ele>1602.66</ele>
        <time>2015-09-20T12:17:15Z</time>
      </trkpt>
      <trkpt lat="44.79442" lon="5.47805">
        <ele>1604.1</ele>
        <time>2015-09-20T12:17:31Z</time>
      </trkpt>
      <trkpt lat="44.79448" lon="5.4779">
        <ele>1605.54</ele>
        <time>2015-09-20T12:17:44Z</time>
      </trkpt>
      <trkpt lat="44.79455" lon="5.47769">
        <ele>1606.5</ele>
        <time>2015-09-20T12:17:59Z</time>
      </trkpt>
      <trkpt lat="44.79456" lon="5.47766">
        <ele>1607.46</ele>
        <time>2015-09-20T12:18:01Z</time>
      </trkpt>
      <trkpt lat="44.79456" lon="5.47743">
        <ele>1608.9</ele>
        <time>2015-09-20T12:18:18Z</time>
      </trkpt>
      <trkpt lat="44.79456" lon="5.47725">
        <ele>1610.35</ele>
        <time>2015-09-20T12:18:32Z</time>
      </trkpt>
      <trkpt lat="44.79458" lon="5.47708">
        <ele>1612.75</ele>
        <time>2015-09-20T12:18:45Z</time>
      </trkpt>
      <trkpt lat="44.79459" lon="5.47704">
        <ele>1612.75</ele>
        <time>2015-09-20T12:18:48Z</time>
      </trkpt>
      <trkpt lat="44.79469" lon="5.47693">
        <ele>1613.23</ele>
        <time>2015-09-20T12:19:01Z</time>
      </trkpt>
      <trkpt lat="44.79476" lon="5.47685">
        <ele>1612.75</ele>
        <time>2015-09-20T12:19:09Z</time>
      </trkpt>
      <trkpt lat="44.79477" lon="5.47681">
        <ele>1614.19</ele>
        <time>2015-09-20T12:19:12Z</time>
      </trkpt>
      <trkpt lat="44.79488" lon="5.47673">
        <ele>1615.63</ele>
        <time>2015-09-20T12:19:26Z</time>
      </trkpt>
      <trkpt lat="44.7949" lon="5.47673">
        <ele>1615.15</ele>
        <time>2015-09-20T12:19:28Z</time>
      </trkpt>
      <trkpt lat="44.79498" lon="5.4767">
        <ele>1615.63</ele>
        <time>2015-09-20T12:19:44Z</time>
      </trkpt>
      <trkpt lat="44.79508" lon="5.47669">
        <ele>1615.15</ele>
        <time>2015-09-20T12:20:11Z</time>
      </trkpt>
      <trkpt lat="44.79509" lon="5.4767">
        <ele>1614.19</ele>
        <time>2015-09-20T12:20:12Z</time>
      </trkpt>
      <trkpt lat="44.79511" lon="5.47672">
        <ele>1614.67</ele>
        <time>2015-09-20T12:20:14Z</time>
      </trkpt>
      <trkpt lat="44.79514" lon="5.47673">
        <ele>1614.67</ele>
        <time>2015-09-20T12:20:17Z</time>
      </trkpt>
      <trkpt lat="44.79516" lon="5.47677">
        <ele>1615.15</ele>
        <time>2015-09-20T12:20:21Z</time>
      </trkpt>
      <trkpt lat="44.79513" lon="5.47692">
        <ele>1613.71</ele>
        <time>2015-09-20T12:20:33Z</time>
      </trkpt>
      <trkpt lat="44.79529" lon="5.47708">
        <ele>1612.27</ele>
        <time>2015-09-20T12:20:50Z</time>
      </trkpt>
      <trkpt lat="44.79532" lon="5.47707">
        <ele>1611.79</ele>
        <time>2015-09-20T12:20:53Z</time>
      </trkpt>
      <trkpt lat="44.7954" lon="5.47699">
        <ele>1611.79</ele>
        <time>2015-09-20T12:21:02Z</time>
      </trkpt>
      <trkpt lat="44.79555" lon="5.47684">
        <ele>1611.31</ele>
        <time>2015-09-20T12:21:17Z</time>
      </trkpt>
      <trkpt lat="44.79562" lon="5.47683">
        <ele>1609.86</ele>
        <time>2015-09-20T12:21:25Z</time>
      </trkpt>
      <trkpt lat="44.79565" lon="5.47686">
        <ele>1608.9</ele>
        <time>2015-09-20T12:21:28Z</time>
      </trkpt>
      <trkpt lat="44.79567" lon="5.47692">
        <ele>1609.38</ele>
        <time>2015-09-20T12:21:33Z</time>
      </trkpt>
      <trkpt lat="44.79572" lon="5.47703">
        <ele>1610.83</ele>
        <time>2015-09-20T12:21:42Z</time>
      </trkpt>
      <trkpt lat="44.79581" lon="5.47708">
        <ele>1612.27</ele>
        <time>2015-09-20T12:21:53Z</time>
      </trkpt>
      <trkpt lat="44.79589" lon="5.47711">
        <ele>1614.67</ele>
        <time>2015-09-20T12:22:02Z</time>
      </trkpt>
      <trkpt lat="44.79593" lon="5.47718">
        <ele>1615.15</ele>
        <time>2015-09-20T12:22:08Z</time>
      </trkpt>
      <trkpt lat="44.79596" lon="5.47726">
        <ele>1616.11</ele>
        <time>2015-09-20T12:22:14Z</time>
      </trkpt>
      <trkpt lat="44.796" lon="5.47742">
        <ele>1614.19</ele>
        <time>2015-09-20T12:22:26Z</time>
      </trkpt>
      <trkpt lat="44.796" lon="5.47759">
        <ele>1614.19</ele>
        <time>2015-09-20T12:22:37Z</time>
      </trkpt>
      <trkpt lat="44.79607" lon="5.47775">
        <ele>1614.67</ele>
        <time>2015-09-20T12:22:50Z</time>
      </trkpt>
      <trkpt lat="44.79614" lon="5.47789">
        <ele>1615.15</ele>
        <time>2015-09-20T12:23:02Z</time>
      </trkpt>
      <trkpt lat="44.79626" lon="5.47803">
        <ele>1615.63</ele>
        <time>2015-09-20T12:23:19Z</time>
      </trkpt>
      <trkpt lat="44.79638" lon="5.47803">
        <ele>1613.71</ele>
        <time>2015-09-20T12:23:32Z</time>
      </trkpt>
      <trkpt lat="44.79653" lon="5.47798">
        <ele>1610.83</ele>
        <time>2015-09-20T12:23:47Z</time>
      </trkpt>
      <trkpt lat="44.79656" lon="5.47798">
        <ele>1609.86</ele>
        <time>2015-09-20T12:23:50Z</time>
      </trkpt>
      <trkpt lat="44.79665" lon="5.47791">
        <ele>1609.86</ele>
        <time>2015-09-20T12:24:00Z</time>
      </trkpt>
      <trkpt lat="44.79675" lon="5.47779">
        <ele>1612.75</ele>
        <time>2015-09-20T12:24:14Z</time>
      </trkpt>
      <trkpt lat="44.79683" lon="5.4777">
        <ele>1614.19</ele>
        <time>2015-09-20T12:24:26Z</time>
      </trkpt>
      <trkpt lat="44.79693" lon="5.47765">
        <ele>1614.67</ele>
        <time>2015-09-20T12:24:38Z</time>
      </trkpt>
      <trkpt lat="44.79701" lon="5.47766">
        <ele>1615.15</ele>
        <time>2015-09-20T12:24:48Z</time>
      </trkpt>
      <trkpt lat="44.79711" lon="5.47756">
        <ele>1614.19</ele>
        <time>2015-09-20T12:25:00Z</time>
      </trkpt>
      <trkpt lat="44.79716" lon="5.4775">
        <ele>1612.75</ele>
        <time>2015-09-20T12:25:07Z</time>
      </trkpt>
      <trkpt lat="44.79719" lon="5.47749">
        <ele>1612.27</ele>
        <time>2015-09-20T12:25:10Z</time>
      </trkpt>
      <trkpt lat="44.79731" lon="5.47753">
        <ele>1612.75</ele>
        <time>2015-09-20T12:25:24Z</time>
      </trkpt>
      <trkpt lat="44.79737" lon="5.47754">
        <ele>1612.27</ele>
        <time>2015-09-20T12:25:30Z</time>
      </trkpt>
      <trkpt lat="44.79741" lon="5.47754">
        <ele>1612.27</ele>
        <time>2015-09-20T12:25:35Z</time>
      </trkpt>
      <trkpt lat="44.79753" lon="5.47758">
        <ele>1609.86</ele>
        <time>2015-09-20T12:25:47Z</time>
      </trkpt>
      <trkpt lat="44.79757" lon="5.47756">
        <ele>1610.83</ele>
        <time>2015-09-20T12:25:50Z</time>
      </trkpt>
      <trkpt lat="44.79768" lon="5.47752">
        <ele>1610.83</ele>
        <time>2015-09-20T12:26:04Z</time>
      </trkpt>
      <trkpt lat="44.79773" lon="5.47753">
        <ele>1611.31</ele>
        <time>2015-09-20T12:26:17Z</time>
      </trkpt>
      <trkpt lat="44.79774" lon="5.47754">
        <ele>1611.31</ele>
        <time>2015-09-20T12:26:19Z</time>
      </trkpt>
      <trkpt lat="44.79776" lon="5.47754">
        <ele>1610.35</ele>
        <time>2015-09-20T12:26:22Z</time>
      </trkpt>
      <trkpt lat="44.79785" lon="5.47755">
        <ele>1613.23</ele>
        <time>2015-09-20T12:26:33Z</time>
      </trkpt>
      <trkpt lat="44.79792" lon="5.47757">
        <ele>1613.23</ele>
        <time>2015-09-20T12:26:45Z</time>
      </trkpt>
      <trkpt lat="44.79792" lon="5.47751">
        <ele>1613.71</ele>
        <time>2015-09-20T12:26:57Z</time>
      </trkpt>
      <trkpt lat="44.79798" lon="5.47743">
        <ele>1613.71</ele>
        <time>2015-09-20T12:27:10Z</time>
      </trkpt>
      <trkpt lat="44.79804" lon="5.47741">
        <ele>1617.07</ele>
        <time>2015-09-20T12:27:20Z</time>
      </trkpt>
      <trkpt lat="44.79807" lon="5.4774">
        <ele>1618.52</ele>
        <time>2015-09-20T12:27:23Z</time>
      </trkpt>
      <trkpt lat="44.79813" lon="5.47744">
        <ele>1619.48</ele>
        <time>2015-09-20T12:27:35Z</time>
      </trkpt>
      <trkpt lat="44.79824" lon="5.47746">
        <ele>1617.07</ele>
        <time>2015-09-20T12:27:48Z</time>
      </trkpt>
      <trkpt lat="44.79827" lon="5.4775">
        <ele>1615.15</ele>
        <time>2015-09-20T12:27:53Z</time>
      </trkpt>
      <trkpt lat="44.79839" lon="5.47753">
        <ele>1617.07</ele>
        <time>2015-09-20T12:28:06Z</time>
      </trkpt>
      <trkpt lat="44.79843" lon="5.47755">
        <ele>1618.52</ele>
        <time>2015-09-20T12:28:17Z</time>
      </trkpt>
      <trkpt lat="44.79849" lon="5.47755">
        <ele>1618.52</ele>
        <time>2015-09-20T12:28:23Z</time>
      </trkpt>
      <trkpt lat="44.79859" lon="5.47749">
        <ele>1618.52</ele>
        <time>2015-09-20T12:28:35Z</time>
      </trkpt>
      <trkpt lat="44.79872" lon="5.47739">
        <ele>1622.36</ele>
        <time>2015-09-20T12:28:50Z</time>
      </trkpt>
      <trkpt lat="44.79883" lon="5.47734">
        <ele>1625.73</ele>
        <time>2015-09-20T12:29:04Z</time>
      </trkpt>
      <trkpt lat="44.79885" lon="5.47734">
        <ele>1625.25</ele>
        <time>2015-09-20T12:29:06Z</time>
      </trkpt>
      <trkpt lat="44.79898" lon="5.47735">
        <ele>1625.73</ele>
        <time>2015-09-20T12:29:21Z</time>
      </trkpt>
      <trkpt lat="44.79899" lon="5.47735">
        <ele>1625.25</ele>
        <time>2015-09-20T12:29:22Z</time>
      </trkpt>
      <trkpt lat="44.79908" lon="5.47733">
        <ele>1626.69</ele>
        <time>2015-09-20T12:29:35Z</time>
      </trkpt>
      <trkpt lat="44.79914" lon="5.47735">
        <ele>1625.73</ele>
        <time>2015-09-20T12:29:41Z</time>
      </trkpt>
      <trkpt lat="44.79928" lon="5.47739">
        <ele>1628.13</ele>
        <time>2015-09-20T12:29:57Z</time>
      </trkpt>
      <trkpt lat="44.79937" lon="5.47732">
        <ele>1629.57</ele>
        <time>2015-09-20T12:30:08Z</time>
      </trkpt>
      <trkpt lat="44.79946" lon="5.47719">
        <ele>1630.05</ele>
        <time>2015-09-20T12:30:22Z</time>
      </trkpt>
      <trkpt lat="44.79956" lon="5.47714">
        <ele>1631.49</ele>
        <time>2015-09-20T12:30:37Z</time>
      </trkpt>
      <trkpt lat="44.79962" lon="5.47712">
        <ele>1631.01</ele>
        <time>2015-09-20T12:30:59Z</time>
      </trkpt>
      <trkpt lat="44.79962" lon="5.47712">
        <ele>1631.49</ele>
        <time>2015-09-20T12:31:00Z</time>
      </trkpt>
      <trkpt lat="44.79975" lon="5.47709">
        <ele>1634.86</ele>
        <time>2015-09-20T12:31:16Z</time>
      </trkpt>
      <trkpt lat="44.79985" lon="5.47712">
        <ele>1638.22</ele>
        <time>2015-09-20T12:31:31Z</time>
      </trkpt>
      <trkpt lat="44.79992" lon="5.47719">
        <ele>1639.67</ele>
        <time>2015-09-20T12:31:44Z</time>
      </trkpt>
      <trkpt lat="44.8" lon="5.4772">
        <ele>1642.55</ele>
        <time>2015-09-20T12:31:57Z</time>
      </trkpt>
      <trkpt lat="44.80011" lon="5.4772">
        <ele>1643.99</ele>
        <time>2015-09-20T12:32:12Z</time>
      </trkpt>
      <trkpt lat="44.80018" lon="5.47721">
        <ele>1646.88</ele>
        <time>2015-09-20T12:32:22Z</time>
      </trkpt>
      <trkpt lat="44.80019" lon="5.47721">
        <ele>1647.36</ele>
        <time>2015-09-20T12:32:23Z</time>
      </trkpt>
      <trkpt lat="44.80027" lon="5.47721">
        <ele>1650.24</ele>
        <time>2015-09-20T12:32:37Z</time>
      </trkpt>
      <trkpt lat="44.80028" lon="5.47721">
        <ele>1650.24</ele>
        <time>2015-09-20T12:32:38Z</time>
      </trkpt>
      <trkpt lat="44.80038" lon="5.4772">
        <ele>1651.68</ele>
        <time>2015-09-20T12:32:53Z</time>
      </trkpt>
      <trkpt lat="44.80048" lon="5.47722">
        <ele>1653.12</ele>
        <time>2015-09-20T12:33:07Z</time>
      </trkpt>
      <trkpt lat="44.80053" lon="5.47722">
        <ele>1654.09</ele>
        <time>2015-09-20T12:33:13Z</time>
      </trkpt>
      <trkpt lat="44.80057" lon="5.47721">
        <ele>1657.45</ele>
        <time>2015-09-20T12:33:19Z</time>
      </trkpt>
      <trkpt lat="44.80058" lon="5.47721">
        <ele>1654.57</ele>
        <time>2015-09-20T12:33:20Z</time>
      </trkpt>
      <trkpt lat="44.80069" lon="5.47715">
        <ele>1656.01</ele>
        <time>2015-09-20T12:33:36Z</time>
      </trkpt>
      <trkpt lat="44.80077" lon="5.47707">
        <ele>1659.37</ele>
        <time>2015-09-20T12:33:49Z</time>
      </trkpt>
      <trkpt lat="44.80085" lon="5.477">
        <ele>1660.33</ele>
        <time>2015-09-20T12:34:01Z</time>
      </trkpt>
      <trkpt lat="44.80096" lon="5.47696">
        <ele>1661.78</ele>
        <time>2015-09-20T12:34:16Z</time>
      </trkpt>
      <trkpt lat="44.80105" lon="5.47701">
        <ele>1663.22</ele>
        <time>2015-09-20T12:34:27Z</time>
      </trkpt>
      <trkpt lat="44.8012" lon="5.47699">
        <ele>1662.26</ele>
        <time>2015-09-20T12:34:44Z</time>
      </trkpt>
      <trkpt lat="44.80122" lon="5.47699">
        <ele>1662.74</ele>
        <time>2015-09-20T12:35:00Z</time>
      </trkpt>
      <trkpt lat="44.80123" lon="5.47702">
        <ele>1662.74</ele>
        <time>2015-09-20T12:35:03Z</time>
      </trkpt>
      <trkpt lat="44.80128" lon="5.47701">
        <ele>1661.78</ele>
        <time>2015-09-20T12:35:16Z</time>
      </trkpt>
      <trkpt lat="44.80135" lon="5.47705">
        <ele>1658.89</ele>
        <time>2015-09-20T12:35:29Z</time>
      </trkpt>
      <trkpt lat="44.80137" lon="5.47704">
        <ele>1658.41</ele>
        <time>2015-09-20T12:35:31Z</time>
      </trkpt>
      <trkpt lat="44.80151" lon="5.47699">
        <ele>1655.05</ele>
        <time>2015-09-20T12:35:45Z</time>
      </trkpt>
      <trkpt lat="44.8016" lon="5.47696">
        <ele>1652.16</ele>
        <time>2015-09-20T12:35:55Z</time>
      </trkpt>
      <trkpt lat="44.8017" lon="5.47691">
        <ele>1649.28</ele>
        <time>2015-09-20T12:36:07Z</time>
      </trkpt>
      <trkpt lat="44.80182" lon="5.47682">
        <ele>1646.4</ele>
        <time>2015-09-20T12:36:22Z</time>
      </trkpt>
      <trkpt lat="44.80194" lon="5.47675">
        <ele>1644.47</ele>
        <time>2015-09-20T12:36:36Z</time>
      </trkpt>
      <trkpt lat="44.80199" lon="5.47675">
        <ele>1643.99</ele>
        <time>2015-09-20T12:36:50Z</time>
      </trkpt>
      <trkpt lat="44.80199" lon="5.47673">
        <ele>1643.99</ele>
        <time>2015-09-20T12:37:10Z</time>
      </trkpt>
      <trkpt lat="44.802" lon="5.47673">
        <ele>1644.47</ele>
        <time>2015-09-20T12:37:39Z</time>
      </trkpt>
      <trkpt lat="44.80205" lon="5.47672">
        <ele>1643.99</ele>
        <time>2015-09-20T12:37:59Z</time>
      </trkpt>
      <trkpt lat="44.80211" lon="5.47672">
        <ele>1643.99</ele>
        <time>2015-09-20T12:38:21Z</time>
      </trkpt>
      <trkpt lat="44.80217" lon="5.47668">
        <ele>1643.99</ele>
        <time>2015-09-20T12:38:27Z</time>
      </trkpt>
      <trkpt lat="44.80223" lon="5.47657">
        <ele>1641.11</ele>
        <time>2015-09-20T12:38:41Z</time>
      </trkpt>
      <trkpt lat="44.80224" lon="5.47656">
        <ele>1640.63</ele>
        <time>2015-09-20T12:38:43Z</time>
      </trkpt>
      <trkpt lat="44.80234" lon="5.47658">
        <ele>1639.19</ele>
        <time>2015-09-20T12:38:53Z</time>
      </trkpt>
      <trkpt lat="44.80247" lon="5.47649">
        <ele>1634.86</ele>
        <time>2015-09-20T12:39:07Z</time>
      </trkpt>
      <trkpt lat="44.80251" lon="5.47648">
        <ele>1633.42</ele>
        <time>2015-09-20T12:39:10Z</time>
      </trkpt>
      <trkpt lat="44.80265" lon="5.47645">
        <ele>1631.98</ele>
        <time>2015-09-20T12:39:23Z</time>
      </trkpt>
      <trkpt lat="44.80268" lon="5.47643">
        <ele>1632.46</ele>
        <time>2015-09-20T12:39:26Z</time>
      </trkpt>
      <trkpt lat="44.80274" lon="5.4764">
        <ele>1631.98</ele>
        <time>2015-09-20T12:39:31Z</time>
      </trkpt>
      <trkpt lat="44.80288" lon="5.4763">
        <ele>1630.53</ele>
        <time>2015-09-20T12:39:45Z</time>
      </trkpt>
      <trkpt lat="44.80294" lon="5.47626">
        <ele>1630.05</ele>
        <time>2015-09-20T12:39:53Z</time>
      </trkpt>
      <trkpt lat="44.80297" lon="5.4762">
        <ele>1630.53</ele>
        <time>2015-09-20T12:40:08Z</time>
      </trkpt>
      <trkpt lat="44.80313" lon="5.47625">
        <ele>1627.65</ele>
        <time>2015-09-20T12:40:22Z</time>
      </trkpt>
      <trkpt lat="44.80316" lon="5.47624">
        <ele>1628.13</ele>
        <time>2015-09-20T12:40:25Z</time>
      </trkpt>
      <trkpt lat="44.80328" lon="5.47614">
        <ele>1628.61</ele>
        <time>2015-09-20T12:40:39Z</time>
      </trkpt>
      <trkpt lat="44.80337" lon="5.47611">
        <ele>1625.25</ele>
        <time>2015-09-20T12:40:49Z</time>
      </trkpt>
      <trkpt lat="44.80353" lon="5.47605">
        <ele>1623.32</ele>
        <time>2015-09-20T12:41:04Z</time>
      </trkpt>
      <trkpt lat="44.80367" lon="5.47599">
        <ele>1621.88</ele>
        <time>2015-09-20T12:41:18Z</time>
      </trkpt>
      <trkpt lat="44.80388" lon="5.47596">
        <ele>1620.44</ele>
        <time>2015-09-20T12:41:35Z</time>
      </trkpt>
      <trkpt lat="44.80402" lon="5.47603">
        <ele>1619.48</ele>
        <time>2015-09-20T12:41:49Z</time>
      </trkpt>
      <trkpt lat="44.80414" lon="5.4761">
        <ele>1620.92</ele>
        <time>2015-09-20T12:42:01Z</time>
      </trkpt>
      <trkpt lat="44.8042" lon="5.47617">
        <ele>1618.52</ele>
        <time>2015-09-20T12:42:17Z</time>
      </trkpt>
      <trkpt lat="44.80429" lon="5.4763">
        <ele>1617.56</ele>
        <time>2015-09-20T12:42:36Z</time>
      </trkpt>
      <trkpt lat="44.80445" lon="5.47638">
        <ele>1618.04</ele>
        <time>2015-09-20T12:42:51Z</time>
      </trkpt>
      <trkpt lat="44.80461" lon="5.47642">
        <ele>1618.52</ele>
        <time>2015-09-20T12:43:05Z</time>
      </trkpt>
      <trkpt lat="44.80468" lon="5.47646">
        <ele>1619.48</ele>
        <time>2015-09-20T12:43:12Z</time>
      </trkpt>
      <trkpt lat="44.80469" lon="5.47645">
        <ele>1619</ele>
        <time>2015-09-20T12:43:13Z</time>
      </trkpt>
      <trkpt lat="44.80473" lon="5.47642">
        <ele>1619.48</ele>
        <time>2015-09-20T12:43:17Z</time>
      </trkpt>
      <trkpt lat="44.80477" lon="5.47641">
        <ele>1620.92</ele>
        <time>2015-09-20T12:43:21Z</time>
      </trkpt>
      <trkpt lat="44.8049" lon="5.47632">
        <ele>1623.32</ele>
        <time>2015-09-20T12:43:35Z</time>
      </trkpt>
      <trkpt lat="44.805" lon="5.47627">
        <ele>1624.28</ele>
        <time>2015-09-20T12:43:47Z</time>
      </trkpt>
      <trkpt lat="44.80512" lon="5.47624">
        <ele>1627.17</ele>
        <time>2015-09-20T12:44:01Z</time>
      </trkpt>
      <trkpt lat="44.80523" lon="5.47622">
        <ele>1628.13</ele>
        <time>2015-09-20T12:44:16Z</time>
      </trkpt>
      <trkpt lat="44.80535" lon="5.47617">
        <ele>1630.05</ele>
        <time>2015-09-20T12:44:31Z</time>
      </trkpt>
      <trkpt lat="44.80533" lon="5.47612">
        <ele>1629.09</ele>
        <time>2015-09-20T12:44:45Z</time>
      </trkpt>
      <trkpt lat="44.80533" lon="5.47612">
        <ele>1629.57</ele>
        <time>2015-09-20T12:45:19Z</time>
      </trkpt>
      <trkpt lat="44.80542" lon="5.47614">
        <ele>1630.05</ele>
        <time>2015-09-20T12:45:29Z</time>
      </trkpt>
      <trkpt lat="44.8055" lon="5.47617">
        <ele>1630.53</ele>
        <time>2015-09-20T12:45:39Z</time>
      </trkpt>
      <trkpt lat="44.80564" lon="5.4762">
        <ele>1632.94</ele>
        <time>2015-09-20T12:45:53Z</time>
      </trkpt>
      <trkpt lat="44.80567" lon="5.47619">
        <ele>1632.94</ele>
        <time>2015-09-20T12:45:56Z</time>
      </trkpt>
      <trkpt lat="44.80574" lon="5.47617">
        <ele>1631.98</ele>
        <time>2015-09-20T12:46:02Z</time>
      </trkpt>
      <trkpt lat="44.80586" lon="5.47616">
        <ele>1628.61</ele>
        <time>2015-09-20T12:46:14Z</time>
      </trkpt>
      <trkpt lat="44.80588" lon="5.47617">
        <ele>1629.57</ele>
        <time>2015-09-20T12:46:16Z</time>
      </trkpt>
      <trkpt lat="44.8061" lon="5.47616">
        <ele>1630.05</ele>
        <time>2015-09-20T12:46:34Z</time>
      </trkpt>
      <trkpt lat="44.80624" lon="5.47624">
        <ele>1630.05</ele>
        <time>2015-09-20T12:46:48Z</time>
      </trkpt>
      <trkpt lat="44.8064" lon="5.47629">
        <ele>1628.61</ele>
        <time>2015-09-20T12:47:03Z</time>
      </trkpt>
      <trkpt lat="44.8065" lon="5.47621">
        <ele>1627.65</ele>
        <time>2015-09-20T12:47:15Z</time>
      </trkpt>
      <trkpt lat="44.80654" lon="5.47619">
        <ele>1626.69</ele>
        <time>2015-09-20T12:47:19Z</time>
      </trkpt>
      <trkpt lat="44.80662" lon="5.47608">
        <ele>1623.8</ele>
        <time>2015-09-20T12:47:31Z</time>
      </trkpt>
      <trkpt lat="44.80665" lon="5.47601">
        <ele>1623.32</ele>
        <time>2015-09-20T12:47:37Z</time>
      </trkpt>
      <trkpt lat="44.80678" lon="5.47595">
        <ele>1620.92</ele>
        <time>2015-09-20T12:47:50Z</time>
      </trkpt>
      <trkpt lat="44.80686" lon="5.47592">
        <ele>1619.48</ele>
        <time>2015-09-20T12:48:00Z</time>
      </trkpt>
      <trkpt lat="44.80686" lon="5.47587">
        <ele>1619</ele>
        <time>2015-09-20T12:48:15Z</time>
      </trkpt>
      <trkpt lat="44.80686" lon="5.47586">
        <ele>1619.48</ele>
        <time>2015-09-20T12:48:47Z</time>
      </trkpt>
      <trkpt lat="44.80689" lon="5.47586">
        <ele>1618.52</ele>
        <time>2015-09-20T12:49:02Z</time>
      </trkpt>
      <trkpt lat="44.80699" lon="5.47586">
        <ele>1619</ele>
        <time>2015-09-20T12:49:22Z</time>
      </trkpt>
      <trkpt lat="44.807" lon="5.47587">
        <ele>1618.52</ele>
        <time>2015-09-20T12:49:44Z</time>
      </trkpt>
      <trkpt lat="44.80701" lon="5.47588">
        <ele>1618.52</ele>
        <time>2015-09-20T12:49:59Z</time>
      </trkpt>
      <trkpt lat="44.80706" lon="5.47581">
        <ele>1618.52</ele>
        <time>2015-09-20T12:50:13Z</time>
      </trkpt>
      <trkpt lat="44.80701" lon="5.47584">
        <ele>1617.56</ele>
        <time>2015-09-20T12:50:18Z</time>
      </trkpt>
      <trkpt lat="44.80695" lon="5.47588">
        <ele>1618.04</ele>
        <time>2015-09-20T12:50:23Z</time>
      </trkpt>
      <trkpt lat="44.80689" lon="5.47578">
        <ele>1616.59</ele>
        <time>2015-09-20T12:50:36Z</time>
      </trkpt>
      <trkpt lat="44.80692" lon="5.47576">
        <ele>1615.15</ele>
        <time>2015-09-20T12:50:50Z</time>
      </trkpt>
      <trkpt lat="44.80698" lon="5.47568">
        <ele>1613.71</ele>
        <time>2015-09-20T12:51:02Z</time>
      </trkpt>
      <trkpt lat="44.80704" lon="5.47561">
        <ele>1611.31</ele>
        <time>2015-09-20T12:51:12Z</time>
      </trkpt>
      <trkpt lat="44.8071" lon="5.47556">
        <ele>1609.86</ele>
        <time>2015-09-20T12:51:18Z</time>
      </trkpt>
      <trkpt lat="44.80714" lon="5.4755">
        <ele>1608.42</ele>
        <time>2015-09-20T12:51:24Z</time>
      </trkpt>
      <trkpt lat="44.80715" lon="5.47534">
        <ele>1606.02</ele>
        <time>2015-09-20T12:51:38Z</time>
      </trkpt>
      <trkpt lat="44.80724" lon="5.47525">
        <ele>1604.58</ele>
        <time>2015-09-20T12:51:50Z</time>
      </trkpt>
      <trkpt lat="44.80728" lon="5.47523">
        <ele>1604.1</ele>
        <time>2015-09-20T12:51:53Z</time>
      </trkpt>
      <trkpt lat="44.80733" lon="5.47504">
        <ele>1601.21</ele>
        <time>2015-09-20T12:52:07Z</time>
      </trkpt>
      <trkpt lat="44.80742" lon="5.47487">
        <ele>1599.29</ele>
        <time>2015-09-20T12:52:21Z</time>
      </trkpt>
      <trkpt lat="44.80745" lon="5.47474">
        <ele>1596.89</ele>
        <time>2015-09-20T12:52:33Z</time>
      </trkpt>
      <trkpt lat="44.80751" lon="5.47466">
        <ele>1594.96</ele>
        <time>2015-09-20T12:52:43Z</time>
      </trkpt>
      <trkpt lat="44.80753" lon="5.47463">
        <ele>1594</ele>
        <time>2015-09-20T12:52:46Z</time>
      </trkpt>
      <trkpt lat="44.80763" lon="5.47452">
        <ele>1591.12</ele>
        <time>2015-09-20T12:53:04Z</time>
      </trkpt>
      <trkpt lat="44.80768" lon="5.47448">
        <ele>1589.68</ele>
        <time>2015-09-20T12:53:20Z</time>
      </trkpt>
      <trkpt lat="44.80775" lon="5.47439">
        <ele>1586.79</ele>
        <time>2015-09-20T12:53:31Z</time>
      </trkpt>
      <trkpt lat="44.80782" lon="5.47426">
        <ele>1584.39</ele>
        <time>2015-09-20T12:53:44Z</time>
      </trkpt>
      <trkpt lat="44.80785" lon="5.47414">
        <ele>1581.51</ele>
        <time>2015-09-20T12:53:58Z</time>
      </trkpt>
      <trkpt lat="44.80786" lon="5.4741">
        <ele>1580.06</ele>
        <time>2015-09-20T12:54:09Z</time>
      </trkpt>
      <trkpt lat="44.80789" lon="5.47406">
        <ele>1577.66</ele>
        <time>2015-09-20T12:54:21Z</time>
      </trkpt>
      <trkpt lat="44.80793" lon="5.47398">
        <ele>1575.74</ele>
        <time>2015-09-20T12:54:31Z</time>
      </trkpt>
      <trkpt lat="44.80803" lon="5.47396">
        <ele>1572.37</ele>
        <time>2015-09-20T12:54:44Z</time>
      </trkpt>
      <trkpt lat="44.80816" lon="5.47396">
        <ele>1570.93</ele>
        <time>2015-09-20T12:54:57Z</time>
      </trkpt>
      <trkpt lat="44.80819" lon="5.47396">
        <ele>1569.49</ele>
        <time>2015-09-20T12:55:02Z</time>
      </trkpt>
      <trkpt lat="44.80836" lon="5.4739">
        <ele>1567.57</ele>
        <time>2015-09-20T12:55:16Z</time>
      </trkpt>
      <trkpt lat="44.80838" lon="5.47389">
        <ele>1567.09</ele>
        <time>2015-09-20T12:55:18Z</time>
      </trkpt>
      <trkpt lat="44.80851" lon="5.47379">
        <ele>1564.68</ele>
        <time>2015-09-20T12:55:33Z</time>
      </trkpt>
      <trkpt lat="44.8086" lon="5.47374">
        <ele>1561.32</ele>
        <time>2015-09-20T12:55:45Z</time>
      </trkpt>
      <trkpt lat="44.80864" lon="5.47373">
        <ele>1559.88</ele>
        <time>2015-09-20T12:55:56Z</time>
      </trkpt>
      <trkpt lat="44.80878" lon="5.47362">
        <ele>1558.43</ele>
        <time>2015-09-20T12:56:10Z</time>
      </trkpt>
      <trkpt lat="44.80888" lon="5.47354">
        <ele>1556.03</ele>
        <time>2015-09-20T12:56:21Z</time>
      </trkpt>
      <trkpt lat="44.80888" lon="5.47352">
        <ele>1555.55</ele>
        <time>2015-09-20T12:56:23Z</time>
      </trkpt>
      <trkpt lat="44.80898" lon="5.47334">
        <ele>1554.11</ele>
        <time>2015-09-20T12:56:39Z</time>
      </trkpt>
      <trkpt lat="44.80908" lon="5.4732">
        <ele>1552.67</ele>
        <time>2015-09-20T12:56:50Z</time>
      </trkpt>
      <trkpt lat="44.8092" lon="5.47302">
        <ele>1551.22</ele>
        <time>2015-09-20T12:57:04Z</time>
      </trkpt>
      <trkpt lat="44.80927" lon="5.47289">
        <ele>1549.78</ele>
        <time>2015-09-20T12:57:17Z</time>
      </trkpt>
      <trkpt lat="44.80932" lon="5.47277">
        <ele>1549.78</ele>
        <time>2015-09-20T12:57:35Z</time>
      </trkpt>
      <trkpt lat="44.8093" lon="5.47269">
        <ele>1548.34</ele>
        <time>2015-09-20T12:57:59Z</time>
      </trkpt>
      <trkpt lat="44.80927" lon="5.47262">
        <ele>1546.9</ele>
        <time>2015-09-20T12:58:15Z</time>
      </trkpt>
      <trkpt lat="44.80944" lon="5.47264">
        <ele>1549.78</ele>
        <time>2015-09-20T12:58:31Z</time>
      </trkpt>
      <trkpt lat="44.80949" lon="5.47256">
        <ele>1551.71</ele>
        <time>2015-09-20T12:58:45Z</time>
      </trkpt>
      <trkpt lat="44.80944" lon="5.47246">
        <ele>1552.19</ele>
        <time>2015-09-20T12:59:06Z</time>
      </trkpt>
      <trkpt lat="44.8094" lon="5.4725">
        <ele>1552.19</ele>
        <time>2015-09-20T12:59:26Z</time>
      </trkpt>
      <trkpt lat="44.80943" lon="5.47246">
        <ele>1552.67</ele>
        <time>2015-09-20T12:59:47Z</time>
      </trkpt>
      <trkpt lat="44.80944" lon="5.47259">
        <ele>1551.71</ele>
        <time>2015-09-20T13:00:00Z</time>
      </trkpt>
      <trkpt lat="44.80941" lon="5.47265">
        <ele>1551.71</ele>
        <time>2015-09-20T13:00:19Z</time>
      </trkpt>
      <trkpt lat="44.80937" lon="5.47264">
        <ele>1550.74</ele>
        <time>2015-09-20T13:00:41Z</time>
      </trkpt>
      <trkpt lat="44.80935" lon="5.4726">
        <ele>1549.78</ele>
        <time>2015-09-20T13:00:54Z</time>
      </trkpt>
      <trkpt lat="44.80939" lon="5.47262">
        <ele>1550.26</ele>
        <time>2015-09-20T13:01:02Z</time>
      </trkpt>
      <trkpt lat="44.80943" lon="5.47257">
        <ele>1550.26</ele>
        <time>2015-09-20T13:01:08Z</time>
      </trkpt>
      <trkpt lat="44.80944" lon="5.47257">
        <ele>1551.22</ele>
        <time>2015-09-20T13:01:22Z</time>
      </trkpt>
      <trkpt lat="44.80942" lon="5.47254">
        <ele>1551.71</ele>
        <time>2015-09-20T13:01:34Z</time>
      </trkpt>
      <trkpt lat="44.80937" lon="5.47242">
        <ele>1551.22</ele>
        <time>2015-09-20T13:02:18Z</time>
      </trkpt>
      <trkpt lat="44.80932" lon="5.47236">
        <ele>1551.71</ele>
        <time>2015-09-20T13:02:40Z</time>
      </trkpt>
      <trkpt lat="44.80931" lon="5.47231">
        <ele>1552.67</ele>
        <time>2015-09-20T13:03:13Z</time>
      </trkpt>
      <trkpt lat="44.80937" lon="5.47234">
        <ele>1553.15</ele>
        <time>2015-09-20T13:03:57Z</time>
      </trkpt>
      <trkpt lat="44.80938" lon="5.47241">
        <ele>1553.63</ele>
        <time>2015-09-20T13:04:40Z</time>
      </trkpt>
      <trkpt lat="44.80941" lon="5.47244">
        <ele>1553.63</ele>
        <time>2015-09-20T13:05:17Z</time>
      </trkpt>
      <trkpt lat="44.80945" lon="5.47242">
        <ele>1554.11</ele>
        <time>2015-09-20T13:05:54Z</time>
      </trkpt>
      <trkpt lat="44.80947" lon="5.47241">
        <ele>1554.11</ele>
        <time>2015-09-20T13:06:31Z</time>
      </trkpt>
      <trkpt lat="44.80942" lon="5.47241">
        <ele>1554.59</ele>
        <time>2015-09-20T13:07:08Z</time>
      </trkpt>
      <trkpt lat="44.80941" lon="5.47244">
        <ele>1553.63</ele>
        <time>2015-09-20T13:07:31Z</time>
      </trkpt>
      <trkpt lat="44.80938" lon="5.47253">
        <ele>1555.07</ele>
        <time>2015-09-20T13:07:48Z</time>
      </trkpt>
      <trkpt lat="44.80935" lon="5.47257">
        <ele>1555.07</ele>
        <time>2015-09-20T13:08:04Z</time>
      </trkpt>
      <trkpt lat="44.80934" lon="5.47256">
        <ele>1553.63</ele>
        <time>2015-09-20T13:08:08Z</time>
      </trkpt>
      <trkpt lat="44.80933" lon="5.47257">
        <ele>1555.55</ele>
        <time>2015-09-20T13:08:10Z</time>
      </trkpt>
      <trkpt lat="44.80926" lon="5.47255">
        <ele>1552.19</ele>
        <time>2015-09-20T13:08:22Z</time>
      </trkpt>
      <trkpt lat="44.80925" lon="5.47251">
        <ele>1551.22</ele>
        <time>2015-09-20T13:08:27Z</time>
      </trkpt>
      <trkpt lat="44.80921" lon="5.47243">
        <ele>1549.78</ele>
        <time>2015-09-20T13:08:40Z</time>
      </trkpt>
      <trkpt lat="44.80919" lon="5.4724">
        <ele>1548.82</ele>
        <time>2015-09-20T13:08:43Z</time>
      </trkpt>
      <trkpt lat="44.80916" lon="5.47235">
        <ele>1547.38</ele>
        <time>2015-09-20T13:08:50Z</time>
      </trkpt>
      <trkpt lat="44.80916" lon="5.47234">
        <ele>1544.98</ele>
        <time>2015-09-20T13:08:59Z</time>
      </trkpt>
      <trkpt lat="44.80915" lon="5.47228">
        <ele>1544.5</ele>
        <time>2015-09-20T13:09:03Z</time>
      </trkpt>
      <trkpt lat="44.80913" lon="5.47225">
        <ele>1544.01</ele>
        <time>2015-09-20T13:09:05Z</time>
      </trkpt>
      <trkpt lat="44.80907" lon="5.47211">
        <ele>1543.53</ele>
        <time>2015-09-20T13:09:17Z</time>
      </trkpt>
      <trkpt lat="44.80898" lon="5.47198">
        <ele>1541.13</ele>
        <time>2015-09-20T13:09:32Z</time>
      </trkpt>
      <trkpt lat="44.80888" lon="5.47186">
        <ele>1539.21</ele>
        <time>2015-09-20T13:09:44Z</time>
      </trkpt>
      <trkpt lat="44.80886" lon="5.47184">
        <ele>1538.25</ele>
        <time>2015-09-20T13:09:46Z</time>
      </trkpt>
      <trkpt lat="44.80878" lon="5.47174">
        <ele>1536.32</ele>
        <time>2015-09-20T13:09:58Z</time>
      </trkpt>
      <trkpt lat="44.80873" lon="5.47165">
        <ele>1534.88</ele>
        <time>2015-09-20T13:10:10Z</time>
      </trkpt>
      <trkpt lat="44.80881" lon="5.47167">
        <ele>1531.52</ele>
        <time>2015-09-20T13:10:25Z</time>
      </trkpt>
      <trkpt lat="44.80891" lon="5.47172">
        <ele>1529.11</ele>
        <time>2015-09-20T13:10:39Z</time>
      </trkpt>
      <trkpt lat="44.80901" lon="5.47181">
        <ele>1526.71</ele>
        <time>2015-09-20T13:10:52Z</time>
      </trkpt>
      <trkpt lat="44.80905" lon="5.47172">
        <ele>1523.83</ele>
        <time>2015-09-20T13:11:04Z</time>
      </trkpt>
      <trkpt lat="44.80907" lon="5.47162">
        <ele>1520.94</ele>
        <time>2015-09-20T13:11:15Z</time>
      </trkpt>
      <trkpt lat="44.80909" lon="5.47148">
        <ele>1517.58</ele>
        <time>2015-09-20T13:11:28Z</time>
      </trkpt>
      <trkpt lat="44.8091" lon="5.47146">
        <ele>1517.1</ele>
        <time>2015-09-20T13:11:30Z</time>
      </trkpt>
      <trkpt lat="44.80911" lon="5.47131">
        <ele>1513.73</ele>
        <time>2015-09-20T13:11:40Z</time>
      </trkpt>
      <trkpt lat="44.80914" lon="5.47123">
        <ele>1511.81</ele>
        <time>2015-09-20T13:11:51Z</time>
      </trkpt>
      <trkpt lat="44.80914" lon="5.47123">
        <ele>1515.66</ele>
        <time>2015-09-20T13:11:52Z</time>
      </trkpt>
      <trkpt lat="44.80914" lon="5.47123">
        <ele>1514.21</ele>
        <time>2015-09-20T13:11:53Z</time>
      </trkpt>
      <trkpt lat="44.80914" lon="5.47123">
        <ele>1513.73</ele>
        <time>2015-09-20T13:11:55Z</time>
      </trkpt>
      <trkpt lat="44.80919" lon="5.47108">
        <ele>1511.81</ele>
        <time>2015-09-20T13:12:11Z</time>
      </trkpt>
      <trkpt lat="44.80921" lon="5.47097">
        <ele>1509.89</ele>
        <time>2015-09-20T13:12:23Z</time>
      </trkpt>
      <trkpt lat="44.80915" lon="5.471">
        <ele>1507.97</ele>
        <time>2015-09-20T13:12:38Z</time>
      </trkpt>
      <trkpt lat="44.80911" lon="5.47118">
        <ele>1507.48</ele>
        <time>2015-09-20T13:12:52Z</time>
      </trkpt>
      <trkpt lat="44.80911" lon="5.47125">
        <ele>1507.97</ele>
        <time>2015-09-20T13:13:07Z</time>
      </trkpt>
      <trkpt lat="44.80909" lon="5.47132">
        <ele>1507.48</ele>
        <time>2015-09-20T13:13:24Z</time>
      </trkpt>
      <trkpt lat="44.80907" lon="5.47132">
        <ele>1507</ele>
        <time>2015-09-20T13:13:52Z</time>
      </trkpt>
      <trkpt lat="44.80907" lon="5.47113">
        <ele>1507.97</ele>
        <time>2015-09-20T13:14:11Z</time>
      </trkpt>
      <trkpt lat="44.80913" lon="5.47099">
        <ele>1508.45</ele>
        <time>2015-09-20T13:14:23Z</time>
      </trkpt>
      <trkpt lat="44.80922" lon="5.47086">
        <ele>1507.97</ele>
        <time>2015-09-20T13:14:38Z</time>
      </trkpt>
      <trkpt lat="44.80929" lon="5.47071">
        <ele>1504.6</ele>
        <time>2015-09-20T13:14:52Z</time>
      </trkpt>
      <trkpt lat="44.80936" lon="5.47055">
        <ele>1502.68</ele>
        <time>2015-09-20T13:15:03Z</time>
      </trkpt>
      <trkpt lat="44.8094" lon="5.47036">
        <ele>1499.79</ele>
        <time>2015-09-20T13:15:18Z</time>
      </trkpt>
      <trkpt lat="44.80946" lon="5.47017">
        <ele>1497.39</ele>
        <time>2015-09-20T13:15:32Z</time>
      </trkpt>
      <trkpt lat="44.80943" lon="5.46999">
        <ele>1494.51</ele>
        <time>2015-09-20T13:15:45Z</time>
      </trkpt>
      <trkpt lat="44.80939" lon="5.46989">
        <ele>1493.06</ele>
        <time>2015-09-20T13:15:59Z</time>
      </trkpt>
      <trkpt lat="44.80933" lon="5.46989">
        <ele>1491.62</ele>
        <time>2015-09-20T13:16:14Z</time>
      </trkpt>
      <trkpt lat="44.80925" lon="5.47002">
        <ele>1491.14</ele>
        <time>2015-09-20T13:16:28Z</time>
      </trkpt>
      <trkpt lat="44.80914" lon="5.47013">
        <ele>1489.22</ele>
        <time>2015-09-20T13:16:42Z</time>
      </trkpt>
      <trkpt lat="44.80898" lon="5.47014">
        <ele>1487.3</ele>
        <time>2015-09-20T13:17:01Z</time>
      </trkpt>
      <trkpt lat="44.80892" lon="5.4703">
        <ele>1485.37</ele>
        <time>2015-09-20T13:17:12Z</time>
      </trkpt>
      <trkpt lat="44.80886" lon="5.47028">
        <ele>1485.37</ele>
        <time>2015-09-20T13:17:22Z</time>
      </trkpt>
      <trkpt lat="44.80881" lon="5.47013">
        <ele>1486.34</ele>
        <time>2015-09-20T13:17:35Z</time>
      </trkpt>
      <trkpt lat="44.80872" lon="5.46995">
        <ele>1486.34</ele>
        <time>2015-09-20T13:17:50Z</time>
      </trkpt>
      <trkpt lat="44.80862" lon="5.46978">
        <ele>1484.89</ele>
        <time>2015-09-20T13:18:04Z</time>
      </trkpt>
      <trkpt lat="44.80851" lon="5.46956">
        <ele>1484.41</ele>
        <time>2015-09-20T13:18:21Z</time>
      </trkpt>
      <trkpt lat="44.80846" lon="5.46946">
        <ele>1482.97</ele>
        <time>2015-09-20T13:18:29Z</time>
      </trkpt>
      <trkpt lat="44.80831" lon="5.46923">
        <ele>1484.41</ele>
        <time>2015-09-20T13:18:43Z</time>
      </trkpt>
      <trkpt lat="44.80824" lon="5.46908">
        <ele>1485.85</ele>
        <time>2015-09-20T13:18:55Z</time>
      </trkpt>
      <trkpt lat="44.80815" lon="5.4689">
        <ele>1486.34</ele>
        <time>2015-09-20T13:19:08Z</time>
      </trkpt>
      <trkpt lat="44.80814" lon="5.46873">
        <ele>1487.78</ele>
        <time>2015-09-20T13:19:22Z</time>
      </trkpt>
      <trkpt lat="44.80813" lon="5.46856">
        <ele>1489.22</ele>
        <time>2015-09-20T13:19:35Z</time>
      </trkpt>
      <trkpt lat="44.80811" lon="5.4684">
        <ele>1488.26</ele>
        <time>2015-09-20T13:19:47Z</time>
      </trkpt>
      <trkpt lat="44.80811" lon="5.46823">
        <ele>1487.78</ele>
        <time>2015-09-20T13:20:00Z</time>
      </trkpt>
      <trkpt lat="44.80819" lon="5.46809">
        <ele>1487.3</ele>
        <time>2015-09-20T13:20:13Z</time>
      </trkpt>
      <trkpt lat="44.8083" lon="5.46796">
        <ele>1489.22</ele>
        <time>2015-09-20T13:20:27Z</time>
      </trkpt>
      <trkpt lat="44.80836" lon="5.4679">
        <ele>1491.14</ele>
        <time>2015-09-20T13:20:35Z</time>
      </trkpt>
      <trkpt lat="44.80845" lon="5.46778">
        <ele>1492.58</ele>
        <time>2015-09-20T13:20:47Z</time>
      </trkpt>
      <trkpt lat="44.80847" lon="5.46776">
        <ele>1494.03</ele>
        <time>2015-09-20T13:20:50Z</time>
      </trkpt>
      <trkpt lat="44.80851" lon="5.46769">
        <ele>1495.47</ele>
        <time>2015-09-20T13:20:57Z</time>
      </trkpt>
      <trkpt lat="44.80847" lon="5.46755">
        <ele>1493.55</ele>
        <time>2015-09-20T13:21:11Z</time>
      </trkpt>
      <trkpt lat="44.80834" lon="5.46744">
        <ele>1493.06</ele>
        <time>2015-09-20T13:21:26Z</time>
      </trkpt>
      <trkpt lat="44.80824" lon="5.46731">
        <ele>1491.14</ele>
        <time>2015-09-20T13:21:41Z</time>
      </trkpt>
      <trkpt lat="44.80816" lon="5.46704">
        <ele>1490.66</ele>
        <time>2015-09-20T13:21:54Z</time>
      </trkpt>
      <trkpt lat="44.80808" lon="5.46687">
        <ele>1488.74</ele>
        <time>2015-09-20T13:22:07Z</time>
      </trkpt>
      <trkpt lat="44.808" lon="5.46679">
        <ele>1486.82</ele>
        <time>2015-09-20T13:22:16Z</time>
      </trkpt>
      <trkpt lat="44.80791" lon="5.46667">
        <ele>1486.34</ele>
        <time>2015-09-20T13:22:24Z</time>
      </trkpt>
      <trkpt lat="44.80789" lon="5.4665">
        <ele>1486.34</ele>
        <time>2015-09-20T13:22:37Z</time>
      </trkpt>
      <trkpt lat="44.80786" lon="5.46634">
        <ele>1484.89</ele>
        <time>2015-09-20T13:22:47Z</time>
      </trkpt>
      <trkpt lat="44.80785" lon="5.46617">
        <ele>1483.45</ele>
        <time>2015-09-20T13:23:02Z</time>
      </trkpt>
      <trkpt lat="44.80781" lon="5.46599">
        <ele>1482.01</ele>
        <time>2015-09-20T13:23:15Z</time>
      </trkpt>
      <trkpt lat="44.80782" lon="5.46584">
        <ele>1481.53</ele>
        <time>2015-09-20T13:23:24Z</time>
      </trkpt>
      <trkpt lat="44.80772" lon="5.46565">
        <ele>1480.57</ele>
        <time>2015-09-20T13:23:42Z</time>
      </trkpt>
      <trkpt lat="44.80769" lon="5.46563">
        <ele>1480.09</ele>
        <time>2015-09-20T13:23:45Z</time>
      </trkpt>
      <trkpt lat="44.80767" lon="5.46563">
        <ele>1479.13</ele>
        <time>2015-09-20T13:23:47Z</time>
      </trkpt>
      <trkpt lat="44.80753" lon="5.4656">
        <ele>1477.68</ele>
        <time>2015-09-20T13:24:01Z</time>
      </trkpt>
      <trkpt lat="44.80741" lon="5.46555">
        <ele>1475.76</ele>
        <time>2015-09-20T13:24:14Z</time>
      </trkpt>
      <trkpt lat="44.8074" lon="5.46555">
        <ele>1475.28</ele>
        <time>2015-09-20T13:24:15Z</time>
      </trkpt>
      <trkpt lat="44.80737" lon="5.46553">
        <ele>1475.76</ele>
        <time>2015-09-20T13:24:19Z</time>
      </trkpt>
      <trkpt lat="44.80721" lon="5.46541">
        <ele>1475.28</ele>
        <time>2015-09-20T13:24:31Z</time>
      </trkpt>
      <trkpt lat="44.80712" lon="5.46533">
        <ele>1474.8</ele>
        <time>2015-09-20T13:24:42Z</time>
      </trkpt>
      <trkpt lat="44.80699" lon="5.4652">
        <ele>1473.36</ele>
        <time>2015-09-20T13:24:54Z</time>
      </trkpt>
      <trkpt lat="44.80691" lon="5.46515">
        <ele>1471.92</ele>
        <time>2015-09-20T13:25:07Z</time>
      </trkpt>
      <trkpt lat="44.80686" lon="5.46512">
        <ele>1470.95</ele>
        <time>2015-09-20T13:25:11Z</time>
      </trkpt>
      <trkpt lat="44.80668" lon="5.46503">
        <ele>1469.99</ele>
        <time>2015-09-20T13:25:25Z</time>
      </trkpt>
      <trkpt lat="44.80658" lon="5.46487">
        <ele>1467.59</ele>
        <time>2015-09-20T13:25:37Z</time>
      </trkpt>
      <trkpt lat="44.80658" lon="5.46473">
        <ele>1466.15</ele>
        <time>2015-09-20T13:25:48Z</time>
      </trkpt>
      <trkpt lat="44.80657" lon="5.46458">
        <ele>1465.19</ele>
        <time>2015-09-20T13:25:58Z</time>
      </trkpt>
      <trkpt lat="44.80657" lon="5.46454">
        <ele>1464.71</ele>
        <time>2015-09-20T13:26:01Z</time>
      </trkpt>
      <trkpt lat="44.80663" lon="5.46437">
        <ele>1463.74</ele>
        <time>2015-09-20T13:26:13Z</time>
      </trkpt>
      <trkpt lat="44.80654" lon="5.46426">
        <ele>1461.34</ele>
        <time>2015-09-20T13:26:24Z</time>
      </trkpt>
      <trkpt lat="44.80646" lon="5.46423">
        <ele>1459.42</ele>
        <time>2015-09-20T13:26:38Z</time>
      </trkpt>
      <trkpt lat="44.80641" lon="5.46422">
        <ele>1457.5</ele>
        <time>2015-09-20T13:26:49Z</time>
      </trkpt>
      <trkpt lat="44.80626" lon="5.46419">
        <ele>1454.13</ele>
        <time>2015-09-20T13:27:00Z</time>
      </trkpt>
      <trkpt lat="44.80615" lon="5.46417">
        <ele>1452.69</ele>
        <time>2015-09-20T13:27:11Z</time>
      </trkpt>
      <trkpt lat="44.80602" lon="5.46412">
        <ele>1450.77</ele>
        <time>2015-09-20T13:27:22Z</time>
      </trkpt>
      <trkpt lat="44.80595" lon="5.46391">
        <ele>1449.32</ele>
        <time>2015-09-20T13:27:36Z</time>
      </trkpt>
      <trkpt lat="44.80587" lon="5.4637">
        <ele>1447.88</ele>
        <time>2015-09-20T13:27:50Z</time>
      </trkpt>
      <trkpt lat="44.80588" lon="5.46369">
        <ele>1447.88</ele>
        <time>2015-09-20T13:27:51Z</time>
      </trkpt>
      <trkpt lat="44.80581" lon="5.46353">
        <ele>1446.44</ele>
        <time>2015-09-20T13:28:01Z</time>
      </trkpt>
      <trkpt lat="44.80576" lon="5.46335">
        <ele>1446.44</ele>
        <time>2015-09-20T13:28:15Z</time>
      </trkpt>
      <trkpt lat="44.80564" lon="5.46319">
        <ele>1444.04</ele>
        <time>2015-09-20T13:28:29Z</time>
      </trkpt>
      <trkpt lat="44.80557" lon="5.46305">
        <ele>1442.6</ele>
        <time>2015-09-20T13:28:40Z</time>
      </trkpt>
      <trkpt lat="44.80555" lon="5.46298">
        <ele>1442.11</ele>
        <time>2015-09-20T13:28:46Z</time>
      </trkpt>
      <trkpt lat="44.80555" lon="5.46283">
        <ele>1441.15</ele>
        <time>2015-09-20T13:28:57Z</time>
      </trkpt>
      <trkpt lat="44.80555" lon="5.46282">
        <ele>1441.15</ele>
        <time>2015-09-20T13:28:58Z</time>
      </trkpt>
      <trkpt lat="44.80556" lon="5.46269">
        <ele>1440.19</ele>
        <time>2015-09-20T13:29:12Z</time>
      </trkpt>
      <trkpt lat="44.80558" lon="5.46258">
        <ele>1440.67</ele>
        <time>2015-09-20T13:29:25Z</time>
      </trkpt>
      <trkpt lat="44.80563" lon="5.46238">
        <ele>1442.11</ele>
        <time>2015-09-20T13:29:39Z</time>
      </trkpt>
      <trkpt lat="44.80565" lon="5.46222">
        <ele>1442.6</ele>
        <time>2015-09-20T13:29:51Z</time>
      </trkpt>
      <trkpt lat="44.80562" lon="5.46206">
        <ele>1443.08</ele>
        <time>2015-09-20T13:30:02Z</time>
      </trkpt>
      <trkpt lat="44.80563" lon="5.46188">
        <ele>1442.6</ele>
        <time>2015-09-20T13:30:14Z</time>
      </trkpt>
      <trkpt lat="44.80559" lon="5.4617">
        <ele>1443.56</ele>
        <time>2015-09-20T13:30:26Z</time>
      </trkpt>
      <trkpt lat="44.80557" lon="5.46159">
        <ele>1442.6</ele>
        <time>2015-09-20T13:30:36Z</time>
      </trkpt>
      <trkpt lat="44.80554" lon="5.46153">
        <ele>1441.63</ele>
        <time>2015-09-20T13:30:41Z</time>
      </trkpt>
      <trkpt lat="44.80547" lon="5.46142">
        <ele>1441.63</ele>
        <time>2015-09-20T13:30:51Z</time>
      </trkpt>
      <trkpt lat="44.80541" lon="5.46131">
        <ele>1440.19</ele>
        <time>2015-09-20T13:31:01Z</time>
      </trkpt>
      <trkpt lat="44.80533" lon="5.46124">
        <ele>1439.23</ele>
        <time>2015-09-20T13:31:11Z</time>
      </trkpt>
      <trkpt lat="44.80523" lon="5.46113">
        <ele>1438.27</ele>
        <time>2015-09-20T13:31:24Z</time>
      </trkpt>
      <trkpt lat="44.80511" lon="5.46096">
        <ele>1436.83</ele>
        <time>2015-09-20T13:31:36Z</time>
      </trkpt>
      <trkpt lat="44.80508" lon="5.46083">
        <ele>1436.83</ele>
        <time>2015-09-20T13:31:48Z</time>
      </trkpt>
      <trkpt lat="44.8051" lon="5.46066">
        <ele>1436.83</ele>
        <time>2015-09-20T13:31:59Z</time>
      </trkpt>
      <trkpt lat="44.80508" lon="5.46055">
        <ele>1436.35</ele>
        <time>2015-09-20T13:32:09Z</time>
      </trkpt>
      <trkpt lat="44.80502" lon="5.46043">
        <ele>1432.98</ele>
        <time>2015-09-20T13:32:21Z</time>
      </trkpt>
      <trkpt lat="44.80499" lon="5.46039">
        <ele>1433.46</ele>
        <time>2015-09-20T13:32:28Z</time>
      </trkpt>
      <trkpt lat="44.80495" lon="5.46035">
        <ele>1433.46</ele>
        <time>2015-09-20T13:32:31Z</time>
      </trkpt>
      <trkpt lat="44.80495" lon="5.4602">
        <ele>1433.46</ele>
        <time>2015-09-20T13:32:39Z</time>
      </trkpt>
      <trkpt lat="44.80499" lon="5.46016">
        <ele>1432.02</ele>
        <time>2015-09-20T13:32:42Z</time>
      </trkpt>
      <trkpt lat="44.80501" lon="5.46012">
        <ele>1432.5</ele>
        <time>2015-09-20T13:32:46Z</time>
      </trkpt>
      <trkpt lat="44.80508" lon="5.45998">
        <ele>1432.5</ele>
        <time>2015-09-20T13:32:57Z</time>
      </trkpt>
      <trkpt lat="44.80508" lon="5.45989">
        <ele>1432.98</ele>
        <time>2015-09-20T13:33:03Z</time>
      </trkpt>
      <trkpt lat="44.80513" lon="5.45969">
        <ele>1433.94</ele>
        <time>2015-09-20T13:33:18Z</time>
      </trkpt>
      <trkpt lat="44.80515" lon="5.4595">
        <ele>1436.83</ele>
        <time>2015-09-20T13:33:33Z</time>
      </trkpt>
      <trkpt lat="44.80519" lon="5.45931">
        <ele>1438.75</ele>
        <time>2015-09-20T13:33:47Z</time>
      </trkpt>
      <trkpt lat="44.80522" lon="5.45916">
        <ele>1437.31</ele>
        <time>2015-09-20T13:34:03Z</time>
      </trkpt>
      <trkpt lat="44.80525" lon="5.45902">
        <ele>1434.42</ele>
        <time>2015-09-20T13:34:14Z</time>
      </trkpt>
      <trkpt lat="44.80524" lon="5.45899">
        <ele>1432.98</ele>
        <time>2015-09-20T13:34:18Z</time>
      </trkpt>
      <trkpt lat="44.80531" lon="5.45909">
        <ele>1429.62</ele>
        <time>2015-09-20T13:34:30Z</time>
      </trkpt>
      <trkpt lat="44.80534" lon="5.45929">
        <ele>1426.25</ele>
        <time>2015-09-20T13:34:45Z</time>
      </trkpt>
      <trkpt lat="44.80535" lon="5.45939">
        <ele>1423.85</ele>
        <time>2015-09-20T13:34:55Z</time>
      </trkpt>
      <trkpt lat="44.8054" lon="5.45939">
        <ele>1421.45</ele>
        <time>2015-09-20T13:35:08Z</time>
      </trkpt>
      <trkpt lat="44.80545" lon="5.4594">
        <ele>1418.08</ele>
        <time>2015-09-20T13:35:21Z</time>
      </trkpt>
      <trkpt lat="44.80548" lon="5.45955">
        <ele>1415.2</ele>
        <time>2015-09-20T13:35:33Z</time>
      </trkpt>
      <trkpt lat="44.80553" lon="5.45951">
        <ele>1413.28</ele>
        <time>2015-09-20T13:35:44Z</time>
      </trkpt>
      <trkpt lat="44.80556" lon="5.45941">
        <ele>1410.39</ele>
        <time>2015-09-20T13:35:54Z</time>
      </trkpt>
      <trkpt lat="44.80561" lon="5.45931">
        <ele>1408.47</ele>
        <time>2015-09-20T13:36:06Z</time>
      </trkpt>
      <trkpt lat="44.80558" lon="5.45939">
        <ele>1405.1</ele>
        <time>2015-09-20T13:36:16Z</time>
      </trkpt>
      <trkpt lat="44.80561" lon="5.45952">
        <ele>1401.26</ele>
        <time>2015-09-20T13:36:32Z</time>
      </trkpt>
      <trkpt lat="44.80562" lon="5.45971">
        <ele>1400.3</ele>
        <time>2015-09-20T13:36:49Z</time>
      </trkpt>
      <trkpt lat="44.80558" lon="5.45981">
        <ele>1396.93</ele>
        <time>2015-09-20T13:37:02Z</time>
      </trkpt>
      <trkpt lat="44.80555" lon="5.45993">
        <ele>1395.49</ele>
        <time>2015-09-20T13:37:15Z</time>
      </trkpt>
      <trkpt lat="44.80559" lon="5.45992">
        <ele>1392.61</ele>
        <time>2015-09-20T13:37:23Z</time>
      </trkpt>
      <trkpt lat="44.8057" lon="5.45987">
        <ele>1390.68</ele>
        <time>2015-09-20T13:37:35Z</time>
      </trkpt>
      <trkpt lat="44.80572" lon="5.45986">
        <ele>1389.24</ele>
        <time>2015-09-20T13:37:39Z</time>
      </trkpt>
      <trkpt lat="44.80579" lon="5.4598">
        <ele>1386.84</ele>
        <time>2015-09-20T13:37:50Z</time>
      </trkpt>
      <trkpt lat="44.80584" lon="5.45965">
        <ele>1383.96</ele>
        <time>2015-09-20T13:38:03Z</time>
      </trkpt>
      <trkpt lat="44.80586" lon="5.45961">
        <ele>1382.99</ele>
        <time>2015-09-20T13:38:07Z</time>
      </trkpt>
      <trkpt lat="44.80586" lon="5.45957">
        <ele>1381.55</ele>
        <time>2015-09-20T13:38:12Z</time>
      </trkpt>
      <trkpt lat="44.80589" lon="5.45951">
        <ele>1380.59</ele>
        <time>2015-09-20T13:38:18Z</time>
      </trkpt>
      <trkpt lat="44.80592" lon="5.45944">
        <ele>1379.63</ele>
        <time>2015-09-20T13:38:23Z</time>
      </trkpt>
      <trkpt lat="44.80594" lon="5.45934">
        <ele>1377.23</ele>
        <time>2015-09-20T13:38:36Z</time>
      </trkpt>
      <trkpt lat="44.80597" lon="5.45927">
        <ele>1376.75</ele>
        <time>2015-09-20T13:38:42Z</time>
      </trkpt>
      <trkpt lat="44.80598" lon="5.45923">
        <ele>1375.3</ele>
        <time>2015-09-20T13:38:45Z</time>
      </trkpt>
      <trkpt lat="44.806" lon="5.45911">
        <ele>1373.38</ele>
        <time>2015-09-20T13:38:57Z</time>
      </trkpt>
      <trkpt lat="44.80601" lon="5.45905">
        <ele>1371.46</ele>
        <time>2015-09-20T13:39:10Z</time>
      </trkpt>
      <trkpt lat="44.806" lon="5.45906">
        <ele>1370.98</ele>
        <time>2015-09-20T13:39:22Z</time>
      </trkpt>
      <trkpt lat="44.80603" lon="5.45915">
        <ele>1368.57</ele>
        <time>2015-09-20T13:39:48Z</time>
      </trkpt>
      <trkpt lat="44.80606" lon="5.45908">
        <ele>1365.21</ele>
        <time>2015-09-20T13:40:00Z</time>
      </trkpt>
      <trkpt lat="44.80607" lon="5.45905">
        <ele>1365.21</ele>
        <time>2015-09-20T13:40:04Z</time>
      </trkpt>
      <trkpt lat="44.80607" lon="5.45898">
        <ele>1361.84</ele>
        <time>2015-09-20T13:40:13Z</time>
      </trkpt>
      <trkpt lat="44.80612" lon="5.45904">
        <ele>1358.96</ele>
        <time>2015-09-20T13:40:26Z</time>
      </trkpt>
      <trkpt lat="44.80614" lon="5.45913">
        <ele>1356.56</ele>
        <time>2015-09-20T13:40:35Z</time>
      </trkpt>
      <trkpt lat="44.80615" lon="5.45917">
        <ele>1355.12</ele>
        <time>2015-09-20T13:40:40Z</time>
      </trkpt>
      <trkpt lat="44.80617" lon="5.45929">
        <ele>1351.75</ele>
        <time>2015-09-20T13:40:49Z</time>
      </trkpt>
      <trkpt lat="44.80617" lon="5.45929">
        <ele>1351.75</ele>
        <time>2015-09-20T13:40:50Z</time>
      </trkpt>
      <trkpt lat="44.80619" lon="5.45942">
        <ele>1348.87</ele>
        <time>2015-09-20T13:41:01Z</time>
      </trkpt>
      <trkpt lat="44.8062" lon="5.45955">
        <ele>1345.02</ele>
        <time>2015-09-20T13:41:13Z</time>
      </trkpt>
      <trkpt lat="44.8062" lon="5.45956">
        <ele>1344.54</ele>
        <time>2015-09-20T13:41:14Z</time>
      </trkpt>
      <trkpt lat="44.80623" lon="5.45971">
        <ele>1343.1</ele>
        <time>2015-09-20T13:41:31Z</time>
      </trkpt>
      <trkpt lat="44.80625" lon="5.45973">
        <ele>1344.06</ele>
        <time>2015-09-20T13:41:52Z</time>
      </trkpt>
      <trkpt lat="44.80628" lon="5.45967">
        <ele>1340.7</ele>
        <time>2015-09-20T13:42:01Z</time>
      </trkpt>
      <trkpt lat="44.80633" lon="5.45953">
        <ele>1337.81</ele>
        <time>2015-09-20T13:42:17Z</time>
      </trkpt>
      <trkpt lat="44.80637" lon="5.45939">
        <ele>1335.41</ele>
        <time>2015-09-20T13:42:29Z</time>
      </trkpt>
      <trkpt lat="44.80639" lon="5.45934">
        <ele>1333.97</ele>
        <time>2015-09-20T13:42:33Z</time>
      </trkpt>
      <trkpt lat="44.80647" lon="5.45939">
        <ele>1332.04</ele>
        <time>2015-09-20T13:42:44Z</time>
      </trkpt>
      <trkpt lat="44.80647" lon="5.45943">
        <ele>1330.12</ele>
        <time>2015-09-20T13:42:50Z</time>
      </trkpt>
      <trkpt lat="44.80649" lon="5.45949">
        <ele>1327.72</ele>
        <time>2015-09-20T13:42:56Z</time>
      </trkpt>
      <trkpt lat="44.80652" lon="5.45956">
        <ele>1325.8</ele>
        <time>2015-09-20T13:43:11Z</time>
      </trkpt>
      <trkpt lat="44.80655" lon="5.45945">
        <ele>1323.39</ele>
        <time>2015-09-20T13:43:25Z</time>
      </trkpt>
      <trkpt lat="44.80656" lon="5.45938">
        <ele>1321.47</ele>
        <time>2015-09-20T13:43:38Z</time>
      </trkpt>
      <trkpt lat="44.80655" lon="5.45931">
        <ele>1320.03</ele>
        <time>2015-09-20T13:43:50Z</time>
      </trkpt>
      <trkpt lat="44.80657" lon="5.45928">
        <ele>1319.55</ele>
        <time>2015-09-20T13:44:04Z</time>
      </trkpt>
      <trkpt lat="44.80661" lon="5.45921">
        <ele>1317.14</ele>
        <time>2015-09-20T13:44:13Z</time>
      </trkpt>
      <trkpt lat="44.80666" lon="5.4591">
        <ele>1313.78</ele>
        <time>2015-09-20T13:44:24Z</time>
      </trkpt>
      <trkpt lat="44.80668" lon="5.45906">
        <ele>1312.34</ele>
        <time>2015-09-20T13:44:28Z</time>
      </trkpt>
      <trkpt lat="44.80671" lon="5.45894">
        <ele>1309.93</ele>
        <time>2015-09-20T13:44:40Z</time>
      </trkpt>
      <trkpt lat="44.80675" lon="5.45887">
        <ele>1306.57</ele>
        <time>2015-09-20T13:44:53Z</time>
      </trkpt>
      <trkpt lat="44.80679" lon="5.45882">
        <ele>1303.69</ele>
        <time>2015-09-20T13:45:04Z</time>
      </trkpt>
      <trkpt lat="44.80679" lon="5.45882">
        <ele>1303.69</ele>
        <time>2015-09-20T13:45:05Z</time>
      </trkpt>
      <trkpt lat="44.80682" lon="5.45876">
        <ele>1301.28</ele>
        <time>2015-09-20T13:45:18Z</time>
      </trkpt>
      <trkpt lat="44.80685" lon="5.45872">
        <ele>1297.92</ele>
        <time>2015-09-20T13:45:28Z</time>
      </trkpt>
      <trkpt lat="44.80686" lon="5.45867">
        <ele>1296.48</ele>
        <time>2015-09-20T13:45:36Z</time>
      </trkpt>
      <trkpt lat="44.80688" lon="5.45869">
        <ele>1295.03</ele>
        <time>2015-09-20T13:45:44Z</time>
      </trkpt>
      <trkpt lat="44.8069" lon="5.45869">
        <ele>1292.63</ele>
        <time>2015-09-20T13:45:51Z</time>
      </trkpt>
      <trkpt lat="44.80692" lon="5.45868">
        <ele>1290.71</ele>
        <time>2015-09-20T13:46:07Z</time>
      </trkpt>
      <trkpt lat="44.80693" lon="5.45875">
        <ele>1287.34</ele>
        <time>2015-09-20T13:46:15Z</time>
      </trkpt>
      <trkpt lat="44.80694" lon="5.45874">
        <ele>1291.19</ele>
        <time>2015-09-20T13:46:25Z</time>
      </trkpt>
      <trkpt lat="44.80694" lon="5.45874">
        <ele>1286.86</ele>
        <time>2015-09-20T13:46:26Z</time>
      </trkpt>
      <trkpt lat="44.80694" lon="5.45874">
        <ele>1286.86</ele>
        <time>2015-09-20T13:46:27Z</time>
      </trkpt>
      <trkpt lat="44.80694" lon="5.45874">
        <ele>1288.3</ele>
        <time>2015-09-20T13:46:29Z</time>
      </trkpt>
      <trkpt lat="44.80696" lon="5.45874">
        <ele>1288.3</ele>
        <time>2015-09-20T13:46:49Z</time>
      </trkpt>
      <trkpt lat="44.80697" lon="5.4587">
        <ele>1286.38</ele>
        <time>2015-09-20T13:46:59Z</time>
      </trkpt>
      <trkpt lat="44.80699" lon="5.45865">
        <ele>1285.42</ele>
        <time>2015-09-20T13:47:07Z</time>
      </trkpt>
      <trkpt lat="44.80702" lon="5.45861">
        <ele>1283.02</ele>
        <time>2015-09-20T13:47:12Z</time>
      </trkpt>
      <trkpt lat="44.80703" lon="5.4585">
        <ele>1282.06</ele>
        <time>2015-09-20T13:47:25Z</time>
      </trkpt>
      <trkpt lat="44.80702" lon="5.45848">
        <ele>1280.61</ele>
        <time>2015-09-20T13:47:28Z</time>
      </trkpt>
      <trkpt lat="44.80701" lon="5.45845">
        <ele>1279.65</ele>
        <time>2015-09-20T13:47:33Z</time>
      </trkpt>
      <trkpt lat="44.80698" lon="5.45839">
        <ele>1278.21</ele>
        <time>2015-09-20T13:47:45Z</time>
      </trkpt>
      <trkpt lat="44.80701" lon="5.45837">
        <ele>1275.81</ele>
        <time>2015-09-20T13:48:01Z</time>
      </trkpt>
      <trkpt lat="44.80702" lon="5.45834">
        <ele>1272.92</ele>
        <time>2015-09-20T13:48:08Z</time>
      </trkpt>
      <trkpt lat="44.80707" lon="5.4583">
        <ele>1270.04</ele>
        <time>2015-09-20T13:48:21Z</time>
      </trkpt>
      <trkpt lat="44.80711" lon="5.45829">
        <ele>1268.12</ele>
        <time>2015-09-20T13:48:35Z</time>
      </trkpt>
      <trkpt lat="44.8071" lon="5.45825">
        <ele>1266.67</ele>
        <time>2015-09-20T13:48:53Z</time>
      </trkpt>
      <trkpt lat="44.80717" lon="5.45822">
        <ele>1263.31</ele>
        <time>2015-09-20T13:49:03Z</time>
      </trkpt>
      <trkpt lat="44.80721" lon="5.45818">
        <ele>1260.43</ele>
        <time>2015-09-20T13:49:15Z</time>
      </trkpt>
      <trkpt lat="44.80718" lon="5.45815">
        <ele>1259.46</ele>
        <time>2015-09-20T13:49:19Z</time>
      </trkpt>
      <trkpt lat="44.80717" lon="5.45814">
        <ele>1263.31</ele>
        <time>2015-09-20T13:49:21Z</time>
      </trkpt>
      <trkpt lat="44.80717" lon="5.45813">
        <ele>1259.46</ele>
        <time>2015-09-20T13:49:22Z</time>
      </trkpt>
      <trkpt lat="44.80709" lon="5.45808">
        <ele>1257.06</ele>
        <time>2015-09-20T13:49:35Z</time>
      </trkpt>
      <trkpt lat="44.80711" lon="5.45802">
        <ele>1253.22</ele>
        <time>2015-09-20T13:49:47Z</time>
      </trkpt>
      <trkpt lat="44.80711" lon="5.45802">
        <ele>1252.74</ele>
        <time>2015-09-20T13:49:48Z</time>
      </trkpt>
      <trkpt lat="44.80719" lon="5.45797">
        <ele>1249.37</ele>
        <time>2015-09-20T13:49:59Z</time>
      </trkpt>
      <trkpt lat="44.80728" lon="5.45795">
        <ele>1246.49</ele>
        <time>2015-09-20T13:50:09Z</time>
      </trkpt>
      <trkpt lat="44.80737" lon="5.45796">
        <ele>1243.12</ele>
        <time>2015-09-20T13:50:20Z</time>
      </trkpt>
      <trkpt lat="44.80745" lon="5.45796">
        <ele>1241.2</ele>
        <time>2015-09-20T13:50:33Z</time>
      </trkpt>
      <trkpt lat="44.80746" lon="5.45796">
        <ele>1239.76</ele>
        <time>2015-09-20T13:50:37Z</time>
      </trkpt>
      <trkpt lat="44.80751" lon="5.45794">
        <ele>1236.39</ele>
        <time>2015-09-20T13:50:53Z</time>
      </trkpt>
      <trkpt lat="44.80747" lon="5.45783">
        <ele>1233.99</ele>
        <time>2015-09-20T13:51:11Z</time>
      </trkpt>
      <trkpt lat="44.80747" lon="5.45782">
        <ele>1233.99</ele>
        <time>2015-09-20T13:51:12Z</time>
      </trkpt>
      <trkpt lat="44.80738" lon="5.45769">
        <ele>1230.62</ele>
        <time>2015-09-20T13:51:28Z</time>
      </trkpt>
      <trkpt lat="44.80736" lon="5.45764">
        <ele>1227.74</ele>
        <time>2015-09-20T13:51:38Z</time>
      </trkpt>
      <trkpt lat="44.80743" lon="5.45762">
        <ele>1224.86</ele>
        <time>2015-09-20T13:51:48Z</time>
      </trkpt>
      <trkpt lat="44.80754" lon="5.45761">
        <ele>1221.01</ele>
        <time>2015-09-20T13:52:02Z</time>
      </trkpt>
      <trkpt lat="44.8076" lon="5.4576">
        <ele>1218.61</ele>
        <time>2015-09-20T13:52:10Z</time>
      </trkpt>
      <trkpt lat="44.80768" lon="5.45761">
        <ele>1216.21</ele>
        <time>2015-09-20T13:52:29Z</time>
      </trkpt>
      <trkpt lat="44.80776" lon="5.45764">
        <ele>1213.8</ele>
        <time>2015-09-20T13:52:40Z</time>
      </trkpt>
      <trkpt lat="44.80775" lon="5.45755">
        <ele>1210.44</ele>
        <time>2015-09-20T13:52:55Z</time>
      </trkpt>
      <trkpt lat="44.80775" lon="5.45754">
        <ele>1210.44</ele>
        <time>2015-09-20T13:52:56Z</time>
      </trkpt>
      <trkpt lat="44.80773" lon="5.4575">
        <ele>1209.96</ele>
        <time>2015-09-20T13:53:00Z</time>
      </trkpt>
      <trkpt lat="44.80766" lon="5.45741">
        <ele>1208.03</ele>
        <time>2015-09-20T13:53:11Z</time>
      </trkpt>
      <trkpt lat="44.80766" lon="5.4574">
        <ele>1207.07</ele>
        <time>2015-09-20T13:53:12Z</time>
      </trkpt>
      <trkpt lat="44.80758" lon="5.45725">
        <ele>1203.23</ele>
        <time>2015-09-20T13:53:27Z</time>
      </trkpt>
      <trkpt lat="44.80764" lon="5.45726">
        <ele>1200.34</ele>
        <time>2015-09-20T13:53:40Z</time>
      </trkpt>
      <trkpt lat="44.80769" lon="5.45725">
        <ele>1198.9</ele>
        <time>2015-09-20T13:53:47Z</time>
      </trkpt>
      <trkpt lat="44.80778" lon="5.45724">
        <ele>1195.54</ele>
        <time>2015-09-20T13:53:59Z</time>
      </trkpt>
      <trkpt lat="44.80788" lon="5.45725">
        <ele>1192.17</ele>
        <time>2015-09-20T13:54:10Z</time>
      </trkpt>
      <trkpt lat="44.80796" lon="5.4572">
        <ele>1189.29</ele>
        <time>2015-09-20T13:54:23Z</time>
      </trkpt>
      <trkpt lat="44.80808" lon="5.45718">
        <ele>1186.4</ele>
        <time>2015-09-20T13:54:36Z</time>
      </trkpt>
      <trkpt lat="44.80814" lon="5.45717">
        <ele>1183.04</ele>
        <time>2015-09-20T13:54:45Z</time>
      </trkpt>
      <trkpt lat="44.80815" lon="5.45711">
        <ele>1182.56</ele>
        <time>2015-09-20T13:55:00Z</time>
      </trkpt>
      <trkpt lat="44.80818" lon="5.45713">
        <ele>1182.56</ele>
        <time>2015-09-20T13:55:17Z</time>
      </trkpt>
      <trkpt lat="44.80821" lon="5.45711">
        <ele>1183.04</ele>
        <time>2015-09-20T13:55:46Z</time>
      </trkpt>
      <trkpt lat="44.80814" lon="5.45708">
        <ele>1181.12</ele>
        <time>2015-09-20T13:56:02Z</time>
      </trkpt>
      <trkpt lat="44.80806" lon="5.45704">
        <ele>1178.71</ele>
        <time>2015-09-20T13:56:16Z</time>
      </trkpt>
      <trkpt lat="44.80803" lon="5.45699">
        <ele>1176.79</ele>
        <time>2015-09-20T13:56:21Z</time>
      </trkpt>
      <trkpt lat="44.80803" lon="5.45691">
        <ele>1173.91</ele>
        <time>2015-09-20T13:56:34Z</time>
      </trkpt>
      <trkpt lat="44.80809" lon="5.45692">
        <ele>1170.54</ele>
        <time>2015-09-20T13:56:44Z</time>
      </trkpt>
      <trkpt lat="44.80817" lon="5.45688">
        <ele>1168.62</ele>
        <time>2015-09-20T13:56:57Z</time>
      </trkpt>
      <trkpt lat="44.80819" lon="5.45688">
        <ele>1167.66</ele>
        <time>2015-09-20T13:57:00Z</time>
      </trkpt>
      <trkpt lat="44.80822" lon="5.45687">
        <ele>1165.26</ele>
        <time>2015-09-20T13:57:06Z</time>
      </trkpt>
      <trkpt lat="44.80825" lon="5.45685">
        <ele>1165.26</ele>
        <time>2015-09-20T13:57:21Z</time>
      </trkpt>
      <trkpt lat="44.80822" lon="5.4568">
        <ele>1164.29</ele>
        <time>2015-09-20T13:57:41Z</time>
      </trkpt>
      <trkpt lat="44.80815" lon="5.45674">
        <ele>1161.41</ele>
        <time>2015-09-20T13:57:51Z</time>
      </trkpt>
      <trkpt lat="44.80818" lon="5.4567">
        <ele>1158.53</ele>
        <time>2015-09-20T13:57:59Z</time>
      </trkpt>
      <trkpt lat="44.80819" lon="5.45669">
        <ele>1158.53</ele>
        <time>2015-09-20T13:58:00Z</time>
      </trkpt>
      <trkpt lat="44.80824" lon="5.45668">
        <ele>1155.16</ele>
        <time>2015-09-20T13:58:09Z</time>
      </trkpt>
      <trkpt lat="44.80826" lon="5.45668">
        <ele>1155.64</ele>
        <time>2015-09-20T13:58:10Z</time>
      </trkpt>
      <trkpt lat="44.8083" lon="5.45668">
        <ele>1154.2</ele>
        <time>2015-09-20T13:58:14Z</time>
      </trkpt>
      <trkpt lat="44.80833" lon="5.45668">
        <ele>1152.28</ele>
        <time>2015-09-20T13:58:18Z</time>
      </trkpt>
      <trkpt lat="44.80844" lon="5.45669">
        <ele>1148.43</ele>
        <time>2015-09-20T13:58:32Z</time>
      </trkpt>
      <trkpt lat="44.80845" lon="5.4567">
        <ele>1148.43</ele>
        <time>2015-09-20T13:58:33Z</time>
      </trkpt>
      <trkpt lat="44.80848" lon="5.45678">
        <ele>1146.99</ele>
        <time>2015-09-20T13:58:46Z</time>
      </trkpt>
      <trkpt lat="44.8085" lon="5.45675">
        <ele>1144.59</ele>
        <time>2015-09-20T13:58:51Z</time>
      </trkpt>
      <trkpt lat="44.80854" lon="5.4567">
        <ele>1141.7</ele>
        <time>2015-09-20T13:59:02Z</time>
      </trkpt>
      <trkpt lat="44.80857" lon="5.45658">
        <ele>1140.26</ele>
        <time>2015-09-20T13:59:14Z</time>
      </trkpt>
      <trkpt lat="44.80857" lon="5.45657">
        <ele>1140.26</ele>
        <time>2015-09-20T13:59:15Z</time>
      </trkpt>
      <trkpt lat="44.80858" lon="5.45649">
        <ele>1137.38</ele>
        <time>2015-09-20T13:59:24Z</time>
      </trkpt>
      <trkpt lat="44.80857" lon="5.45637">
        <ele>1134.01</ele>
        <time>2015-09-20T13:59:36Z</time>
      </trkpt>
      <trkpt lat="44.80855" lon="5.45635">
        <ele>1133.05</ele>
        <time>2015-09-20T13:59:50Z</time>
      </trkpt>
      <trkpt lat="44.80864" lon="5.45638">
        <ele>1130.65</ele>
        <time>2015-09-20T14:00:21Z</time>
      </trkpt>
      <trkpt lat="44.80869" lon="5.45643">
        <ele>1127.28</ele>
        <time>2015-09-20T14:00:30Z</time>
      </trkpt>
      <trkpt lat="44.8087" lon="5.45645">
        <ele>1126.8</ele>
        <time>2015-09-20T14:00:34Z</time>
      </trkpt>
      <trkpt lat="44.80879" lon="5.45654">
        <ele>1122.96</ele>
        <time>2015-09-20T14:00:44Z</time>
      </trkpt>
      <trkpt lat="44.8088" lon="5.45656">
        <ele>1122.48</ele>
        <time>2015-09-20T14:00:45Z</time>
      </trkpt>
      <trkpt lat="44.80889" lon="5.45666">
        <ele>1120.07</ele>
        <time>2015-09-20T14:00:59Z</time>
      </trkpt>
      <trkpt lat="44.80891" lon="5.45669">
        <ele>1119.11</ele>
        <time>2015-09-20T14:01:02Z</time>
      </trkpt>
      <trkpt lat="44.80894" lon="5.45673">
        <ele>1115.75</ele>
        <time>2015-09-20T14:01:14Z</time>
      </trkpt>
      <trkpt lat="44.80895" lon="5.45672">
        <ele>1115.27</ele>
        <time>2015-09-20T14:01:15Z</time>
      </trkpt>
      <trkpt lat="44.80896" lon="5.4565">
        <ele>1113.34</ele>
        <time>2015-09-20T14:01:33Z</time>
      </trkpt>
      <trkpt lat="44.80895" lon="5.45638">
        <ele>1109.5</ele>
        <time>2015-09-20T14:01:43Z</time>
      </trkpt>
      <trkpt lat="44.80895" lon="5.45638">
        <ele>1109.98</ele>
        <time>2015-09-20T14:01:44Z</time>
      </trkpt>
      <trkpt lat="44.80893" lon="5.45631">
        <ele>1108.06</ele>
        <time>2015-09-20T14:01:51Z</time>
      </trkpt>
      <trkpt lat="44.80892" lon="5.45628">
        <ele>1107.1</ele>
        <time>2015-09-20T14:01:53Z</time>
      </trkpt>
      <trkpt lat="44.8089" lon="5.45617">
        <ele>1103.73</ele>
        <time>2015-09-20T14:02:05Z</time>
      </trkpt>
      <trkpt lat="44.8089" lon="5.45615">
        <ele>1102.77</ele>
        <time>2015-09-20T14:02:07Z</time>
      </trkpt>
      <trkpt lat="44.80895" lon="5.45616">
        <ele>1099.89</ele>
        <time>2015-09-20T14:02:28Z</time>
      </trkpt>
      <trkpt lat="44.809" lon="5.4562">
        <ele>1097.48</ele>
        <time>2015-09-20T14:02:34Z</time>
      </trkpt>
      <trkpt lat="44.80908" lon="5.45627">
        <ele>1094.12</ele>
        <time>2015-09-20T14:02:46Z</time>
      </trkpt>
      <trkpt lat="44.80919" lon="5.45635">
        <ele>1090.75</ele>
        <time>2015-09-20T14:03:00Z</time>
      </trkpt>
      <trkpt lat="44.80921" lon="5.45639">
        <ele>1089.31</ele>
        <time>2015-09-20T14:03:05Z</time>
      </trkpt>
      <trkpt lat="44.80926" lon="5.45645">
        <ele>1085.95</ele>
        <time>2015-09-20T14:03:13Z</time>
      </trkpt>
      <trkpt lat="44.80927" lon="5.45646">
        <ele>1084.99</ele>
        <time>2015-09-20T14:03:15Z</time>
      </trkpt>
      <trkpt lat="44.80935" lon="5.45654">
        <ele>1081.62</ele>
        <time>2015-09-20T14:03:27Z</time>
      </trkpt>
      <trkpt lat="44.80936" lon="5.45645">
        <ele>1081.62</ele>
        <time>2015-09-20T14:03:47Z</time>
      </trkpt>
      <trkpt lat="44.80937" lon="5.45642">
        <ele>1080.18</ele>
        <time>2015-09-20T14:03:50Z</time>
      </trkpt>
      <trkpt lat="44.8094" lon="5.45631">
        <ele>1076.81</ele>
        <time>2015-09-20T14:03:59Z</time>
      </trkpt>
      <trkpt lat="44.80942" lon="5.45624">
        <ele>1074.89</ele>
        <time>2015-09-20T14:04:06Z</time>
      </trkpt>
      <trkpt lat="44.80942" lon="5.45623">
        <ele>1074.41</ele>
        <time>2015-09-20T14:04:08Z</time>
      </trkpt>
      <trkpt lat="44.80945" lon="5.45623">
        <ele>1072.49</ele>
        <time>2015-09-20T14:04:20Z</time>
      </trkpt>
      <trkpt lat="44.80951" lon="5.45633">
        <ele>1069.6</ele>
        <time>2015-09-20T14:04:33Z</time>
      </trkpt>
      <trkpt lat="44.8095" lon="5.45631">
        <ele>1069.6</ele>
        <time>2015-09-20T14:04:55Z</time>
      </trkpt>
      <trkpt lat="44.80955" lon="5.4564">
        <ele>1068.16</ele>
        <time>2015-09-20T14:05:15Z</time>
      </trkpt>
      <trkpt lat="44.80963" lon="5.4565">
        <ele>1064.8</ele>
        <time>2015-09-20T14:05:33Z</time>
      </trkpt>
      <trkpt lat="44.8097" lon="5.45662">
        <ele>1061.43</ele>
        <time>2015-09-20T14:05:45Z</time>
      </trkpt>
      <trkpt lat="44.80974" lon="5.45653">
        <ele>1059.03</ele>
        <time>2015-09-20T14:06:01Z</time>
      </trkpt>
      <trkpt lat="44.80976" lon="5.45642">
        <ele>1058.07</ele>
        <time>2015-09-20T14:06:10Z</time>
      </trkpt>
      <trkpt lat="44.80979" lon="5.45624">
        <ele>1054.22</ele>
        <time>2015-09-20T14:06:25Z</time>
      </trkpt>
      <trkpt lat="44.80972" lon="5.45598">
        <ele>1052.78</ele>
        <time>2015-09-20T14:06:43Z</time>
      </trkpt>
      <trkpt lat="44.80966" lon="5.45578">
        <ele>1052.3</ele>
        <time>2015-09-20T14:06:57Z</time>
      </trkpt>
      <trkpt lat="44.80965" lon="5.45558">
        <ele>1050.38</ele>
        <time>2015-09-20T14:07:13Z</time>
      </trkpt>
      <trkpt lat="44.80962" lon="5.45549">
        <ele>1048.94</ele>
        <time>2015-09-20T14:07:26Z</time>
      </trkpt>
      <trkpt lat="44.80955" lon="5.45545">
        <ele>1049.42</ele>
        <time>2015-09-20T14:07:33Z</time>
      </trkpt>
      <trkpt lat="44.80944" lon="5.4554">
        <ele>1049.9</ele>
        <time>2015-09-20T14:07:47Z</time>
      </trkpt>
      <trkpt lat="44.8095" lon="5.45546">
        <ele>1048.94</ele>
        <time>2015-09-20T14:08:04Z</time>
      </trkpt>
      <trkpt lat="44.80951" lon="5.45544">
        <ele>1048.94</ele>
        <time>2015-09-20T14:08:18Z</time>
      </trkpt>
      <trkpt lat="44.8096" lon="5.45563">
        <ele>1047.97</ele>
        <time>2015-09-20T14:08:35Z</time>
      </trkpt>
      <trkpt lat="44.80963" lon="5.4556">
        <ele>1046.53</ele>
        <time>2015-09-20T14:08:49Z</time>
      </trkpt>
      <trkpt lat="44.80965" lon="5.45558">
        <ele>1046.05</ele>
        <time>2015-09-20T14:09:12Z</time>
      </trkpt>
      <trkpt lat="44.80969" lon="5.45552">
        <ele>1046.05</ele>
        <time>2015-09-20T14:09:40Z</time>
      </trkpt>
      <trkpt lat="44.80974" lon="5.45551">
        <ele>1046.53</ele>
        <time>2015-09-20T14:10:21Z</time>
      </trkpt>
      <trkpt lat="44.8097" lon="5.45555">
        <ele>1047.01</ele>
        <time>2015-09-20T14:10:56Z</time>
      </trkpt>
      <trkpt lat="44.80972" lon="5.45557">
        <ele>1046.53</ele>
        <time>2015-09-20T14:11:11Z</time>
      </trkpt>
      <trkpt lat="44.8097" lon="5.4555">
        <ele>1046.53</ele>
        <time>2015-09-20T14:11:25Z</time>
      </trkpt>
      <trkpt lat="44.80966" lon="5.45542">
        <ele>1045.09</ele>
        <time>2015-09-20T14:11:39Z</time>
      </trkpt>
      <trkpt lat="44.80951" lon="5.45535">
        <ele>1044.61</ele>
        <time>2015-09-20T14:11:55Z</time>
      </trkpt>
      <trkpt lat="44.80943" lon="5.45532">
        <ele>1044.61</ele>
        <time>2015-09-20T14:12:02Z</time>
      </trkpt>
      <trkpt lat="44.80924" lon="5.45531">
        <ele>1045.57</ele>
        <time>2015-09-20T14:12:16Z</time>
      </trkpt>
      <trkpt lat="44.80914" lon="5.45534">
        <ele>1046.53</ele>
        <time>2015-09-20T14:12:26Z</time>
      </trkpt>
      <trkpt lat="44.80898" lon="5.45526">
        <ele>1047.97</ele>
        <time>2015-09-20T14:12:40Z</time>
      </trkpt>
      <trkpt lat="44.80894" lon="5.45522">
        <ele>1048.45</ele>
        <time>2015-09-20T14:12:44Z</time>
      </trkpt>
      <trkpt lat="44.80882" lon="5.45527">
        <ele>1049.9</ele>
        <time>2015-09-20T14:12:57Z</time>
      </trkpt>
      <trkpt lat="44.80871" lon="5.45535">
        <ele>1050.86</ele>
        <time>2015-09-20T14:13:11Z</time>
      </trkpt>
      <trkpt lat="44.8087" lon="5.45535">
        <ele>1051.82</ele>
        <time>2015-09-20T14:13:13Z</time>
      </trkpt>
      <trkpt lat="44.8086" lon="5.45539">
        <ele>1052.3</ele>
        <time>2015-09-20T14:13:22Z</time>
      </trkpt>
      <trkpt lat="44.80849" lon="5.45542">
        <ele>1052.78</ele>
        <time>2015-09-20T14:13:32Z</time>
      </trkpt>
      <trkpt lat="44.80843" lon="5.45541">
        <ele>1053.74</ele>
        <time>2015-09-20T14:13:37Z</time>
      </trkpt>
      <trkpt lat="44.80828" lon="5.45544">
        <ele>1054.7</ele>
        <time>2015-09-20T14:13:51Z</time>
      </trkpt>
      <trkpt lat="44.80815" lon="5.45546">
        <ele>1056.63</ele>
        <time>2015-09-20T14:14:04Z</time>
      </trkpt>
      <trkpt lat="44.80807" lon="5.45545">
        <ele>1057.59</ele>
        <time>2015-09-20T14:14:12Z</time>
      </trkpt>
      <trkpt lat="44.80798" lon="5.45545">
        <ele>1058.55</ele>
        <time>2015-09-20T14:14:21Z</time>
      </trkpt>
      <trkpt lat="44.80796" lon="5.45544">
        <ele>1059.03</ele>
        <time>2015-09-20T14:14:23Z</time>
      </trkpt>
      <trkpt lat="44.80793" lon="5.45542">
        <ele>1059.51</ele>
        <time>2015-09-20T14:14:26Z</time>
      </trkpt>
      <trkpt lat="44.80785" lon="5.45523">
        <ele>1060.47</ele>
        <time>2015-09-20T14:14:40Z</time>
      </trkpt>
      <trkpt lat="44.8078" lon="5.45507">
        <ele>1060.95</ele>
        <time>2015-09-20T14:14:51Z</time>
      </trkpt>
      <trkpt lat="44.80786" lon="5.45492">
        <ele>1060.95</ele>
        <time>2015-09-20T14:15:01Z</time>
      </trkpt>
      <trkpt lat="44.80795" lon="5.45473">
        <ele>1062.87</ele>
        <time>2015-09-20T14:15:16Z</time>
      </trkpt>
      <trkpt lat="44.80795" lon="5.45472">
        <ele>1062.39</ele>
        <time>2015-09-20T14:15:17Z</time>
      </trkpt>
      <trkpt lat="44.80812" lon="5.45458">
        <ele>1063.84</ele>
        <time>2015-09-20T14:15:33Z</time>
      </trkpt>
      <trkpt lat="44.80817" lon="5.45449">
        <ele>1063.36</ele>
        <time>2015-09-20T14:15:39Z</time>
      </trkpt>
      <trkpt lat="44.80824" lon="5.45425">
        <ele>1065.76</ele>
        <time>2015-09-20T14:15:54Z</time>
      </trkpt>
      <trkpt lat="44.80819" lon="5.45407">
        <ele>1067.2</ele>
        <time>2015-09-20T14:16:07Z</time>
      </trkpt>
      <trkpt lat="44.80818" lon="5.45403">
        <ele>1066.72</ele>
        <time>2015-09-20T14:16:10Z</time>
      </trkpt>
      <trkpt lat="44.80816" lon="5.45381">
        <ele>1067.68</ele>
        <time>2015-09-20T14:16:24Z</time>
      </trkpt>
      <trkpt lat="44.80822" lon="5.45364">
        <ele>1068.64</ele>
        <time>2015-09-20T14:16:36Z</time>
      </trkpt>
      <trkpt lat="44.80829" lon="5.45342">
        <ele>1069.12</ele>
        <time>2015-09-20T14:16:52Z</time>
      </trkpt>
      <trkpt lat="44.80831" lon="5.45332">
        <ele>1069.6</ele>
        <time>2015-09-20T14:16:58Z</time>
      </trkpt>
      <trkpt lat="44.80832" lon="5.45321">
        <ele>1070.08</ele>
        <time>2015-09-20T14:17:05Z</time>
      </trkpt>
      <trkpt lat="44.80844" lon="5.45302">
        <ele>1071.53</ele>
        <time>2015-09-20T14:17:20Z</time>
      </trkpt>
      <trkpt lat="44.8085" lon="5.45281">
        <ele>1072.97</ele>
        <time>2015-09-20T14:17:34Z</time>
      </trkpt>
      <trkpt lat="44.80852" lon="5.45273">
        <ele>1072.97</ele>
        <time>2015-09-20T14:17:40Z</time>
      </trkpt>
      <trkpt lat="44.80853" lon="5.4527">
        <ele>1073.45</ele>
        <time>2015-09-20T14:17:42Z</time>
      </trkpt>
      <trkpt lat="44.80856" lon="5.4525">
        <ele>1074.41</ele>
        <time>2015-09-20T14:17:55Z</time>
      </trkpt>
      <trkpt lat="44.80858" lon="5.45228">
        <ele>1075.37</ele>
        <time>2015-09-20T14:18:09Z</time>
      </trkpt>
      <trkpt lat="44.80858" lon="5.45207">
        <ele>1076.81</ele>
        <time>2015-09-20T14:18:23Z</time>
      </trkpt>
      <trkpt lat="44.80862" lon="5.45191">
        <ele>1078.74</ele>
        <time>2015-09-20T14:18:34Z</time>
      </trkpt>
      <trkpt lat="44.80865" lon="5.45182">
        <ele>1079.7</ele>
        <time>2015-09-20T14:18:46Z</time>
      </trkpt>
      <trkpt lat="44.80868" lon="5.45171">
        <ele>1080.66</ele>
        <time>2015-09-20T14:19:04Z</time>
      </trkpt>
      <trkpt lat="44.80871" lon="5.45158">
        <ele>1081.14</ele>
        <time>2015-09-20T14:19:13Z</time>
      </trkpt>
      <trkpt lat="44.80873" lon="5.45136">
        <ele>1082.58</ele>
        <time>2015-09-20T14:19:28Z</time>
      </trkpt>
      <trkpt lat="44.80874" lon="5.45115">
        <ele>1083.54</ele>
        <time>2015-09-20T14:19:42Z</time>
      </trkpt>
      <trkpt lat="44.80877" lon="5.45095">
        <ele>1084.5</ele>
        <time>2015-09-20T14:19:56Z</time>
      </trkpt>
      <trkpt lat="44.80877" lon="5.45083">
        <ele>1085.47</ele>
        <time>2015-09-20T14:20:03Z</time>
      </trkpt>
      <trkpt lat="44.80865" lon="5.45061">
        <ele>1084.5</ele>
        <time>2015-09-20T14:20:20Z</time>
      </trkpt>
      <trkpt lat="44.80851" lon="5.45048">
        <ele>1081.62</ele>
        <time>2015-09-20T14:20:35Z</time>
      </trkpt>
      <trkpt lat="44.80838" lon="5.45036">
        <ele>1080.66</ele>
        <time>2015-09-20T14:20:47Z</time>
      </trkpt>
      <trkpt lat="44.8082" lon="5.45034">
        <ele>1078.26</ele>
        <time>2015-09-20T14:21:02Z</time>
      </trkpt>
      <trkpt lat="44.80813" lon="5.45034">
        <ele>1078.26</ele>
        <time>2015-09-20T14:21:08Z</time>
      </trkpt>
      <trkpt lat="44.80803" lon="5.45035">
        <ele>1076.81</ele>
        <time>2015-09-20T14:21:18Z</time>
      </trkpt>
      <trkpt lat="44.80792" lon="5.4503">
        <ele>1075.37</ele>
        <time>2015-09-20T14:21:29Z</time>
      </trkpt>
      <trkpt lat="44.80773" lon="5.45013">
        <ele>1074.41</ele>
        <time>2015-09-20T14:21:44Z</time>
      </trkpt>
      <trkpt lat="44.80769" lon="5.45004">
        <ele>1073.45</ele>
        <time>2015-09-20T14:21:57Z</time>
      </trkpt>
      <trkpt lat="44.80753" lon="5.45005">
        <ele>1072.01</ele>
        <time>2015-09-20T14:22:10Z</time>
      </trkpt>
      <trkpt lat="44.80739" lon="5.45003">
        <ele>1068.64</ele>
        <time>2015-09-20T14:22:22Z</time>
      </trkpt>
      <trkpt lat="44.80722" lon="5.44989">
        <ele>1066.24</ele>
        <time>2015-09-20T14:22:37Z</time>
      </trkpt>
      <trkpt lat="44.8071" lon="5.44978">
        <ele>1065.28</ele>
        <time>2015-09-20T14:22:48Z</time>
      </trkpt>
      <trkpt lat="44.80702" lon="5.44973">
        <ele>1063.84</ele>
        <time>2015-09-20T14:22:56Z</time>
      </trkpt>
      <trkpt lat="44.80699" lon="5.44963">
        <ele>1062.39</ele>
        <time>2015-09-20T14:23:04Z</time>
      </trkpt>
      <trkpt lat="44.80698" lon="5.44956">
        <ele>1062.39</ele>
        <time>2015-09-20T14:23:07Z</time>
      </trkpt>
      <trkpt lat="44.80702" lon="5.44915">
        <ele>1059.51</ele>
        <time>2015-09-20T14:23:25Z</time>
      </trkpt>
      <trkpt lat="44.80704" lon="5.44905">
        <ele>1058.07</ele>
        <time>2015-09-20T14:23:31Z</time>
      </trkpt>
      <trkpt lat="44.80701" lon="5.44881">
        <ele>1055.18</ele>
        <time>2015-09-20T14:23:46Z</time>
      </trkpt>
      <trkpt lat="44.80699" lon="5.44857">
        <ele>1051.82</ele>
        <time>2015-09-20T14:24:00Z</time>
      </trkpt>
      <trkpt lat="44.8069" lon="5.44838">
        <ele>1049.9</ele>
        <time>2015-09-20T14:24:12Z</time>
      </trkpt>
      <trkpt lat="44.80676" lon="5.44835">
        <ele>1047.49</ele>
        <time>2015-09-20T14:24:26Z</time>
      </trkpt>
      <trkpt lat="44.80673" lon="5.44835">
        <ele>1047.97</ele>
        <time>2015-09-20T14:24:29Z</time>
      </trkpt>
      <trkpt lat="44.8066" lon="5.44823">
        <ele>1044.13</ele>
        <time>2015-09-20T14:24:42Z</time>
      </trkpt>
      <trkpt lat="44.80658" lon="5.44819">
        <ele>1044.13</ele>
        <time>2015-09-20T14:24:44Z</time>
      </trkpt>
      <trkpt lat="44.80646" lon="5.44797">
        <ele>1041.73</ele>
        <time>2015-09-20T14:24:59Z</time>
      </trkpt>
      <trkpt lat="44.80638" lon="5.44776">
        <ele>1040.28</ele>
        <time>2015-09-20T14:25:09Z</time>
      </trkpt>
      <trkpt lat="44.80625" lon="5.44753">
        <ele>1037.4</ele>
        <time>2015-09-20T14:25:26Z</time>
      </trkpt>
      <trkpt lat="44.80615" lon="5.44742">
        <ele>1035.48</ele>
        <time>2015-09-20T14:25:40Z</time>
      </trkpt>
      <trkpt lat="44.80606" lon="5.4473">
        <ele>1033.07</ele>
        <time>2015-09-20T14:25:52Z</time>
      </trkpt>
      <trkpt lat="44.806" lon="5.44712">
        <ele>1030.19</ele>
        <time>2015-09-20T14:26:07Z</time>
      </trkpt>
      <trkpt lat="44.80597" lon="5.44701">
        <ele>1028.75</ele>
        <time>2015-09-20T14:26:18Z</time>
      </trkpt>
      <trkpt lat="44.80597" lon="5.44698">
        <ele>1027.79</ele>
        <time>2015-09-20T14:26:20Z</time>
      </trkpt>
      <trkpt lat="44.80591" lon="5.44662">
        <ele>1025.86</ele>
        <time>2015-09-20T14:26:34Z</time>
      </trkpt>
      <trkpt lat="44.80587" lon="5.44638">
        <ele>1023.94</ele>
        <time>2015-09-20T14:26:47Z</time>
      </trkpt>
      <trkpt lat="44.80583" lon="5.44615">
        <ele>1020.58</ele>
        <time>2015-09-20T14:27:03Z</time>
      </trkpt>
      <trkpt lat="44.8058" lon="5.44594">
        <ele>1019.13</ele>
        <time>2015-09-20T14:27:16Z</time>
      </trkpt>
      <trkpt lat="44.80577" lon="5.44562">
        <ele>1016.73</ele>
        <time>2015-09-20T14:27:33Z</time>
      </trkpt>
      <trkpt lat="44.80575" lon="5.44542">
        <ele>1016.25</ele>
        <time>2015-09-20T14:27:44Z</time>
      </trkpt>
      <trkpt lat="44.80575" lon="5.44539">
        <ele>1015.77</ele>
        <time>2015-09-20T14:27:46Z</time>
      </trkpt>
      <trkpt lat="44.80581" lon="5.44525">
        <ele>1013.37</ele>
        <time>2015-09-20T14:28:01Z</time>
      </trkpt>
      <trkpt lat="44.80583" lon="5.44527">
        <ele>1013.85</ele>
        <time>2015-09-20T14:28:03Z</time>
      </trkpt>
      <trkpt lat="44.80587" lon="5.44556">
        <ele>1011.44</ele>
        <time>2015-09-20T14:28:22Z</time>
      </trkpt>
      <trkpt lat="44.80589" lon="5.44583">
        <ele>1010</ele>
        <time>2015-09-20T14:28:39Z</time>
      </trkpt>
      <trkpt lat="44.80592" lon="5.44597">
        <ele>1009.04</ele>
        <time>2015-09-20T14:28:52Z</time>
      </trkpt>
      <trkpt lat="44.80598" lon="5.44616">
        <ele>1007.12</ele>
        <time>2015-09-20T14:29:07Z</time>
      </trkpt>
      <trkpt lat="44.80606" lon="5.44629">
        <ele>1007.12</ele>
        <time>2015-09-20T14:29:18Z</time>
      </trkpt>
      <trkpt lat="44.80619" lon="5.44653">
        <ele>1004.72</ele>
        <time>2015-09-20T14:29:37Z</time>
      </trkpt>
      <trkpt lat="44.80638" lon="5.44655">
        <ele>1002.31</ele>
        <time>2015-09-20T14:29:52Z</time>
      </trkpt>
      <trkpt lat="44.80648" lon="5.4465">
        <ele>1002.31</ele>
        <time>2015-09-20T14:30:08Z</time>
      </trkpt>
      <trkpt lat="44.80648" lon="5.4465">
        <ele>999.43</ele>
        <time>2015-09-20T14:30:10Z</time>
      </trkpt>
    </trkseg>
  </trk>
</gpx>